<?xml version='1.0' encoding='UTF-8'?><gpx version="1.1" creator="JPX - https://github.com/jenetics/jpx" xmlns="http://www.topografix.com/GPX/1/1"><trk><trkseg><trkpt lat="39.8166712" lon="-0.2458372"><ele>176.0</ele><time>2026-04-05T07:53:12.665Z</time></trkpt><trkpt lat="39.8166024" lon="-0.2458326"><ele>176.0</ele><time>2026-04-05T07:53:15.73Z</time></trkpt><trkpt lat="39.8164621" lon="-0.2458629"><ele>176.0</ele><time>2026-04-05T07:53:18.76Z</time></trkpt><trkpt lat="39.81638" lon="-0.245965"><ele>176.0</ele><time>2026-04-05T07:53:20.664Z</time></trkpt><trkpt lat="39.81635" lon="-0.2460433"><ele>176.0</ele><time>2026-04-05T07:53:21.665Z</time></trkpt><trkpt lat="39.816295" lon="-0.24616"><ele>176.0</ele><time>2026-04-05T07:53:23.664Z</time></trkpt><trkpt lat="39.8162683" lon="-0.2462417"><ele>176.0</ele><time>2026-04-05T07:53:24.664Z</time></trkpt><trkpt lat="39.816245" lon="-0.2463217"><ele>176.0</ele><time>2026-04-05T07:53:25.664Z</time></trkpt><trkpt lat="39.816225" lon="-0.2464017"><ele>176.0</ele><time>2026-04-05T07:53:26.664Z</time></trkpt><trkpt lat="39.816205" lon="-0.246485"><ele>176.0</ele><time>2026-04-05T07:53:27.664Z</time></trkpt><trkpt lat="39.8161783" lon="-0.2465717"><ele>176.0</ele><time>2026-04-05T07:53:28.664Z</time></trkpt><trkpt lat="39.81615" lon="-0.2466617"><ele>176.0</ele><time>2026-04-05T07:53:29.664Z</time></trkpt><trkpt lat="39.8161133" lon="-0.246755"><ele>176.16666666666666</ele><time>2026-04-05T07:53:30.664Z</time></trkpt><trkpt lat="39.816075" lon="-0.2468417"><ele>176.33333333333331</ele><time>2026-04-05T07:53:31.664Z</time></trkpt><trkpt lat="39.8160417" lon="-0.2469367"><ele>176.5</ele><time>2026-04-05T07:53:32.664Z</time></trkpt><trkpt lat="39.8160083" lon="-0.24703"><ele>176.66666666666666</ele><time>2026-04-05T07:53:33.664Z</time></trkpt><trkpt lat="39.8159767" lon="-0.247125"><ele>176.83333333333334</ele><time>2026-04-05T07:53:34.664Z</time></trkpt><trkpt lat="39.8159433" lon="-0.247215"><ele>177.0</ele><time>2026-04-05T07:53:35.665Z</time></trkpt><trkpt lat="39.8159167" lon="-0.2473117"><ele>175.33333333333334</ele><time>2026-04-05T07:53:36.664Z</time></trkpt><trkpt lat="39.81589" lon="-0.247405"><ele>173.66666666666666</ele><time>2026-04-05T07:53:37.664Z</time></trkpt><trkpt lat="39.815855" lon="-0.2474933"><ele>172.0</ele><time>2026-04-05T07:53:38.664Z</time></trkpt><trkpt lat="39.815815" lon="-0.24758"><ele>170.33333333333331</ele><time>2026-04-05T07:53:39.664Z</time></trkpt><trkpt lat="39.81577" lon="-0.2476617"><ele>168.66666666666666</ele><time>2026-04-05T07:53:40.665Z</time></trkpt><trkpt lat="39.8157233" lon="-0.2477483"><ele>167.0</ele><time>2026-04-05T07:53:41.664Z</time></trkpt><trkpt lat="39.8156667" lon="-0.2478267"><ele>167.0</ele><time>2026-04-05T07:53:42.664Z</time></trkpt><trkpt lat="39.8156117" lon="-0.24791"><ele>167.0</ele><time>2026-04-05T07:53:43.664Z</time></trkpt><trkpt lat="39.81555" lon="-0.24799"><ele>167.0</ele><time>2026-04-05T07:53:44.664Z</time></trkpt><trkpt lat="39.81549" lon="-0.2480583"><ele>167.0</ele><time>2026-04-05T07:53:45.664Z</time></trkpt><trkpt lat="39.8154367" lon="-0.2481217"><ele>167.0</ele><time>2026-04-05T07:53:46.664Z</time></trkpt><trkpt lat="39.8153917" lon="-0.2481867"><ele>167.0</ele><time>2026-04-05T07:53:47.664Z</time></trkpt><trkpt lat="39.8153233" lon="-0.2482917"><ele>167.83333333333331</ele><time>2026-04-05T07:53:49.664Z</time></trkpt><trkpt lat="39.8152667" lon="-0.24834"><ele>168.66666666666666</ele><time>2026-04-05T07:53:51.664Z</time></trkpt><trkpt lat="39.8151967" lon="-0.2483517"><ele>169.5</ele><time>2026-04-05T07:53:53.664Z</time></trkpt><trkpt lat="39.8150983" lon="-0.2483467"><ele>170.33333333333334</ele><time>2026-04-05T07:53:55.664Z</time></trkpt><trkpt lat="39.81498" lon="-0.2483033"><ele>171.16666666666669</ele><time>2026-04-05T07:53:57.665Z</time></trkpt><trkpt lat="39.8149083" lon="-0.2482733"><ele>172.0</ele><time>2026-04-05T07:53:58.664Z</time></trkpt><trkpt lat="39.8148367" lon="-0.248245"><ele>170.16666666666669</ele><time>2026-04-05T07:53:59.664Z</time></trkpt><trkpt lat="39.8147567" lon="-0.2482117"><ele>168.33333333333334</ele><time>2026-04-05T07:54:00.664Z</time></trkpt><trkpt lat="39.8146717" lon="-0.24818"><ele>166.5</ele><time>2026-04-05T07:54:01.664Z</time></trkpt><trkpt lat="39.8145917" lon="-0.2481567"><ele>164.66666666666666</ele><time>2026-04-05T07:54:02.664Z</time></trkpt><trkpt lat="39.8145117" lon="-0.2481383"><ele>162.83333333333331</ele><time>2026-04-05T07:54:03.664Z</time></trkpt><trkpt lat="39.81444" lon="-0.2481283"><ele>161.0</ele><time>2026-04-05T07:54:04.664Z</time></trkpt><trkpt lat="39.81437" lon="-0.2481233"><ele>159.20000000000002</ele><time>2026-04-05T07:54:05.665Z</time></trkpt><trkpt lat="39.814255" lon="-0.2481117"><ele>157.4</ele><time>2026-04-05T07:54:07.664Z</time></trkpt><trkpt lat="39.814165" lon="-0.2480617"><ele>155.6</ele><time>2026-04-05T07:54:09.664Z</time></trkpt><trkpt lat="39.81412" lon="-0.2479467"><ele>153.8</ele><time>2026-04-05T07:54:11.664Z</time></trkpt><trkpt lat="39.81411" lon="-0.247815"><ele>152.0</ele><time>2026-04-05T07:54:13.664Z</time></trkpt><trkpt lat="39.8141033" lon="-0.2476917"><ele>152.0</ele><time>2026-04-05T07:54:15.664Z</time></trkpt><trkpt lat="39.8141" lon="-0.2475717"><ele>152.0</ele><time>2026-04-05T07:54:17.664Z</time></trkpt><trkpt lat="39.8140933" lon="-0.2474783"><ele>152.0</ele><time>2026-04-05T07:54:19.665Z</time></trkpt><trkpt lat="39.8140833" lon="-0.2473733"><ele>152.0</ele><time>2026-04-05T07:54:22.665Z</time></trkpt><trkpt lat="39.8140683" lon="-0.2472817"><ele>152.0</ele><time>2026-04-05T07:54:25.665Z</time></trkpt><trkpt lat="39.814045" lon="-0.2471633"><ele>152.0</ele><time>2026-04-05T07:54:28.664Z</time></trkpt><trkpt lat="39.814025" lon="-0.2470733"><ele>152.83333333333331</ele><time>2026-04-05T07:54:30.664Z</time></trkpt><trkpt lat="39.8139717" lon="-0.2469967"><ele>153.66666666666666</ele><time>2026-04-05T07:54:32.664Z</time></trkpt><trkpt lat="39.8138733" lon="-0.2469433"><ele>154.5</ele><time>2026-04-05T07:54:34.665Z</time></trkpt><trkpt lat="39.81381" lon="-0.2469217"><ele>155.33333333333334</ele><time>2026-04-05T07:54:35.664Z</time></trkpt><trkpt lat="39.8136983" lon="-0.2468433"><ele>156.16666666666669</ele><time>2026-04-05T07:54:37.664Z</time></trkpt><trkpt lat="39.8136567" lon="-0.2467817"><ele>157.0</ele><time>2026-04-05T07:54:38.664Z</time></trkpt><trkpt lat="39.8136283" lon="-0.2466233"><ele>157.0</ele><time>2026-04-05T07:54:40.665Z</time></trkpt><trkpt lat="39.81363" lon="-0.2465333"><ele>157.0</ele><time>2026-04-05T07:54:41.664Z</time></trkpt><trkpt lat="39.8136417" lon="-0.246445"><ele>157.0</ele><time>2026-04-05T07:54:42.664Z</time></trkpt><trkpt lat="39.8136417" lon="-0.246285"><ele>157.0</ele><time>2026-04-05T07:54:44.664Z</time></trkpt><trkpt lat="39.813635" lon="-0.246135"><ele>157.0</ele><time>2026-04-05T07:54:46.664Z</time></trkpt><trkpt lat="39.813615" lon="-0.246005"><ele>157.0</ele><time>2026-04-05T07:54:48.664Z</time></trkpt><trkpt lat="39.8135917" lon="-0.2458933"><ele>157.0</ele><time>2026-04-05T07:54:50.664Z</time></trkpt><trkpt lat="39.8135717" lon="-0.2457783"><ele>157.0</ele><time>2026-04-05T07:54:52.664Z</time></trkpt><trkpt lat="39.81354" lon="-0.2456583"><ele>157.0</ele><time>2026-04-05T07:54:54.664Z</time></trkpt><trkpt lat="39.8135" lon="-0.2455467"><ele>157.0</ele><time>2026-04-05T07:54:56.664Z</time></trkpt><trkpt lat="39.8134517" lon="-0.2454067"><ele>154.79999999999998</ele><time>2026-04-05T07:54:58.664Z</time></trkpt><trkpt lat="39.8134117" lon="-0.2452683"><ele>152.6</ele><time>2026-04-05T07:55:00.664Z</time></trkpt><trkpt lat="39.813365" lon="-0.245145"><ele>150.39999999999998</ele><time>2026-04-05T07:55:02.665Z</time></trkpt><trkpt lat="39.813295" lon="-0.24504"><ele>148.2</ele><time>2026-04-05T07:55:04.664Z</time></trkpt><trkpt lat="39.813235" lon="-0.24501"><ele>146.0</ele><time>2026-04-05T07:55:05.664Z</time></trkpt><trkpt lat="39.81316" lon="-0.2450117"><ele>146.0</ele><time>2026-04-05T07:55:06.664Z</time></trkpt><trkpt lat="39.8130817" lon="-0.2450217"><ele>146.0</ele><time>2026-04-05T07:55:07.664Z</time></trkpt><trkpt lat="39.8130083" lon="-0.245045"><ele>146.0</ele><time>2026-04-05T07:55:08.665Z</time></trkpt><trkpt lat="39.812935" lon="-0.245085"><ele>146.0</ele><time>2026-04-05T07:55:09.665Z</time></trkpt><trkpt lat="39.812855" lon="-0.245115"><ele>146.0</ele><time>2026-04-05T07:55:10.664Z</time></trkpt><trkpt lat="39.81278" lon="-0.245155"><ele>146.0</ele><time>2026-04-05T07:55:11.665Z</time></trkpt><trkpt lat="39.812705" lon="-0.245195"><ele>145.0</ele><time>2026-04-05T07:55:12.664Z</time></trkpt><trkpt lat="39.812625" lon="-0.2452217"><ele>144.0</ele><time>2026-04-05T07:55:13.665Z</time></trkpt><trkpt lat="39.8125383" lon="-0.2452617"><ele>143.0</ele><time>2026-04-05T07:55:14.665Z</time></trkpt><trkpt lat="39.8124567" lon="-0.245295"><ele>142.0</ele><time>2026-04-05T07:55:15.664Z</time></trkpt><trkpt lat="39.8123733" lon="-0.24533"><ele>141.0</ele><time>2026-04-05T07:55:16.664Z</time></trkpt><trkpt lat="39.8122883" lon="-0.2453583"><ele>140.0</ele><time>2026-04-05T07:55:17.664Z</time></trkpt><trkpt lat="39.8122017" lon="-0.2453867"><ele>140.0</ele><time>2026-04-05T07:55:18.664Z</time></trkpt><trkpt lat="39.8121233" lon="-0.24542"><ele>140.0</ele><time>2026-04-05T07:55:19.664Z</time></trkpt><trkpt lat="39.8120533" lon="-0.2454533"><ele>140.0</ele><time>2026-04-05T07:55:20.665Z</time></trkpt><trkpt lat="39.8119717" lon="-0.2454733"><ele>140.0</ele><time>2026-04-05T07:55:21.664Z</time></trkpt><trkpt lat="39.811895" lon="-0.2455"><ele>140.0</ele><time>2026-04-05T07:55:22.664Z</time></trkpt><trkpt lat="39.811785" lon="-0.2455717"><ele>140.0</ele><time>2026-04-05T07:55:24.664Z</time></trkpt><trkpt lat="39.8117267" lon="-0.2456683"><ele>139.66666666666666</ele><time>2026-04-05T07:55:26.664Z</time></trkpt><trkpt lat="39.8117083" lon="-0.24578"><ele>139.33333333333331</ele><time>2026-04-05T07:55:28.664Z</time></trkpt><trkpt lat="39.811715" lon="-0.2458983"><ele>139.0</ele><time>2026-04-05T07:55:30.664Z</time></trkpt><trkpt lat="39.81174" lon="-0.246"><ele>138.66666666666666</ele><time>2026-04-05T07:55:32.664Z</time></trkpt><trkpt lat="39.8117733" lon="-0.2461067"><ele>138.33333333333334</ele><time>2026-04-05T07:55:34.664Z</time></trkpt><trkpt lat="39.8118117" lon="-0.2462233"><ele>138.0</ele><time>2026-04-05T07:55:36.664Z</time></trkpt><trkpt lat="39.8118433" lon="-0.24633"><ele>138.0</ele><time>2026-04-05T07:55:38.664Z</time></trkpt><trkpt lat="39.8118717" lon="-0.2464233"><ele>138.0</ele><time>2026-04-05T07:55:40.665Z</time></trkpt><trkpt lat="39.81189" lon="-0.2465117"><ele>138.0</ele><time>2026-04-05T07:55:42.664Z</time></trkpt><trkpt lat="39.8119017" lon="-0.2466033"><ele>138.0</ele><time>2026-04-05T07:55:44.664Z</time></trkpt><trkpt lat="39.8119167" lon="-0.2466867"><ele>138.0</ele><time>2026-04-05T07:55:46.664Z</time></trkpt><trkpt lat="39.8119317" lon="-0.2468083"><ele>138.0</ele><time>2026-04-05T07:55:49.664Z</time></trkpt><trkpt lat="39.81195" lon="-0.246925"><ele>137.66666666666666</ele><time>2026-04-05T07:55:52.665Z</time></trkpt><trkpt lat="39.8119567" lon="-0.24701"><ele>137.33333333333334</ele><time>2026-04-05T07:55:54.664Z</time></trkpt><trkpt lat="39.8119683" lon="-0.2471033"><ele>137.0</ele><time>2026-04-05T07:55:56.665Z</time></trkpt><trkpt lat="39.8119833" lon="-0.2471883"><ele>136.66666666666669</ele><time>2026-04-05T07:55:58.665Z</time></trkpt><trkpt lat="39.812" lon="-0.2472867"><ele>136.33333333333334</ele><time>2026-04-05T07:56:00.664Z</time></trkpt><trkpt lat="39.8120217" lon="-0.2473883"><ele>136.0</ele><time>2026-04-05T07:56:02.664Z</time></trkpt><trkpt lat="39.8120783" lon="-0.24751"><ele>136.0</ele><time>2026-04-05T07:56:04.664Z</time></trkpt><trkpt lat="39.8121233" lon="-0.247585"><ele>136.0</ele><time>2026-04-05T07:56:05.665Z</time></trkpt><trkpt lat="39.812175" lon="-0.2476733"><ele>136.0</ele><time>2026-04-05T07:56:06.664Z</time></trkpt><trkpt lat="39.8122117" lon="-0.24777"><ele>136.0</ele><time>2026-04-05T07:56:07.664Z</time></trkpt><trkpt lat="39.8122467" lon="-0.2478567"><ele>136.0</ele><time>2026-04-05T07:56:08.664Z</time></trkpt><trkpt lat="39.81227" lon="-0.24794"><ele>136.0</ele><time>2026-04-05T07:56:09.664Z</time></trkpt><trkpt lat="39.8123033" lon="-0.2480817"><ele>136.33333333333334</ele><time>2026-04-05T07:56:11.665Z</time></trkpt><trkpt lat="39.8123367" lon="-0.2482033"><ele>136.66666666666669</ele><time>2026-04-05T07:56:13.664Z</time></trkpt><trkpt lat="39.8123567" lon="-0.2483017"><ele>137.0</ele><time>2026-04-05T07:56:15.664Z</time></trkpt><trkpt lat="39.81236" lon="-0.2484033"><ele>137.33333333333334</ele><time>2026-04-05T07:56:18.665Z</time></trkpt><trkpt lat="39.8123517" lon="-0.2485033"><ele>137.66666666666666</ele><time>2026-04-05T07:56:21.664Z</time></trkpt><trkpt lat="39.8123317" lon="-0.248595"><ele>138.0</ele><time>2026-04-05T07:56:24.664Z</time></trkpt><trkpt lat="39.8123183" lon="-0.2486867"><ele>138.0</ele><time>2026-04-05T07:56:27.664Z</time></trkpt><trkpt lat="39.8123" lon="-0.2487783"><ele>138.0</ele><time>2026-04-05T07:56:30.665Z</time></trkpt><trkpt lat="39.812275" lon="-0.2488783"><ele>138.0</ele><time>2026-04-05T07:56:33.664Z</time></trkpt><trkpt lat="39.8122617" lon="-0.2489917"><ele>138.0</ele><time>2026-04-05T07:56:36.664Z</time></trkpt><trkpt lat="39.81225" lon="-0.2491067"><ele>138.0</ele><time>2026-04-05T07:56:39.665Z</time></trkpt><trkpt lat="39.8122317" lon="-0.24919"><ele>138.0</ele><time>2026-04-05T07:56:41.664Z</time></trkpt><trkpt lat="39.812175" lon="-0.249285"><ele>138.5</ele><time>2026-04-05T07:56:44.664Z</time></trkpt><trkpt lat="39.8121117" lon="-0.24932"><ele>139.0</ele><time>2026-04-05T07:56:46.665Z</time></trkpt><trkpt lat="39.81204" lon="-0.249335"><ele>139.5</ele><time>2026-04-05T07:56:48.664Z</time></trkpt><trkpt lat="39.8119567" lon="-0.249335"><ele>140.0</ele><time>2026-04-05T07:56:50.664Z</time></trkpt><trkpt lat="39.81188" lon="-0.2492933"><ele>140.5</ele><time>2026-04-05T07:56:52.664Z</time></trkpt><trkpt lat="39.8118183" lon="-0.2491933"><ele>141.0</ele><time>2026-04-05T07:56:54.664Z</time></trkpt><trkpt lat="39.81175" lon="-0.2490683"><ele>141.0</ele><time>2026-04-05T07:56:56.664Z</time></trkpt><trkpt lat="39.811715" lon="-0.2489917"><ele>141.0</ele><time>2026-04-05T07:56:57.664Z</time></trkpt><trkpt lat="39.8116817" lon="-0.2489183"><ele>141.0</ele><time>2026-04-05T07:56:58.664Z</time></trkpt><trkpt lat="39.8116433" lon="-0.24884"><ele>141.0</ele><time>2026-04-05T07:56:59.664Z</time></trkpt><trkpt lat="39.81161" lon="-0.2487633"><ele>141.0</ele><time>2026-04-05T07:57:00.664Z</time></trkpt><trkpt lat="39.8115733" lon="-0.24868"><ele>141.0</ele><time>2026-04-05T07:57:01.664Z</time></trkpt><trkpt lat="39.8115333" lon="-0.2486"><ele>141.0</ele><time>2026-04-05T07:57:02.665Z</time></trkpt><trkpt lat="39.8114933" lon="-0.2485183"><ele>140.16666666666666</ele><time>2026-04-05T07:57:03.665Z</time></trkpt><trkpt lat="39.8114583" lon="-0.24843"><ele>139.33333333333334</ele><time>2026-04-05T07:57:04.664Z</time></trkpt><trkpt lat="39.81142" lon="-0.248345"><ele>138.5</ele><time>2026-04-05T07:57:05.664Z</time></trkpt><trkpt lat="39.8113717" lon="-0.24826"><ele>137.66666666666669</ele><time>2026-04-05T07:57:06.664Z</time></trkpt><trkpt lat="39.8113283" lon="-0.248175"><ele>136.83333333333334</ele><time>2026-04-05T07:57:07.665Z</time></trkpt><trkpt lat="39.8112817" lon="-0.2480933"><ele>136.0</ele><time>2026-04-05T07:57:08.664Z</time></trkpt><trkpt lat="39.81123" lon="-0.2480183"><ele>136.0</ele><time>2026-04-05T07:57:09.665Z</time></trkpt><trkpt lat="39.8111817" lon="-0.2479417"><ele>136.0</ele><time>2026-04-05T07:57:10.664Z</time></trkpt><trkpt lat="39.8111267" lon="-0.2478583"><ele>136.0</ele><time>2026-04-05T07:57:11.664Z</time></trkpt><trkpt lat="39.8110767" lon="-0.24777"><ele>136.0</ele><time>2026-04-05T07:57:12.664Z</time></trkpt><trkpt lat="39.81104" lon="-0.2476717"><ele>136.0</ele><time>2026-04-05T07:57:13.664Z</time></trkpt><trkpt lat="39.8110033" lon="-0.247575"><ele>136.0</ele><time>2026-04-05T07:57:14.664Z</time></trkpt><trkpt lat="39.81097" lon="-0.2474783"><ele>136.0</ele><time>2026-04-05T07:57:15.664Z</time></trkpt><trkpt lat="39.8109333" lon="-0.247385"><ele>136.0</ele><time>2026-04-05T07:57:16.664Z</time></trkpt><trkpt lat="39.8109017" lon="-0.2472917"><ele>136.0</ele><time>2026-04-05T07:57:17.664Z</time></trkpt><trkpt lat="39.810865" lon="-0.2471967"><ele>136.0</ele><time>2026-04-05T07:57:18.664Z</time></trkpt><trkpt lat="39.8108283" lon="-0.2470983"><ele>136.0</ele><time>2026-04-05T07:57:19.664Z</time></trkpt><trkpt lat="39.8107983" lon="-0.2470017"><ele>136.0</ele><time>2026-04-05T07:57:20.665Z</time></trkpt><trkpt lat="39.8107667" lon="-0.246905"><ele>135.0</ele><time>2026-04-05T07:57:21.664Z</time></trkpt><trkpt lat="39.8107333" lon="-0.24681"><ele>134.0</ele><time>2026-04-05T07:57:22.664Z</time></trkpt><trkpt lat="39.8107" lon="-0.246715"><ele>133.0</ele><time>2026-04-05T07:57:23.664Z</time></trkpt><trkpt lat="39.81066" lon="-0.246615"><ele>132.0</ele><time>2026-04-05T07:57:24.665Z</time></trkpt><trkpt lat="39.8106233" lon="-0.2465167"><ele>131.0</ele><time>2026-04-05T07:57:25.664Z</time></trkpt><trkpt lat="39.81059" lon="-0.2464183"><ele>130.0</ele><time>2026-04-05T07:57:26.664Z</time></trkpt><trkpt lat="39.8105583" lon="-0.246315"><ele>129.2</ele><time>2026-04-05T07:57:27.664Z</time></trkpt><trkpt lat="39.8105167" lon="-0.2462117"><ele>128.4</ele><time>2026-04-05T07:57:28.664Z</time></trkpt><trkpt lat="39.8104833" lon="-0.2461033"><ele>127.6</ele><time>2026-04-05T07:57:29.664Z</time></trkpt><trkpt lat="39.810445" lon="-0.245995"><ele>126.8</ele><time>2026-04-05T07:57:30.664Z</time></trkpt><trkpt lat="39.8104083" lon="-0.2458833"><ele>126.0</ele><time>2026-04-05T07:57:31.664Z</time></trkpt><trkpt lat="39.8103733" lon="-0.2457717"><ele>126.0</ele><time>2026-04-05T07:57:32.664Z</time></trkpt><trkpt lat="39.8103383" lon="-0.2456667"><ele>126.0</ele><time>2026-04-05T07:57:33.664Z</time></trkpt><trkpt lat="39.8102983" lon="-0.24556"><ele>126.0</ele><time>2026-04-05T07:57:34.665Z</time></trkpt><trkpt lat="39.8102633" lon="-0.2454533"><ele>126.0</ele><time>2026-04-05T07:57:35.664Z</time></trkpt><trkpt lat="39.810225" lon="-0.24535"><ele>126.0</ele><time>2026-04-05T07:57:36.664Z</time></trkpt><trkpt lat="39.8101833" lon="-0.2452433"><ele>126.0</ele><time>2026-04-05T07:57:37.664Z</time></trkpt><trkpt lat="39.8101483" lon="-0.2451383"><ele>125.83333333333333</ele><time>2026-04-05T07:57:38.664Z</time></trkpt><trkpt lat="39.81011" lon="-0.2450283"><ele>125.66666666666666</ele><time>2026-04-05T07:57:39.664Z</time></trkpt><trkpt lat="39.81007" lon="-0.2449217"><ele>125.5</ele><time>2026-04-05T07:57:40.664Z</time></trkpt><trkpt lat="39.81002" lon="-0.2448233"><ele>125.33333333333333</ele><time>2026-04-05T07:57:41.665Z</time></trkpt><trkpt lat="39.8099717" lon="-0.24473"><ele>125.16666666666666</ele><time>2026-04-05T07:57:42.664Z</time></trkpt><trkpt lat="39.8099317" lon="-0.2446283"><ele>125.0</ele><time>2026-04-05T07:57:43.664Z</time></trkpt><trkpt lat="39.80989" lon="-0.24453"><ele>124.33333333333333</ele><time>2026-04-05T07:57:44.664Z</time></trkpt><trkpt lat="39.809845" lon="-0.2444283"><ele>123.66666666666666</ele><time>2026-04-05T07:57:45.665Z</time></trkpt><trkpt lat="39.8097967" lon="-0.24433"><ele>123.0</ele><time>2026-04-05T07:57:46.664Z</time></trkpt><trkpt lat="39.8097533" lon="-0.2442267"><ele>122.33333333333334</ele><time>2026-04-05T07:57:47.664Z</time></trkpt><trkpt lat="39.809705" lon="-0.2441283"><ele>121.66666666666667</ele><time>2026-04-05T07:57:48.665Z</time></trkpt><trkpt lat="39.80966" lon="-0.2440283"><ele>121.0</ele><time>2026-04-05T07:57:49.664Z</time></trkpt><trkpt lat="39.8096183" lon="-0.243925"><ele>120.66666666666667</ele><time>2026-04-05T07:57:50.664Z</time></trkpt><trkpt lat="39.8095717" lon="-0.24383"><ele>120.33333333333334</ele><time>2026-04-05T07:57:51.665Z</time></trkpt><trkpt lat="39.809515" lon="-0.243745"><ele>120.0</ele><time>2026-04-05T07:57:52.664Z</time></trkpt><trkpt lat="39.809455" lon="-0.243665"><ele>119.66666666666666</ele><time>2026-04-05T07:57:53.665Z</time></trkpt><trkpt lat="39.8093867" lon="-0.243595"><ele>119.33333333333333</ele><time>2026-04-05T07:57:54.664Z</time></trkpt><trkpt lat="39.80932" lon="-0.24352"><ele>119.0</ele><time>2026-04-05T07:57:55.664Z</time></trkpt><trkpt lat="39.8092517" lon="-0.243435"><ele>118.6</ele><time>2026-04-05T07:57:56.665Z</time></trkpt><trkpt lat="39.8091967" lon="-0.2433467"><ele>118.2</ele><time>2026-04-05T07:57:57.665Z</time></trkpt><trkpt lat="39.8091367" lon="-0.24326"><ele>117.79999999999998</ele><time>2026-04-05T07:57:58.665Z</time></trkpt><trkpt lat="39.8090783" lon="-0.2431717"><ele>117.39999999999999</ele><time>2026-04-05T07:57:59.665Z</time></trkpt><trkpt lat="39.8090167" lon="-0.243085"><ele>117.0</ele><time>2026-04-05T07:58:00.664Z</time></trkpt><trkpt lat="39.8089517" lon="-0.2429983"><ele>116.66666666666667</ele><time>2026-04-05T07:58:01.664Z</time></trkpt><trkpt lat="39.8088883" lon="-0.24291"><ele>116.33333333333334</ele><time>2026-04-05T07:58:02.664Z</time></trkpt><trkpt lat="39.808825" lon="-0.242825"><ele>116.0</ele><time>2026-04-05T07:58:03.664Z</time></trkpt><trkpt lat="39.8087667" lon="-0.2427433"><ele>115.66666666666667</ele><time>2026-04-05T07:58:04.664Z</time></trkpt><trkpt lat="39.80871" lon="-0.2426583"><ele>115.33333333333334</ele><time>2026-04-05T07:58:05.664Z</time></trkpt><trkpt lat="39.80865" lon="-0.242575"><ele>115.0</ele><time>2026-04-05T07:58:06.664Z</time></trkpt><trkpt lat="39.808595" lon="-0.242495"><ele>115.00000000000001</ele><time>2026-04-05T07:58:07.664Z</time></trkpt><trkpt lat="39.8085367" lon="-0.2424133"><ele>115.0</ele><time>2026-04-05T07:58:08.665Z</time></trkpt><trkpt lat="39.8084817" lon="-0.24233"><ele>115.0</ele><time>2026-04-05T07:58:09.664Z</time></trkpt><trkpt lat="39.8084333" lon="-0.2422467"><ele>115.0</ele><time>2026-04-05T07:58:10.664Z</time></trkpt><trkpt lat="39.8083833" lon="-0.242165"><ele>115.00000000000001</ele><time>2026-04-05T07:58:11.664Z</time></trkpt><trkpt lat="39.8083317" lon="-0.2420817"><ele>115.0</ele><time>2026-04-05T07:58:12.664Z</time></trkpt><trkpt lat="39.808275" lon="-0.2419967"><ele>114.16666666666667</ele><time>2026-04-05T07:58:13.664Z</time></trkpt><trkpt lat="39.8082183" lon="-0.24191"><ele>113.33333333333334</ele><time>2026-04-05T07:58:14.665Z</time></trkpt><trkpt lat="39.8081633" lon="-0.2418283"><ele>112.5</ele><time>2026-04-05T07:58:15.665Z</time></trkpt><trkpt lat="39.808115" lon="-0.2417433"><ele>111.66666666666666</ele><time>2026-04-05T07:58:16.664Z</time></trkpt><trkpt lat="39.8080633" lon="-0.241655"><ele>110.83333333333333</ele><time>2026-04-05T07:58:17.664Z</time></trkpt><trkpt lat="39.80801" lon="-0.2415717"><ele>110.0</ele><time>2026-04-05T07:58:18.664Z</time></trkpt><trkpt lat="39.8079533" lon="-0.2414933"><ele>109.66666666666666</ele><time>2026-04-05T07:58:19.664Z</time></trkpt><trkpt lat="39.8078933" lon="-0.2414283"><ele>109.33333333333333</ele><time>2026-04-05T07:58:20.664Z</time></trkpt><trkpt lat="39.80783" lon="-0.2413617"><ele>109.0</ele><time>2026-04-05T07:58:21.665Z</time></trkpt><trkpt lat="39.8077667" lon="-0.2412933"><ele>108.66666666666666</ele><time>2026-04-05T07:58:22.664Z</time></trkpt><trkpt lat="39.80771" lon="-0.2412183"><ele>108.33333333333333</ele><time>2026-04-05T07:58:23.665Z</time></trkpt><trkpt lat="39.807655" lon="-0.24114"><ele>108.0</ele><time>2026-04-05T07:58:24.664Z</time></trkpt><trkpt lat="39.8076" lon="-0.2410617"><ele>107.83333333333333</ele><time>2026-04-05T07:58:25.664Z</time></trkpt><trkpt lat="39.80755" lon="-0.2409767"><ele>107.66666666666666</ele><time>2026-04-05T07:58:26.664Z</time></trkpt><trkpt lat="39.8075033" lon="-0.2408817"><ele>107.5</ele><time>2026-04-05T07:58:27.664Z</time></trkpt><trkpt lat="39.807465" lon="-0.2407867"><ele>107.33333333333333</ele><time>2026-04-05T07:58:28.665Z</time></trkpt><trkpt lat="39.80743" lon="-0.2406883"><ele>107.16666666666666</ele><time>2026-04-05T07:58:29.664Z</time></trkpt><trkpt lat="39.807385" lon="-0.2405867"><ele>107.0</ele><time>2026-04-05T07:58:30.664Z</time></trkpt><trkpt lat="39.8073333" lon="-0.2404933"><ele>106.16666666666666</ele><time>2026-04-05T07:58:31.664Z</time></trkpt><trkpt lat="39.8072967" lon="-0.240405"><ele>105.33333333333333</ele><time>2026-04-05T07:58:32.664Z</time></trkpt><trkpt lat="39.80726" lon="-0.2403083"><ele>104.5</ele><time>2026-04-05T07:58:33.664Z</time></trkpt><trkpt lat="39.8072167" lon="-0.2402117"><ele>103.66666666666666</ele><time>2026-04-05T07:58:34.665Z</time></trkpt><trkpt lat="39.8071733" lon="-0.2401167"><ele>102.83333333333333</ele><time>2026-04-05T07:58:35.664Z</time></trkpt><trkpt lat="39.8071283" lon="-0.24002"><ele>102.0</ele><time>2026-04-05T07:58:36.664Z</time></trkpt><trkpt lat="39.8070767" lon="-0.239925"><ele>102.0</ele><time>2026-04-05T07:58:37.664Z</time></trkpt><trkpt lat="39.8070283" lon="-0.2398283"><ele>102.0</ele><time>2026-04-05T07:58:38.664Z</time></trkpt><trkpt lat="39.806975" lon="-0.239735"><ele>102.0</ele><time>2026-04-05T07:58:39.664Z</time></trkpt><trkpt lat="39.8069217" lon="-0.2396417"><ele>102.0</ele><time>2026-04-05T07:58:40.664Z</time></trkpt><trkpt lat="39.8068667" lon="-0.2395483"><ele>102.0</ele><time>2026-04-05T07:58:41.664Z</time></trkpt><trkpt lat="39.8068133" lon="-0.23946"><ele>102.0</ele><time>2026-04-05T07:58:42.664Z</time></trkpt><trkpt lat="39.8067617" lon="-0.2393667"><ele>101.6</ele><time>2026-04-05T07:58:43.664Z</time></trkpt><trkpt lat="39.806705" lon="-0.239275"><ele>101.19999999999999</ele><time>2026-04-05T07:58:44.664Z</time></trkpt><trkpt lat="39.8066433" lon="-0.23919"><ele>100.8</ele><time>2026-04-05T07:58:45.664Z</time></trkpt><trkpt lat="39.80657" lon="-0.2391117"><ele>100.4</ele><time>2026-04-05T07:58:46.665Z</time></trkpt><trkpt lat="39.8064983" lon="-0.2390433"><ele>100.0</ele><time>2026-04-05T07:58:47.664Z</time></trkpt><trkpt lat="39.8064167" lon="-0.2389883"><ele>100.33333333333334</ele><time>2026-04-05T07:58:48.664Z</time></trkpt><trkpt lat="39.8063317" lon="-0.2389383"><ele>100.66666666666667</ele><time>2026-04-05T07:58:49.664Z</time></trkpt><trkpt lat="39.8062483" lon="-0.2388917"><ele>101.0</ele><time>2026-04-05T07:58:50.664Z</time></trkpt><trkpt lat="39.8061717" lon="-0.2388433"><ele>101.33333333333334</ele><time>2026-04-05T07:58:51.665Z</time></trkpt><trkpt lat="39.8060967" lon="-0.2387967"><ele>101.66666666666667</ele><time>2026-04-05T07:58:52.664Z</time></trkpt><trkpt lat="39.8060267" lon="-0.238745"><ele>102.0</ele><time>2026-04-05T07:58:53.664Z</time></trkpt><trkpt lat="39.8059583" lon="-0.2386867"><ele>100.83333333333333</ele><time>2026-04-05T07:58:54.664Z</time></trkpt><trkpt lat="39.8058917" lon="-0.2386267"><ele>99.66666666666667</ele><time>2026-04-05T07:58:55.665Z</time></trkpt><trkpt lat="39.8058317" lon="-0.238565"><ele>98.5</ele><time>2026-04-05T07:58:56.664Z</time></trkpt><trkpt lat="39.80577" lon="-0.23851"><ele>97.33333333333334</ele><time>2026-04-05T07:58:57.664Z</time></trkpt><trkpt lat="39.80571" lon="-0.2384433"><ele>96.16666666666667</ele><time>2026-04-05T07:58:58.665Z</time></trkpt><trkpt lat="39.805655" lon="-0.2383767"><ele>95.0</ele><time>2026-04-05T07:58:59.664Z</time></trkpt><trkpt lat="39.8056067" lon="-0.2383067"><ele>95.0</ele><time>2026-04-05T07:59:00.664Z</time></trkpt><trkpt lat="39.80556" lon="-0.2382267"><ele>95.0</ele><time>2026-04-05T07:59:01.665Z</time></trkpt><trkpt lat="39.8055133" lon="-0.2381417"><ele>95.0</ele><time>2026-04-05T07:59:02.665Z</time></trkpt><trkpt lat="39.80547" lon="-0.2380633"><ele>95.0</ele><time>2026-04-05T07:59:03.664Z</time></trkpt><trkpt lat="39.80542" lon="-0.23798"><ele>95.0</ele><time>2026-04-05T07:59:04.664Z</time></trkpt><trkpt lat="39.8053717" lon="-0.2379017"><ele>95.0</ele><time>2026-04-05T07:59:05.665Z</time></trkpt><trkpt lat="39.805325" lon="-0.2378217"><ele>94.8</ele><time>2026-04-05T07:59:06.664Z</time></trkpt><trkpt lat="39.805285" lon="-0.2377483"><ele>94.6</ele><time>2026-04-05T07:59:07.664Z</time></trkpt><trkpt lat="39.8052283" lon="-0.2376283"><ele>94.4</ele><time>2026-04-05T07:59:09.664Z</time></trkpt><trkpt lat="39.8051133" lon="-0.237575"><ele>94.2</ele><time>2026-04-05T07:59:26.664Z</time></trkpt><trkpt lat="39.805035" lon="-0.2375983"><ele>94.0</ele><time>2026-04-05T07:59:28.665Z</time></trkpt><trkpt lat="39.8049517" lon="-0.23767"><ele>93.4</ele><time>2026-04-05T07:59:30.664Z</time></trkpt><trkpt lat="39.804865" lon="-0.2377483"><ele>92.80000000000001</ele><time>2026-04-05T07:59:32.665Z</time></trkpt><trkpt lat="39.804775" lon="-0.237835"><ele>92.19999999999999</ele><time>2026-04-05T07:59:34.664Z</time></trkpt><trkpt lat="39.8046817" lon="-0.2379217"><ele>91.6</ele><time>2026-04-05T07:59:36.664Z</time></trkpt><trkpt lat="39.8045883" lon="-0.2380117"><ele>91.0</ele><time>2026-04-05T07:59:38.664Z</time></trkpt><trkpt lat="39.804505" lon="-0.2380983"><ele>91.0</ele><time>2026-04-05T07:59:40.664Z</time></trkpt><trkpt lat="39.8044117" lon="-0.2381717"><ele>91.0</ele><time>2026-04-05T07:59:42.664Z</time></trkpt><trkpt lat="39.80432" lon="-0.2382433"><ele>91.0</ele><time>2026-04-05T07:59:44.664Z</time></trkpt><trkpt lat="39.8042283" lon="-0.238325"><ele>91.0</ele><time>2026-04-05T07:59:46.664Z</time></trkpt><trkpt lat="39.8041417" lon="-0.2384017"><ele>91.0</ele><time>2026-04-05T07:59:48.664Z</time></trkpt><trkpt lat="39.80405" lon="-0.23849"><ele>91.0</ele><time>2026-04-05T07:59:50.665Z</time></trkpt><trkpt lat="39.80396" lon="-0.2385867"><ele>91.0</ele><time>2026-04-05T07:59:52.664Z</time></trkpt><trkpt lat="39.8038683" lon="-0.238675"><ele>91.0</ele><time>2026-04-05T07:59:54.664Z</time></trkpt><trkpt lat="39.803785" lon="-0.2387583"><ele>91.0</ele><time>2026-04-05T07:59:56.664Z</time></trkpt><trkpt lat="39.8037033" lon="-0.2388383"><ele>91.0</ele><time>2026-04-05T07:59:58.664Z</time></trkpt><trkpt lat="39.8036233" lon="-0.2389233"><ele>91.6</ele><time>2026-04-05T08:00:00.664Z</time></trkpt><trkpt lat="39.8035417" lon="-0.23901"><ele>92.19999999999999</ele><time>2026-04-05T08:00:02.664Z</time></trkpt><trkpt lat="39.80346" lon="-0.239095"><ele>92.80000000000001</ele><time>2026-04-05T08:00:04.664Z</time></trkpt><trkpt lat="39.8033833" lon="-0.2391783"><ele>93.4</ele><time>2026-04-05T08:00:06.664Z</time></trkpt><trkpt lat="39.80331" lon="-0.2392733"><ele>94.0</ele><time>2026-04-05T08:00:08.664Z</time></trkpt><trkpt lat="39.8032367" lon="-0.2393717"><ele>94.0</ele><time>2026-04-05T08:00:10.665Z</time></trkpt><trkpt lat="39.803165" lon="-0.239475"><ele>94.0</ele><time>2026-04-05T08:00:12.665Z</time></trkpt><trkpt lat="39.8030917" lon="-0.2395617"><ele>94.0</ele><time>2026-04-05T08:00:14.664Z</time></trkpt><trkpt lat="39.8030133" lon="-0.23965"><ele>94.0</ele><time>2026-04-05T08:00:16.664Z</time></trkpt><trkpt lat="39.802945" lon="-0.2397367"><ele>94.0</ele><time>2026-04-05T08:00:18.665Z</time></trkpt><trkpt lat="39.8028717" lon="-0.2398117"><ele>94.2</ele><time>2026-04-05T08:00:20.664Z</time></trkpt><trkpt lat="39.8028067" lon="-0.2399083"><ele>94.4</ele><time>2026-04-05T08:00:22.665Z</time></trkpt><trkpt lat="39.80275" lon="-0.24"><ele>94.6</ele><time>2026-04-05T08:00:24.664Z</time></trkpt><trkpt lat="39.8026883" lon="-0.2400883"><ele>94.8</ele><time>2026-04-05T08:00:26.664Z</time></trkpt><trkpt lat="39.80262" lon="-0.2401717"><ele>95.0</ele><time>2026-04-05T08:00:28.664Z</time></trkpt><trkpt lat="39.80255" lon="-0.2402617"><ele>95.2</ele><time>2026-04-05T08:00:30.664Z</time></trkpt><trkpt lat="39.8024717" lon="-0.24035"><ele>95.4</ele><time>2026-04-05T08:00:32.664Z</time></trkpt><trkpt lat="39.8023983" lon="-0.2404567"><ele>95.6</ele><time>2026-04-05T08:00:34.665Z</time></trkpt><trkpt lat="39.80232" lon="-0.24055"><ele>95.8</ele><time>2026-04-05T08:00:36.664Z</time></trkpt><trkpt lat="39.8022483" lon="-0.240645"><ele>96.0</ele><time>2026-04-05T08:00:38.665Z</time></trkpt><trkpt lat="39.8021633" lon="-0.2407283"><ele>96.0</ele><time>2026-04-05T08:00:40.665Z</time></trkpt><trkpt lat="39.8020867" lon="-0.2408217"><ele>96.0</ele><time>2026-04-05T08:00:42.665Z</time></trkpt><trkpt lat="39.80201" lon="-0.2409217"><ele>96.0</ele><time>2026-04-05T08:00:44.664Z</time></trkpt><trkpt lat="39.8019367" lon="-0.2410183"><ele>96.0</ele><time>2026-04-05T08:00:46.664Z</time></trkpt><trkpt lat="39.8018583" lon="-0.24111"><ele>96.0</ele><time>2026-04-05T08:00:48.664Z</time></trkpt><trkpt lat="39.8017883" lon="-0.2411967"><ele>96.19999999999999</ele><time>2026-04-05T08:00:50.664Z</time></trkpt><trkpt lat="39.8017117" lon="-0.2412883"><ele>96.39999999999999</ele><time>2026-04-05T08:00:52.664Z</time></trkpt><trkpt lat="39.8016317" lon="-0.241385"><ele>96.6</ele><time>2026-04-05T08:00:54.664Z</time></trkpt><trkpt lat="39.8015583" lon="-0.2414717"><ele>96.8</ele><time>2026-04-05T08:00:56.664Z</time></trkpt><trkpt lat="39.801485" lon="-0.24156"><ele>97.0</ele><time>2026-04-05T08:00:58.664Z</time></trkpt><trkpt lat="39.8014133" lon="-0.2416533"><ele>97.19999999999999</ele><time>2026-04-05T08:01:00.665Z</time></trkpt><trkpt lat="39.8013383" lon="-0.2417517"><ele>97.4</ele><time>2026-04-05T08:01:02.664Z</time></trkpt><trkpt lat="39.8012667" lon="-0.2418433"><ele>97.6</ele><time>2026-04-05T08:01:04.665Z</time></trkpt><trkpt lat="39.801195" lon="-0.2419467"><ele>97.80000000000001</ele><time>2026-04-05T08:01:06.664Z</time></trkpt><trkpt lat="39.8011183" lon="-0.2420433"><ele>98.0</ele><time>2026-04-05T08:01:08.665Z</time></trkpt><trkpt lat="39.8010433" lon="-0.2421383"><ele>98.2</ele><time>2026-04-05T08:01:10.664Z</time></trkpt><trkpt lat="39.8009733" lon="-0.242235"><ele>98.4</ele><time>2026-04-05T08:01:12.665Z</time></trkpt><trkpt lat="39.8008983" lon="-0.24233"><ele>98.60000000000001</ele><time>2026-04-05T08:01:14.665Z</time></trkpt><trkpt lat="39.8008217" lon="-0.2424183"><ele>98.80000000000001</ele><time>2026-04-05T08:01:16.665Z</time></trkpt><trkpt lat="39.8007483" lon="-0.242505"><ele>99.0</ele><time>2026-04-05T08:01:18.665Z</time></trkpt><trkpt lat="39.8006733" lon="-0.2425867"><ele>99.4</ele><time>2026-04-05T08:01:20.664Z</time></trkpt><trkpt lat="39.800595" lon="-0.242675"><ele>99.80000000000001</ele><time>2026-04-05T08:01:22.664Z</time></trkpt><trkpt lat="39.8005183" lon="-0.2427683"><ele>100.19999999999999</ele><time>2026-04-05T08:01:24.664Z</time></trkpt><trkpt lat="39.8004417" lon="-0.24286"><ele>100.6</ele><time>2026-04-05T08:01:26.664Z</time></trkpt><trkpt lat="39.8003633" lon="-0.2429583"><ele>101.0</ele><time>2026-04-05T08:01:28.664Z</time></trkpt><trkpt lat="39.800285" lon="-0.24306"><ele>101.19999999999999</ele><time>2026-04-05T08:01:30.664Z</time></trkpt><trkpt lat="39.80021" lon="-0.2431533"><ele>101.39999999999999</ele><time>2026-04-05T08:01:32.664Z</time></trkpt><trkpt lat="39.8001333" lon="-0.243245"><ele>101.6</ele><time>2026-04-05T08:01:34.664Z</time></trkpt><trkpt lat="39.80005" lon="-0.2433317"><ele>101.8</ele><time>2026-04-05T08:01:36.664Z</time></trkpt><trkpt lat="39.7999717" lon="-0.24343"><ele>102.0</ele><time>2026-04-05T08:01:38.664Z</time></trkpt><trkpt lat="39.7998883" lon="-0.243515"><ele>102.19999999999999</ele><time>2026-04-05T08:01:40.665Z</time></trkpt><trkpt lat="39.7998067" lon="-0.2436033"><ele>102.4</ele><time>2026-04-05T08:01:42.664Z</time></trkpt><trkpt lat="39.79973" lon="-0.2436933"><ele>102.6</ele><time>2026-04-05T08:01:44.664Z</time></trkpt><trkpt lat="39.7996517" lon="-0.2437883"><ele>102.80000000000001</ele><time>2026-04-05T08:01:46.664Z</time></trkpt><trkpt lat="39.7995733" lon="-0.24388"><ele>103.0</ele><time>2026-04-05T08:01:48.664Z</time></trkpt><trkpt lat="39.7994917" lon="-0.2439667"><ele>103.4</ele><time>2026-04-05T08:01:50.664Z</time></trkpt><trkpt lat="39.799415" lon="-0.244055"><ele>103.80000000000001</ele><time>2026-04-05T08:01:52.664Z</time></trkpt><trkpt lat="39.7993367" lon="-0.2441333"><ele>104.2</ele><time>2026-04-05T08:01:54.665Z</time></trkpt><trkpt lat="39.79926" lon="-0.2442167"><ele>104.6</ele><time>2026-04-05T08:01:56.664Z</time></trkpt><trkpt lat="39.7991833" lon="-0.2443067"><ele>105.0</ele><time>2026-04-05T08:01:58.665Z</time></trkpt><trkpt lat="39.79911" lon="-0.2444"><ele>105.2</ele><time>2026-04-05T08:02:00.665Z</time></trkpt><trkpt lat="39.7990333" lon="-0.24449"><ele>105.4</ele><time>2026-04-05T08:02:02.664Z</time></trkpt><trkpt lat="39.7989517" lon="-0.2445683"><ele>105.6</ele><time>2026-04-05T08:02:04.664Z</time></trkpt><trkpt lat="39.7988783" lon="-0.2446583"><ele>105.8</ele><time>2026-04-05T08:02:06.665Z</time></trkpt><trkpt lat="39.7988" lon="-0.2447383"><ele>106.0</ele><time>2026-04-05T08:02:08.665Z</time></trkpt><trkpt lat="39.7987217" lon="-0.2448217"><ele>106.19999999999999</ele><time>2026-04-05T08:02:10.664Z</time></trkpt><trkpt lat="39.798645" lon="-0.2449117"><ele>106.39999999999999</ele><time>2026-04-05T08:02:12.664Z</time></trkpt><trkpt lat="39.798565" lon="-0.244995"><ele>106.6</ele><time>2026-04-05T08:02:14.665Z</time></trkpt><trkpt lat="39.79849" lon="-0.245075"><ele>106.8</ele><time>2026-04-05T08:02:16.665Z</time></trkpt><trkpt lat="39.7984083" lon="-0.2451533"><ele>107.0</ele><time>2026-04-05T08:02:18.664Z</time></trkpt><trkpt lat="39.7983233" lon="-0.2452433"><ele>107.0</ele><time>2026-04-05T08:02:20.664Z</time></trkpt><trkpt lat="39.79824" lon="-0.2453417"><ele>107.0</ele><time>2026-04-05T08:02:22.664Z</time></trkpt><trkpt lat="39.7981533" lon="-0.2454383"><ele>107.0</ele><time>2026-04-05T08:02:24.664Z</time></trkpt><trkpt lat="39.7980717" lon="-0.24554"><ele>107.0</ele><time>2026-04-05T08:02:26.664Z</time></trkpt><trkpt lat="39.7979833" lon="-0.245635"><ele>107.6</ele><time>2026-04-05T08:02:28.664Z</time></trkpt><trkpt lat="39.797895" lon="-0.2457217"><ele>108.19999999999999</ele><time>2026-04-05T08:02:30.664Z</time></trkpt><trkpt lat="39.7978117" lon="-0.2458117"><ele>108.8</ele><time>2026-04-05T08:02:32.664Z</time></trkpt><trkpt lat="39.7977333" lon="-0.2459067"><ele>109.4</ele><time>2026-04-05T08:02:34.664Z</time></trkpt><trkpt lat="39.7976517" lon="-0.24599"><ele>110.0</ele><time>2026-04-05T08:02:36.665Z</time></trkpt><trkpt lat="39.7975683" lon="-0.2460917"><ele>110.0</ele><time>2026-04-05T08:02:38.664Z</time></trkpt><trkpt lat="39.7974867" lon="-0.2461967"><ele>110.0</ele><time>2026-04-05T08:02:40.665Z</time></trkpt><trkpt lat="39.7973967" lon="-0.2462883"><ele>110.0</ele><time>2026-04-05T08:02:42.664Z</time></trkpt><trkpt lat="39.7973067" lon="-0.24638"><ele>110.0</ele><time>2026-04-05T08:02:44.664Z</time></trkpt><trkpt lat="39.79722" lon="-0.2464767"><ele>110.0</ele><time>2026-04-05T08:02:46.664Z</time></trkpt><trkpt lat="39.7971367" lon="-0.2465733"><ele>110.0</ele><time>2026-04-05T08:02:48.664Z</time></trkpt><trkpt lat="39.79706" lon="-0.24666"><ele>110.0</ele><time>2026-04-05T08:02:50.664Z</time></trkpt><trkpt lat="39.7969883" lon="-0.2467533"><ele>110.0</ele><time>2026-04-05T08:02:52.665Z</time></trkpt><trkpt lat="39.7969167" lon="-0.2468467"><ele>110.0</ele><time>2026-04-05T08:02:54.665Z</time></trkpt><trkpt lat="39.79684" lon="-0.2469517"><ele>109.8</ele><time>2026-04-05T08:02:56.664Z</time></trkpt><trkpt lat="39.796765" lon="-0.24704"><ele>109.6</ele><time>2026-04-05T08:02:58.664Z</time></trkpt><trkpt lat="39.796685" lon="-0.2471383"><ele>109.4</ele><time>2026-04-05T08:03:00.664Z</time></trkpt><trkpt lat="39.7966233" lon="-0.247225"><ele>109.2</ele><time>2026-04-05T08:03:02.665Z</time></trkpt><trkpt lat="39.79656" lon="-0.2473233"><ele>109.0</ele><time>2026-04-05T08:03:04.665Z</time></trkpt><trkpt lat="39.7964983" lon="-0.2474233"><ele>109.0</ele><time>2026-04-05T08:03:06.664Z</time></trkpt><trkpt lat="39.796435" lon="-0.2475317"><ele>109.0</ele><time>2026-04-05T08:03:08.664Z</time></trkpt><trkpt lat="39.79637" lon="-0.247635"><ele>109.0</ele><time>2026-04-05T08:03:10.664Z</time></trkpt><trkpt lat="39.7963083" lon="-0.24773"><ele>109.0</ele><time>2026-04-05T08:03:12.665Z</time></trkpt><trkpt lat="39.7962483" lon="-0.24784"><ele>109.0</ele><time>2026-04-05T08:03:14.665Z</time></trkpt><trkpt lat="39.79619" lon="-0.2479467"><ele>109.0</ele><time>2026-04-05T08:03:16.664Z</time></trkpt><trkpt lat="39.7961283" lon="-0.2480617"><ele>109.0</ele><time>2026-04-05T08:03:18.664Z</time></trkpt><trkpt lat="39.7960717" lon="-0.2481717"><ele>109.0</ele><time>2026-04-05T08:03:20.665Z</time></trkpt><trkpt lat="39.7960117" lon="-0.2482767"><ele>109.0</ele><time>2026-04-05T08:03:22.664Z</time></trkpt><trkpt lat="39.7959433" lon="-0.248375"><ele>109.0</ele><time>2026-04-05T08:03:24.664Z</time></trkpt><trkpt lat="39.7958633" lon="-0.2484767"><ele>109.2</ele><time>2026-04-05T08:03:26.664Z</time></trkpt><trkpt lat="39.79577" lon="-0.2485467"><ele>109.4</ele><time>2026-04-05T08:03:28.664Z</time></trkpt><trkpt lat="39.7956767" lon="-0.2486083"><ele>109.6</ele><time>2026-04-05T08:03:30.664Z</time></trkpt><trkpt lat="39.7955817" lon="-0.2486533"><ele>109.8</ele><time>2026-04-05T08:03:32.664Z</time></trkpt><trkpt lat="39.795485" lon="-0.2486933"><ele>110.0</ele><time>2026-04-05T08:03:34.665Z</time></trkpt><trkpt lat="39.79538" lon="-0.24872"><ele>110.0</ele><time>2026-04-05T08:03:36.665Z</time></trkpt><trkpt lat="39.795275" lon="-0.2487367"><ele>110.0</ele><time>2026-04-05T08:03:38.664Z</time></trkpt><trkpt lat="39.79517" lon="-0.2487517"><ele>110.0</ele><time>2026-04-05T08:03:40.664Z</time></trkpt><trkpt lat="39.7950667" lon="-0.248765"><ele>110.0</ele><time>2026-04-05T08:03:42.664Z</time></trkpt><trkpt lat="39.79497" lon="-0.2487867"><ele>110.0</ele><time>2026-04-05T08:03:44.664Z</time></trkpt><trkpt lat="39.79488" lon="-0.2488167"><ele>109.8</ele><time>2026-04-05T08:03:46.664Z</time></trkpt><trkpt lat="39.7947967" lon="-0.2488533"><ele>109.6</ele><time>2026-04-05T08:03:48.664Z</time></trkpt><trkpt lat="39.794715" lon="-0.2489083"><ele>109.4</ele><time>2026-04-05T08:03:50.664Z</time></trkpt><trkpt lat="39.794625" lon="-0.2489667"><ele>109.2</ele><time>2026-04-05T08:03:52.664Z</time></trkpt><trkpt lat="39.7945283" lon="-0.2489967"><ele>109.0</ele><time>2026-04-05T08:03:54.665Z</time></trkpt><trkpt lat="39.7944283" lon="-0.2490133"><ele>109.4</ele><time>2026-04-05T08:03:56.665Z</time></trkpt><trkpt lat="39.7943283" lon="-0.24906"><ele>109.80000000000001</ele><time>2026-04-05T08:03:58.664Z</time></trkpt><trkpt lat="39.79423" lon="-0.249115"><ele>110.19999999999999</ele><time>2026-04-05T08:04:00.664Z</time></trkpt><trkpt lat="39.79414" lon="-0.2491817"><ele>110.6</ele><time>2026-04-05T08:04:02.664Z</time></trkpt><trkpt lat="39.7940483" lon="-0.2492567"><ele>111.0</ele><time>2026-04-05T08:04:04.664Z</time></trkpt><trkpt lat="39.7939617" lon="-0.2493317"><ele>111.0</ele><time>2026-04-05T08:04:06.664Z</time></trkpt><trkpt lat="39.7938767" lon="-0.2494083"><ele>111.0</ele><time>2026-04-05T08:04:08.665Z</time></trkpt><trkpt lat="39.7937983" lon="-0.2494917"><ele>111.0</ele><time>2026-04-05T08:04:10.664Z</time></trkpt><trkpt lat="39.7937283" lon="-0.2495833"><ele>111.0</ele><time>2026-04-05T08:04:12.664Z</time></trkpt><trkpt lat="39.7936567" lon="-0.24968"><ele>111.0</ele><time>2026-04-05T08:04:14.664Z</time></trkpt><trkpt lat="39.7935883" lon="-0.2497783"><ele>111.19999999999999</ele><time>2026-04-05T08:04:16.664Z</time></trkpt><trkpt lat="39.7935167" lon="-0.2498767"><ele>111.39999999999999</ele><time>2026-04-05T08:04:18.664Z</time></trkpt><trkpt lat="39.7934617" lon="-0.2499933"><ele>111.6</ele><time>2026-04-05T08:04:20.664Z</time></trkpt><trkpt lat="39.7934" lon="-0.2501083"><ele>111.8</ele><time>2026-04-05T08:04:22.664Z</time></trkpt><trkpt lat="39.7933517" lon="-0.2502183"><ele>112.0</ele><time>2026-04-05T08:04:24.664Z</time></trkpt><trkpt lat="39.7933" lon="-0.250325"><ele>112.39999999999999</ele><time>2026-04-05T08:04:26.664Z</time></trkpt><trkpt lat="39.793245" lon="-0.25044"><ele>112.79999999999998</ele><time>2026-04-05T08:04:28.664Z</time></trkpt><trkpt lat="39.7931833" lon="-0.25054"><ele>113.2</ele><time>2026-04-05T08:04:30.664Z</time></trkpt><trkpt lat="39.7931267" lon="-0.2506517"><ele>113.6</ele><time>2026-04-05T08:04:32.664Z</time></trkpt><trkpt lat="39.793075" lon="-0.2507617"><ele>114.0</ele><time>2026-04-05T08:04:34.664Z</time></trkpt><trkpt lat="39.793025" lon="-0.2508717"><ele>114.0</ele><time>2026-04-05T08:04:36.665Z</time></trkpt><trkpt lat="39.79297" lon="-0.2509767"><ele>114.0</ele><time>2026-04-05T08:04:38.664Z</time></trkpt><trkpt lat="39.7929083" lon="-0.251075"><ele>114.0</ele><time>2026-04-05T08:04:40.665Z</time></trkpt><trkpt lat="39.7928433" lon="-0.2511767"><ele>114.0</ele><time>2026-04-05T08:04:42.664Z</time></trkpt><trkpt lat="39.79278" lon="-0.2512767"><ele>114.0</ele><time>2026-04-05T08:04:44.664Z</time></trkpt><trkpt lat="39.7927183" lon="-0.2513833"><ele>114.2</ele><time>2026-04-05T08:04:46.664Z</time></trkpt><trkpt lat="39.7926633" lon="-0.2514867"><ele>114.4</ele><time>2026-04-05T08:04:48.664Z</time></trkpt><trkpt lat="39.792605" lon="-0.2516017"><ele>114.6</ele><time>2026-04-05T08:04:50.665Z</time></trkpt><trkpt lat="39.7925433" lon="-0.2517067"><ele>114.8</ele><time>2026-04-05T08:04:52.664Z</time></trkpt><trkpt lat="39.7924833" lon="-0.2518083"><ele>115.0</ele><time>2026-04-05T08:04:54.664Z</time></trkpt><trkpt lat="39.792425" lon="-0.2519133"><ele>115.0</ele><time>2026-04-05T08:04:56.664Z</time></trkpt><trkpt lat="39.7923617" lon="-0.2520183"><ele>115.0</ele><time>2026-04-05T08:04:58.664Z</time></trkpt><trkpt lat="39.7923017" lon="-0.25212"><ele>115.0</ele><time>2026-04-05T08:05:00.664Z</time></trkpt><trkpt lat="39.7922383" lon="-0.25222"><ele>115.0</ele><time>2026-04-05T08:05:02.665Z</time></trkpt><trkpt lat="39.79218" lon="-0.2523233"><ele>115.0</ele><time>2026-04-05T08:05:04.664Z</time></trkpt><trkpt lat="39.7921217" lon="-0.252425"><ele>115.4</ele><time>2026-04-05T08:05:06.664Z</time></trkpt><trkpt lat="39.792065" lon="-0.2525217"><ele>115.8</ele><time>2026-04-05T08:05:08.664Z</time></trkpt><trkpt lat="39.7919967" lon="-0.2526167"><ele>116.19999999999999</ele><time>2026-04-05T08:05:10.664Z</time></trkpt><trkpt lat="39.791935" lon="-0.25271"><ele>116.6</ele><time>2026-04-05T08:05:12.664Z</time></trkpt><trkpt lat="39.7918783" lon="-0.2528017"><ele>117.0</ele><time>2026-04-05T08:05:14.664Z</time></trkpt><trkpt lat="39.79182" lon="-0.2529033"><ele>117.19999999999999</ele><time>2026-04-05T08:05:16.665Z</time></trkpt><trkpt lat="39.791765" lon="-0.2529967"><ele>117.39999999999999</ele><time>2026-04-05T08:05:18.665Z</time></trkpt><trkpt lat="39.7917" lon="-0.2530967"><ele>117.60000000000001</ele><time>2026-04-05T08:05:20.664Z</time></trkpt><trkpt lat="39.7916367" lon="-0.2531983"><ele>117.80000000000001</ele><time>2026-04-05T08:05:22.664Z</time></trkpt><trkpt lat="39.7915717" lon="-0.2533033"><ele>118.0</ele><time>2026-04-05T08:05:24.664Z</time></trkpt><trkpt lat="39.79151" lon="-0.25341"><ele>119.0</ele><time>2026-04-05T08:05:26.664Z</time></trkpt><trkpt lat="39.7914517" lon="-0.253515"><ele>120.00000000000001</ele><time>2026-04-05T08:05:28.664Z</time></trkpt><trkpt lat="39.7913883" lon="-0.2536183"><ele>121.00000000000001</ele><time>2026-04-05T08:05:30.664Z</time></trkpt><trkpt lat="39.7913283" lon="-0.2537183"><ele>122.0</ele><time>2026-04-05T08:05:32.664Z</time></trkpt><trkpt lat="39.7912567" lon="-0.253825"><ele>123.0</ele><time>2026-04-05T08:05:34.665Z</time></trkpt><trkpt lat="39.7911967" lon="-0.2539367"><ele>122.80000000000001</ele><time>2026-04-05T08:05:36.664Z</time></trkpt><trkpt lat="39.7911333" lon="-0.2540533"><ele>122.60000000000001</ele><time>2026-04-05T08:05:38.664Z</time></trkpt><trkpt lat="39.7910733" lon="-0.2541683"><ele>122.39999999999999</ele><time>2026-04-05T08:05:40.665Z</time></trkpt><trkpt lat="39.79101" lon="-0.2542833"><ele>122.19999999999999</ele><time>2026-04-05T08:05:42.664Z</time></trkpt><trkpt lat="39.790955" lon="-0.2544033"><ele>122.0</ele><time>2026-04-05T08:05:44.664Z</time></trkpt><trkpt lat="39.7908917" lon="-0.2545233"><ele>122.0</ele><time>2026-04-05T08:05:46.664Z</time></trkpt><trkpt lat="39.7908317" lon="-0.2546383"><ele>121.99999999999999</ele><time>2026-04-05T08:05:48.664Z</time></trkpt><trkpt lat="39.7907733" lon="-0.2547567"><ele>121.99999999999999</ele><time>2026-04-05T08:05:50.664Z</time></trkpt><trkpt lat="39.7907133" lon="-0.2548717"><ele>122.0</ele><time>2026-04-05T08:05:52.664Z</time></trkpt><trkpt lat="39.79065" lon="-0.25498"><ele>122.0</ele><time>2026-04-05T08:05:54.664Z</time></trkpt><trkpt lat="39.790585" lon="-0.2550917"><ele>122.39999999999999</ele><time>2026-04-05T08:05:56.665Z</time></trkpt><trkpt lat="39.7905217" lon="-0.255205"><ele>122.79999999999998</ele><time>2026-04-05T08:05:58.665Z</time></trkpt><trkpt lat="39.7904567" lon="-0.255315"><ele>123.2</ele><time>2026-04-05T08:06:00.664Z</time></trkpt><trkpt lat="39.7903883" lon="-0.2554333"><ele>123.6</ele><time>2026-04-05T08:06:02.664Z</time></trkpt><trkpt lat="39.790335" lon="-0.2555467"><ele>124.0</ele><time>2026-04-05T08:06:04.664Z</time></trkpt><trkpt lat="39.7902817" lon="-0.255665"><ele>124.2</ele><time>2026-04-05T08:06:06.664Z</time></trkpt><trkpt lat="39.7902217" lon="-0.25577"><ele>124.4</ele><time>2026-04-05T08:06:08.665Z</time></trkpt><trkpt lat="39.790165" lon="-0.2558783"><ele>124.6</ele><time>2026-04-05T08:06:10.664Z</time></trkpt><trkpt lat="39.79011" lon="-0.2559917"><ele>124.8</ele><time>2026-04-05T08:06:12.664Z</time></trkpt><trkpt lat="39.790055" lon="-0.2561133"><ele>125.0</ele><time>2026-04-05T08:06:14.664Z</time></trkpt><trkpt lat="39.7900017" lon="-0.2562217"><ele>125.2</ele><time>2026-04-05T08:06:16.665Z</time></trkpt><trkpt lat="39.7899517" lon="-0.2563317"><ele>125.4</ele><time>2026-04-05T08:06:18.664Z</time></trkpt><trkpt lat="39.789905" lon="-0.2564567"><ele>125.6</ele><time>2026-04-05T08:06:20.664Z</time></trkpt><trkpt lat="39.7898617" lon="-0.2565783"><ele>125.8</ele><time>2026-04-05T08:06:22.664Z</time></trkpt><trkpt lat="39.7898183" lon="-0.256695"><ele>126.0</ele><time>2026-04-05T08:06:24.664Z</time></trkpt><trkpt lat="39.7897717" lon="-0.2568083"><ele>126.0</ele><time>2026-04-05T08:06:26.664Z</time></trkpt><trkpt lat="39.7897317" lon="-0.2569183"><ele>126.0</ele><time>2026-04-05T08:06:28.664Z</time></trkpt><trkpt lat="39.78969" lon="-0.25704"><ele>126.0</ele><time>2026-04-05T08:06:30.664Z</time></trkpt><trkpt lat="39.78964" lon="-0.2571433"><ele>126.0</ele><time>2026-04-05T08:06:32.664Z</time></trkpt><trkpt lat="39.789595" lon="-0.2572467"><ele>126.0</ele><time>2026-04-05T08:06:34.665Z</time></trkpt><trkpt lat="39.7895567" lon="-0.2573583"><ele>126.0</ele><time>2026-04-05T08:06:36.664Z</time></trkpt><trkpt lat="39.7895117" lon="-0.25748"><ele>126.0</ele><time>2026-04-05T08:06:38.664Z</time></trkpt><trkpt lat="39.7894617" lon="-0.257605"><ele>126.0</ele><time>2026-04-05T08:06:40.664Z</time></trkpt><trkpt lat="39.7894133" lon="-0.257725"><ele>126.0</ele><time>2026-04-05T08:06:42.664Z</time></trkpt><trkpt lat="39.7893633" lon="-0.2578517"><ele>126.0</ele><time>2026-04-05T08:06:44.664Z</time></trkpt><trkpt lat="39.7893183" lon="-0.2579783"><ele>126.0</ele><time>2026-04-05T08:06:46.664Z</time></trkpt><trkpt lat="39.7892733" lon="-0.2581033"><ele>126.0</ele><time>2026-04-05T08:06:48.664Z</time></trkpt><trkpt lat="39.7892233" lon="-0.2582233"><ele>126.0</ele><time>2026-04-05T08:06:50.665Z</time></trkpt><trkpt lat="39.7891783" lon="-0.2583383"><ele>126.0</ele><time>2026-04-05T08:06:52.664Z</time></trkpt><trkpt lat="39.7891333" lon="-0.2584483"><ele>126.0</ele><time>2026-04-05T08:06:54.664Z</time></trkpt><trkpt lat="39.7890867" lon="-0.258565"><ele>126.8</ele><time>2026-04-05T08:06:56.665Z</time></trkpt><trkpt lat="39.7890467" lon="-0.2586783"><ele>127.6</ele><time>2026-04-05T08:06:58.664Z</time></trkpt><trkpt lat="39.7890033" lon="-0.2588017"><ele>128.4</ele><time>2026-04-05T08:07:00.664Z</time></trkpt><trkpt lat="39.7889667" lon="-0.2589083"><ele>129.2</ele><time>2026-04-05T08:07:02.664Z</time></trkpt><trkpt lat="39.7889317" lon="-0.2590033"><ele>130.0</ele><time>2026-04-05T08:07:04.664Z</time></trkpt><trkpt lat="39.7888967" lon="-0.2590967"><ele>130.6</ele><time>2026-04-05T08:07:06.664Z</time></trkpt><trkpt lat="39.7888583" lon="-0.2592017"><ele>131.2</ele><time>2026-04-05T08:07:08.664Z</time></trkpt><trkpt lat="39.7888167" lon="-0.2593183"><ele>131.8</ele><time>2026-04-05T08:07:10.664Z</time></trkpt><trkpt lat="39.7887683" lon="-0.259445"><ele>132.4</ele><time>2026-04-05T08:07:12.664Z</time></trkpt><trkpt lat="39.7887233" lon="-0.2595733"><ele>133.0</ele><time>2026-04-05T08:07:14.664Z</time></trkpt><trkpt lat="39.7886783" lon="-0.2597133"><ele>133.5</ele><time>2026-04-05T08:07:16.665Z</time></trkpt><trkpt lat="39.7886233" lon="-0.2598483"><ele>134.0</ele><time>2026-04-05T08:07:18.664Z</time></trkpt><trkpt lat="39.7885733" lon="-0.2599817"><ele>134.5</ele><time>2026-04-05T08:07:20.664Z</time></trkpt><trkpt lat="39.7885217" lon="-0.26011"><ele>135.0</ele><time>2026-04-05T08:07:22.664Z</time></trkpt><trkpt lat="39.7884767" lon="-0.260245"><ele>134.0</ele><time>2026-04-05T08:07:24.664Z</time></trkpt><trkpt lat="39.788425" lon="-0.2603717"><ele>133.0</ele><time>2026-04-05T08:07:26.665Z</time></trkpt><trkpt lat="39.78837" lon="-0.2604967"><ele>132.0</ele><time>2026-04-05T08:07:28.664Z</time></trkpt><trkpt lat="39.7883167" lon="-0.260615"><ele>131.0</ele><time>2026-04-05T08:07:30.664Z</time></trkpt><trkpt lat="39.788275" lon="-0.2607333"><ele>130.0</ele><time>2026-04-05T08:07:32.664Z</time></trkpt><trkpt lat="39.7882333" lon="-0.2608433"><ele>130.0</ele><time>2026-04-05T08:07:34.664Z</time></trkpt><trkpt lat="39.7881867" lon="-0.2609617"><ele>130.0</ele><time>2026-04-05T08:07:36.664Z</time></trkpt><trkpt lat="39.7881417" lon="-0.2610783"><ele>130.0</ele><time>2026-04-05T08:07:38.665Z</time></trkpt><trkpt lat="39.788095" lon="-0.2611967"><ele>130.0</ele><time>2026-04-05T08:07:40.664Z</time></trkpt><trkpt lat="39.788055" lon="-0.2613033"><ele>130.0</ele><time>2026-04-05T08:07:42.664Z</time></trkpt><trkpt lat="39.7880067" lon="-0.2614"><ele>130.4</ele><time>2026-04-05T08:07:44.664Z</time></trkpt><trkpt lat="39.7879683" lon="-0.261515"><ele>130.8</ele><time>2026-04-05T08:07:46.664Z</time></trkpt><trkpt lat="39.7879283" lon="-0.261625"><ele>131.2</ele><time>2026-04-05T08:07:48.664Z</time></trkpt><trkpt lat="39.787885" lon="-0.26173"><ele>131.6</ele><time>2026-04-05T08:07:50.664Z</time></trkpt><trkpt lat="39.7878417" lon="-0.2618367"><ele>132.0</ele><time>2026-04-05T08:07:52.664Z</time></trkpt><trkpt lat="39.7877967" lon="-0.2619417"><ele>132.0</ele><time>2026-04-05T08:07:54.664Z</time></trkpt><trkpt lat="39.7877517" lon="-0.2620533"><ele>132.0</ele><time>2026-04-05T08:07:56.664Z</time></trkpt><trkpt lat="39.7877117" lon="-0.262165"><ele>132.0</ele><time>2026-04-05T08:07:58.664Z</time></trkpt><trkpt lat="39.78768" lon="-0.2622767"><ele>132.0</ele><time>2026-04-05T08:08:00.664Z</time></trkpt><trkpt lat="39.7876383" lon="-0.2623833"><ele>132.0</ele><time>2026-04-05T08:08:02.665Z</time></trkpt><trkpt lat="39.7875733" lon="-0.262485"><ele>132.4</ele><time>2026-04-05T08:08:04.664Z</time></trkpt><trkpt lat="39.7875167" lon="-0.2625583"><ele>132.79999999999998</ele><time>2026-04-05T08:08:06.664Z</time></trkpt><trkpt lat="39.7874533" lon="-0.2626483"><ele>133.2</ele><time>2026-04-05T08:08:08.664Z</time></trkpt><trkpt lat="39.7874017" lon="-0.2627567"><ele>133.6</ele><time>2026-04-05T08:08:10.664Z</time></trkpt><trkpt lat="39.7873483" lon="-0.2628617"><ele>134.0</ele><time>2026-04-05T08:08:12.664Z</time></trkpt><trkpt lat="39.7872917" lon="-0.2629633"><ele>134.0</ele><time>2026-04-05T08:08:14.664Z</time></trkpt><trkpt lat="39.78724" lon="-0.2630567"><ele>134.0</ele><time>2026-04-05T08:08:16.664Z</time></trkpt><trkpt lat="39.7871917" lon="-0.263155"><ele>134.0</ele><time>2026-04-05T08:08:18.664Z</time></trkpt><trkpt lat="39.7871367" lon="-0.26325"><ele>134.0</ele><time>2026-04-05T08:08:20.664Z</time></trkpt><trkpt lat="39.7870767" lon="-0.26335"><ele>134.0</ele><time>2026-04-05T08:08:22.664Z</time></trkpt><trkpt lat="39.7870067" lon="-0.263435"><ele>134.0</ele><time>2026-04-05T08:08:24.664Z</time></trkpt><trkpt lat="39.786935" lon="-0.2635267"><ele>134.0</ele><time>2026-04-05T08:08:26.664Z</time></trkpt><trkpt lat="39.7868683" lon="-0.2636167"><ele>134.0</ele><time>2026-04-05T08:08:28.664Z</time></trkpt><trkpt lat="39.7868017" lon="-0.2637"><ele>134.0</ele><time>2026-04-05T08:08:30.664Z</time></trkpt><trkpt lat="39.7867383" lon="-0.2637783"><ele>134.0</ele><time>2026-04-05T08:08:32.664Z</time></trkpt><trkpt lat="39.7866717" lon="-0.2638583"><ele>134.8</ele><time>2026-04-05T08:08:34.664Z</time></trkpt><trkpt lat="39.7866033" lon="-0.2639567"><ele>135.60000000000002</ele><time>2026-04-05T08:08:36.665Z</time></trkpt><trkpt lat="39.7865333" lon="-0.2640483"><ele>136.4</ele><time>2026-04-05T08:08:38.664Z</time></trkpt><trkpt lat="39.7864633" lon="-0.26414"><ele>137.20000000000002</ele><time>2026-04-05T08:08:40.664Z</time></trkpt><trkpt lat="39.7864033" lon="-0.2642367"><ele>138.0</ele><time>2026-04-05T08:08:42.664Z</time></trkpt><trkpt lat="39.78634" lon="-0.26433"><ele>138.0</ele><time>2026-04-05T08:08:44.664Z</time></trkpt><trkpt lat="39.7862933" lon="-0.2644267"><ele>138.0</ele><time>2026-04-05T08:08:46.664Z</time></trkpt><trkpt lat="39.78624" lon="-0.26453"><ele>138.0</ele><time>2026-04-05T08:08:48.664Z</time></trkpt><trkpt lat="39.7861933" lon="-0.2646417"><ele>138.0</ele><time>2026-04-05T08:08:50.665Z</time></trkpt><trkpt lat="39.786145" lon="-0.2647517"><ele>138.0</ele><time>2026-04-05T08:08:52.664Z</time></trkpt><trkpt lat="39.7861033" lon="-0.2648533"><ele>138.4</ele><time>2026-04-05T08:08:54.664Z</time></trkpt><trkpt lat="39.7860567" lon="-0.2649617"><ele>138.8</ele><time>2026-04-05T08:08:56.665Z</time></trkpt><trkpt lat="39.7860183" lon="-0.2650667"><ele>139.2</ele><time>2026-04-05T08:08:58.664Z</time></trkpt><trkpt lat="39.7859667" lon="-0.2651733"><ele>139.6</ele><time>2026-04-05T08:09:00.664Z</time></trkpt><trkpt lat="39.7859233" lon="-0.2652783"><ele>140.0</ele><time>2026-04-05T08:09:02.664Z</time></trkpt><trkpt lat="39.7858767" lon="-0.2653767"><ele>140.0</ele><time>2026-04-05T08:09:04.664Z</time></trkpt><trkpt lat="39.7858233" lon="-0.2654883"><ele>140.0</ele><time>2026-04-05T08:09:06.665Z</time></trkpt><trkpt lat="39.7857933" lon="-0.2656033"><ele>140.0</ele><time>2026-04-05T08:09:08.664Z</time></trkpt><trkpt lat="39.785765" lon="-0.2657217"><ele>140.0</ele><time>2026-04-05T08:09:10.664Z</time></trkpt><trkpt lat="39.7857317" lon="-0.2658367"><ele>140.0</ele><time>2026-04-05T08:09:12.664Z</time></trkpt><trkpt lat="39.7857033" lon="-0.2659517"><ele>140.6</ele><time>2026-04-05T08:09:14.665Z</time></trkpt><trkpt lat="39.78568" lon="-0.2660717"><ele>141.2</ele><time>2026-04-05T08:09:16.664Z</time></trkpt><trkpt lat="39.7856533" lon="-0.2661883"><ele>141.8</ele><time>2026-04-05T08:09:18.664Z</time></trkpt><trkpt lat="39.7856233" lon="-0.2662983"><ele>142.4</ele><time>2026-04-05T08:09:20.664Z</time></trkpt><trkpt lat="39.7855983" lon="-0.26641"><ele>143.0</ele><time>2026-04-05T08:09:22.664Z</time></trkpt><trkpt lat="39.7855733" lon="-0.2665333"><ele>143.8</ele><time>2026-04-05T08:09:24.664Z</time></trkpt><trkpt lat="39.7855483" lon="-0.2666517"><ele>144.60000000000002</ele><time>2026-04-05T08:09:26.665Z</time></trkpt><trkpt lat="39.7855217" lon="-0.2667733"><ele>145.39999999999998</ele><time>2026-04-05T08:09:28.664Z</time></trkpt><trkpt lat="39.7855017" lon="-0.2668883"><ele>146.2</ele><time>2026-04-05T08:09:30.665Z</time></trkpt><trkpt lat="39.785475" lon="-0.2670067"><ele>147.0</ele><time>2026-04-05T08:09:32.664Z</time></trkpt><trkpt lat="39.785455" lon="-0.2671267"><ele>147.0</ele><time>2026-04-05T08:09:34.665Z</time></trkpt><trkpt lat="39.7854333" lon="-0.26724"><ele>147.0</ele><time>2026-04-05T08:09:36.664Z</time></trkpt><trkpt lat="39.7854117" lon="-0.2673567"><ele>147.0</ele><time>2026-04-05T08:09:38.664Z</time></trkpt><trkpt lat="39.7853917" lon="-0.267465"><ele>147.0</ele><time>2026-04-05T08:09:40.665Z</time></trkpt><trkpt lat="39.7853717" lon="-0.26757"><ele>147.0</ele><time>2026-04-05T08:09:42.665Z</time></trkpt><trkpt lat="39.78535" lon="-0.2676833"><ele>147.0</ele><time>2026-04-05T08:09:44.664Z</time></trkpt><trkpt lat="39.7853233" lon="-0.267785"><ele>147.66666666666666</ele><time>2026-04-05T08:09:46.665Z</time></trkpt><trkpt lat="39.7852783" lon="-0.2678767"><ele>148.33333333333334</ele><time>2026-04-05T08:09:48.664Z</time></trkpt><trkpt lat="39.7852517" lon="-0.2679983"><ele>149.0</ele><time>2026-04-05T08:09:50.664Z</time></trkpt><trkpt lat="39.785235" lon="-0.2681133"><ele>149.66666666666669</ele><time>2026-04-05T08:09:52.664Z</time></trkpt><trkpt lat="39.7852367" lon="-0.2682083"><ele>150.33333333333334</ele><time>2026-04-05T08:09:54.664Z</time></trkpt><trkpt lat="39.7852283" lon="-0.268315"><ele>151.0</ele><time>2026-04-05T08:09:56.664Z</time></trkpt><trkpt lat="39.785205" lon="-0.2684133"><ele>151.14285714285717</ele><time>2026-04-05T08:09:58.664Z</time></trkpt><trkpt lat="39.7851867" lon="-0.2684917"><ele>151.28571428571428</ele><time>2026-04-05T08:10:00.664Z</time></trkpt><trkpt lat="39.7851783" lon="-0.2685767"><ele>151.42857142857144</ele><time>2026-04-05T08:10:02.664Z</time></trkpt><trkpt lat="39.7851683" lon="-0.2686833"><ele>151.57142857142858</ele><time>2026-04-05T08:10:05.664Z</time></trkpt><trkpt lat="39.7851467" lon="-0.2687667"><ele>151.71428571428572</ele><time>2026-04-05T08:10:07.664Z</time></trkpt><trkpt lat="39.7851283" lon="-0.268855"><ele>151.85714285714286</ele><time>2026-04-05T08:10:09.665Z</time></trkpt><trkpt lat="39.7851133" lon="-0.268955"><ele>152.0</ele><time>2026-04-05T08:10:11.665Z</time></trkpt><trkpt lat="39.7850867" lon="-0.2690817"><ele>150.75</ele><time>2026-04-05T08:10:13.664Z</time></trkpt><trkpt lat="39.7850617" lon="-0.2692283"><ele>149.5</ele><time>2026-04-05T08:10:15.665Z</time></trkpt><trkpt lat="39.7850433" lon="-0.2693783"><ele>148.25</ele><time>2026-04-05T08:10:17.664Z</time></trkpt><trkpt lat="39.78501" lon="-0.26953"><ele>147.0</ele><time>2026-04-05T08:10:19.664Z</time></trkpt><trkpt lat="39.7849833" lon="-0.269665"><ele>147.6</ele><time>2026-04-05T08:10:21.664Z</time></trkpt><trkpt lat="39.7849517" lon="-0.2697917"><ele>148.2</ele><time>2026-04-05T08:10:23.665Z</time></trkpt><trkpt lat="39.7849167" lon="-0.2699283"><ele>148.8</ele><time>2026-04-05T08:10:25.664Z</time></trkpt><trkpt lat="39.7848983" lon="-0.2700083"><ele>149.4</ele><time>2026-04-05T08:10:26.664Z</time></trkpt><trkpt lat="39.7848617" lon="-0.2701467"><ele>150.0</ele><time>2026-04-05T08:10:28.664Z</time></trkpt><trkpt lat="39.7848283" lon="-0.2702683"><ele>150.0</ele><time>2026-04-05T08:10:30.665Z</time></trkpt><trkpt lat="39.7847967" lon="-0.2703983"><ele>150.0</ele><time>2026-04-05T08:10:32.664Z</time></trkpt><trkpt lat="39.7847683" lon="-0.270525"><ele>150.0</ele><time>2026-04-05T08:10:34.664Z</time></trkpt><trkpt lat="39.78474" lon="-0.2706467"><ele>150.0</ele><time>2026-04-05T08:10:36.665Z</time></trkpt><trkpt lat="39.7847083" lon="-0.2707733"><ele>150.0</ele><time>2026-04-05T08:10:38.664Z</time></trkpt><trkpt lat="39.7846783" lon="-0.2709"><ele>150.0</ele><time>2026-04-05T08:10:40.664Z</time></trkpt><trkpt lat="39.7846467" lon="-0.271015"><ele>150.0</ele><time>2026-04-05T08:10:42.665Z</time></trkpt><trkpt lat="39.7846117" lon="-0.2711317"><ele>150.0</ele><time>2026-04-05T08:10:44.664Z</time></trkpt><trkpt lat="39.78458" lon="-0.2712467"><ele>150.0</ele><time>2026-04-05T08:10:46.664Z</time></trkpt><trkpt lat="39.7845417" lon="-0.271365"><ele>150.0</ele><time>2026-04-05T08:10:48.664Z</time></trkpt><trkpt lat="39.7845067" lon="-0.271485"><ele>150.2</ele><time>2026-04-05T08:10:50.664Z</time></trkpt><trkpt lat="39.78448" lon="-0.2716033"><ele>150.4</ele><time>2026-04-05T08:10:52.664Z</time></trkpt><trkpt lat="39.7844517" lon="-0.2717233"><ele>150.6</ele><time>2026-04-05T08:10:54.664Z</time></trkpt><trkpt lat="39.7844267" lon="-0.2718433"><ele>150.8</ele><time>2026-04-05T08:10:56.664Z</time></trkpt><trkpt lat="39.78439" lon="-0.2719533"><ele>151.0</ele><time>2026-04-05T08:10:58.664Z</time></trkpt><trkpt lat="39.7843617" lon="-0.27206"><ele>151.33333333333334</ele><time>2026-04-05T08:11:00.664Z</time></trkpt><trkpt lat="39.78433" lon="-0.27216"><ele>151.66666666666669</ele><time>2026-04-05T08:11:02.663Z</time></trkpt><trkpt lat="39.7842967" lon="-0.2722583"><ele>152.0</ele><time>2026-04-05T08:11:04.664Z</time></trkpt><trkpt lat="39.7842733" lon="-0.27234"><ele>152.33333333333334</ele><time>2026-04-05T08:11:06.664Z</time></trkpt><trkpt lat="39.7842467" lon="-0.2724233"><ele>152.66666666666666</ele><time>2026-04-05T08:11:08.664Z</time></trkpt><trkpt lat="39.7842233" lon="-0.2725167"><ele>153.0</ele><time>2026-04-05T08:11:10.663Z</time></trkpt><trkpt lat="39.7841917" lon="-0.27263"><ele>153.0</ele><time>2026-04-05T08:11:13.664Z</time></trkpt><trkpt lat="39.784155" lon="-0.2727483"><ele>153.0</ele><time>2026-04-05T08:11:16.663Z</time></trkpt><trkpt lat="39.784125" lon="-0.27287"><ele>153.0</ele><time>2026-04-05T08:11:19.663Z</time></trkpt><trkpt lat="39.784095" lon="-0.27298"><ele>153.0</ele><time>2026-04-05T08:11:22.664Z</time></trkpt><trkpt lat="39.7840733" lon="-0.2730583"><ele>153.0</ele><time>2026-04-05T08:11:24.663Z</time></trkpt><trkpt lat="39.7840583" lon="-0.273155"><ele>153.0</ele><time>2026-04-05T08:11:26.663Z</time></trkpt><trkpt lat="39.78403" lon="-0.2732367"><ele>153.42857142857142</ele><time>2026-04-05T08:11:28.663Z</time></trkpt><trkpt lat="39.78401" lon="-0.273315"><ele>153.85714285714286</ele><time>2026-04-05T08:11:30.663Z</time></trkpt><trkpt lat="39.7839867" lon="-0.2734"><ele>154.28571428571428</ele><time>2026-04-05T08:11:32.663Z</time></trkpt><trkpt lat="39.7839583" lon="-0.27349"><ele>154.71428571428572</ele><time>2026-04-05T08:11:34.664Z</time></trkpt><trkpt lat="39.7839383" lon="-0.273575"><ele>155.14285714285714</ele><time>2026-04-05T08:11:36.663Z</time></trkpt><trkpt lat="39.7839183" lon="-0.27367"><ele>155.57142857142858</ele><time>2026-04-05T08:11:38.663Z</time></trkpt><trkpt lat="39.7838867" lon="-0.2737617"><ele>156.0</ele><time>2026-04-05T08:11:40.663Z</time></trkpt><trkpt lat="39.7838617" lon="-0.273865"><ele>156.16666666666666</ele><time>2026-04-05T08:11:42.663Z</time></trkpt><trkpt lat="39.7838283" lon="-0.27397"><ele>156.33333333333334</ele><time>2026-04-05T08:11:44.663Z</time></trkpt><trkpt lat="39.7838033" lon="-0.2740733"><ele>156.5</ele><time>2026-04-05T08:11:46.663Z</time></trkpt><trkpt lat="39.78378" lon="-0.27418"><ele>156.66666666666669</ele><time>2026-04-05T08:11:48.663Z</time></trkpt><trkpt lat="39.7837533" lon="-0.2743033"><ele>156.83333333333334</ele><time>2026-04-05T08:11:50.663Z</time></trkpt><trkpt lat="39.7837267" lon="-0.2744083"><ele>157.0</ele><time>2026-04-05T08:11:52.663Z</time></trkpt><trkpt lat="39.7836967" lon="-0.2745217"><ele>157.0</ele><time>2026-04-05T08:11:54.663Z</time></trkpt><trkpt lat="39.78367" lon="-0.2746333"><ele>157.0</ele><time>2026-04-05T08:11:56.663Z</time></trkpt><trkpt lat="39.7836483" lon="-0.2747467"><ele>157.0</ele><time>2026-04-05T08:11:58.663Z</time></trkpt><trkpt lat="39.7836267" lon="-0.2748667"><ele>157.0</ele><time>2026-04-05T08:12:00.663Z</time></trkpt><trkpt lat="39.7836017" lon="-0.2749683"><ele>157.0</ele><time>2026-04-05T08:12:02.663Z</time></trkpt><trkpt lat="39.7835783" lon="-0.2750733"><ele>157.0</ele><time>2026-04-05T08:12:04.663Z</time></trkpt><trkpt lat="39.783545" lon="-0.2751717"><ele>157.0</ele><time>2026-04-05T08:12:06.664Z</time></trkpt><trkpt lat="39.78352" lon="-0.275275"><ele>157.0</ele><time>2026-04-05T08:12:08.663Z</time></trkpt><trkpt lat="39.783495" lon="-0.2753783"><ele>157.0</ele><time>2026-04-05T08:12:10.663Z</time></trkpt><trkpt lat="39.7834667" lon="-0.27549"><ele>157.0</ele><time>2026-04-05T08:12:12.663Z</time></trkpt><trkpt lat="39.7834417" lon="-0.2755833"><ele>157.0</ele><time>2026-04-05T08:12:14.663Z</time></trkpt><trkpt lat="39.78342" lon="-0.2756883"><ele>157.0</ele><time>2026-04-05T08:12:16.663Z</time></trkpt><trkpt lat="39.783405" lon="-0.2758033"><ele>157.33333333333334</ele><time>2026-04-05T08:12:18.663Z</time></trkpt><trkpt lat="39.7834183" lon="-0.27591"><ele>157.66666666666669</ele><time>2026-04-05T08:12:20.664Z</time></trkpt><trkpt lat="39.783475" lon="-0.2760317"><ele>158.0</ele><time>2026-04-05T08:12:22.663Z</time></trkpt><trkpt lat="39.7835" lon="-0.2761083"><ele>158.33333333333334</ele><time>2026-04-05T08:12:23.663Z</time></trkpt><trkpt lat="39.7835383" lon="-0.2761883"><ele>158.66666666666666</ele><time>2026-04-05T08:12:24.663Z</time></trkpt><trkpt lat="39.7835833" lon="-0.2762617"><ele>159.0</ele><time>2026-04-05T08:12:25.663Z</time></trkpt><trkpt lat="39.7836383" lon="-0.276325"><ele>159.0</ele><time>2026-04-05T08:12:26.663Z</time></trkpt><trkpt lat="39.7837083" lon="-0.2763917"><ele>159.0</ele><time>2026-04-05T08:12:27.663Z</time></trkpt><trkpt lat="39.78378" lon="-0.2764467"><ele>159.0</ele><time>2026-04-05T08:12:28.664Z</time></trkpt><trkpt lat="39.7838533" lon="-0.2764883"><ele>159.0</ele><time>2026-04-05T08:12:29.664Z</time></trkpt><trkpt lat="39.7839233" lon="-0.2765433"><ele>159.0</ele><time>2026-04-05T08:12:30.663Z</time></trkpt><trkpt lat="39.78399" lon="-0.2765883"><ele>159.0</ele><time>2026-04-05T08:12:31.663Z</time></trkpt><trkpt lat="39.7840533" lon="-0.2766217"><ele>159.16666666666666</ele><time>2026-04-05T08:12:32.663Z</time></trkpt><trkpt lat="39.784115" lon="-0.2766617"><ele>159.33333333333334</ele><time>2026-04-05T08:12:33.664Z</time></trkpt><trkpt lat="39.784175" lon="-0.2767017"><ele>159.5</ele><time>2026-04-05T08:12:34.664Z</time></trkpt><trkpt lat="39.7842283" lon="-0.2767467"><ele>159.66666666666669</ele><time>2026-04-05T08:12:35.664Z</time></trkpt><trkpt lat="39.7843133" lon="-0.27683"><ele>159.83333333333334</ele><time>2026-04-05T08:12:37.663Z</time></trkpt><trkpt lat="39.7843917" lon="-0.2768933"><ele>160.0</ele><time>2026-04-05T08:12:39.663Z</time></trkpt><trkpt lat="39.7844617" lon="-0.276955"><ele>160.85714285714286</ele><time>2026-04-05T08:12:41.663Z</time></trkpt><trkpt lat="39.7845133" lon="-0.2770067"><ele>161.71428571428572</ele><time>2026-04-05T08:12:43.663Z</time></trkpt><trkpt lat="39.7845817" lon="-0.27705"><ele>162.57142857142856</ele><time>2026-04-05T08:12:46.663Z</time></trkpt><trkpt lat="39.7846483" lon="-0.2770983"><ele>163.42857142857144</ele><time>2026-04-05T08:12:49.663Z</time></trkpt><trkpt lat="39.7847167" lon="-0.27712"><ele>164.2857142857143</ele><time>2026-04-05T08:12:52.663Z</time></trkpt><trkpt lat="39.784795" lon="-0.2771433"><ele>165.14285714285714</ele><time>2026-04-05T08:12:55.663Z</time></trkpt><trkpt lat="39.784875" lon="-0.2771567"><ele>166.0</ele><time>2026-04-05T08:12:58.663Z</time></trkpt><trkpt lat="39.784965" lon="-0.2771817"><ele>166.0</ele><time>2026-04-05T08:13:01.663Z</time></trkpt><trkpt lat="39.78504" lon="-0.2772233"><ele>166.0</ele><time>2026-04-05T08:13:04.663Z</time></trkpt><trkpt lat="39.78511" lon="-0.277265"><ele>166.0</ele><time>2026-04-05T08:13:07.663Z</time></trkpt><trkpt lat="39.785165" lon="-0.277335"><ele>166.0</ele><time>2026-04-05T08:13:10.663Z</time></trkpt><trkpt lat="39.7852117" lon="-0.2774217"><ele>166.0</ele><time>2026-04-05T08:13:13.663Z</time></trkpt><trkpt lat="39.7852683" lon="-0.2775"><ele>166.0</ele><time>2026-04-05T08:13:16.663Z</time></trkpt><trkpt lat="39.78531" lon="-0.2776017"><ele>167.33333333333334</ele><time>2026-04-05T08:13:19.663Z</time></trkpt><trkpt lat="39.7853533" lon="-0.2776983"><ele>168.66666666666669</ele><time>2026-04-05T08:13:22.663Z</time></trkpt><trkpt lat="39.7853917" lon="-0.27778"><ele>170.0</ele><time>2026-04-05T08:13:25.663Z</time></trkpt><trkpt lat="39.78544" lon="-0.27787"><ele>171.33333333333334</ele><time>2026-04-05T08:13:28.664Z</time></trkpt><trkpt lat="39.7854833" lon="-0.2779583"><ele>172.66666666666666</ele><time>2026-04-05T08:13:31.663Z</time></trkpt><trkpt lat="39.7855283" lon="-0.278045"><ele>174.0</ele><time>2026-04-05T08:13:34.663Z</time></trkpt><trkpt lat="39.7855683" lon="-0.2781567"><ele>174.0</ele><time>2026-04-05T08:13:37.663Z</time></trkpt><trkpt lat="39.7856" lon="-0.2782433"><ele>174.0</ele><time>2026-04-05T08:13:39.663Z</time></trkpt><trkpt lat="39.7856567" lon="-0.278335"><ele>174.0</ele><time>2026-04-05T08:13:41.663Z</time></trkpt><trkpt lat="39.7857283" lon="-0.2784383"><ele>174.0</ele><time>2026-04-05T08:13:43.663Z</time></trkpt><trkpt lat="39.7858183" lon="-0.2785517"><ele>174.0</ele><time>2026-04-05T08:13:45.664Z</time></trkpt><trkpt lat="39.7858667" lon="-0.2786083"><ele>174.0</ele><time>2026-04-05T08:13:46.663Z</time></trkpt><trkpt lat="39.7859583" lon="-0.27873"><ele>174.0</ele><time>2026-04-05T08:13:48.663Z</time></trkpt><trkpt lat="39.78601" lon="-0.2787867"><ele>174.0</ele><time>2026-04-05T08:13:49.663Z</time></trkpt><trkpt lat="39.786055" lon="-0.2788483"><ele>174.0</ele><time>2026-04-05T08:13:50.663Z</time></trkpt><trkpt lat="39.7860967" lon="-0.2789117"><ele>174.0</ele><time>2026-04-05T08:13:51.663Z</time></trkpt><trkpt lat="39.7861317" lon="-0.2789867"><ele>174.0</ele><time>2026-04-05T08:13:52.663Z</time></trkpt><trkpt lat="39.78616" lon="-0.279075"><ele>171.66666666666666</ele><time>2026-04-05T08:13:53.664Z</time></trkpt><trkpt lat="39.78619" lon="-0.2791667"><ele>169.33333333333334</ele><time>2026-04-05T08:13:54.663Z</time></trkpt><trkpt lat="39.786215" lon="-0.2792617"><ele>167.0</ele><time>2026-04-05T08:13:55.663Z</time></trkpt><trkpt lat="39.786245" lon="-0.27935"><ele>164.66666666666669</ele><time>2026-04-05T08:13:56.663Z</time></trkpt><trkpt lat="39.78627" lon="-0.279455"><ele>162.33333333333334</ele><time>2026-04-05T08:13:57.664Z</time></trkpt><trkpt lat="39.7862933" lon="-0.2795633"><ele>160.0</ele><time>2026-04-05T08:13:58.663Z</time></trkpt><trkpt lat="39.78633" lon="-0.2796733"><ele>160.33333333333334</ele><time>2026-04-05T08:13:59.663Z</time></trkpt><trkpt lat="39.786375" lon="-0.2797717"><ele>160.66666666666669</ele><time>2026-04-05T08:14:00.663Z</time></trkpt><trkpt lat="39.7864267" lon="-0.27986"><ele>161.0</ele><time>2026-04-05T08:14:01.663Z</time></trkpt><trkpt lat="39.7864683" lon="-0.27995"><ele>161.33333333333334</ele><time>2026-04-05T08:14:02.663Z</time></trkpt><trkpt lat="39.7865133" lon="-0.28004"><ele>161.66666666666666</ele><time>2026-04-05T08:14:03.664Z</time></trkpt><trkpt lat="39.7865533" lon="-0.2801317"><ele>162.0</ele><time>2026-04-05T08:14:04.663Z</time></trkpt><trkpt lat="39.78659" lon="-0.2802317"><ele>162.0</ele><time>2026-04-05T08:14:05.663Z</time></trkpt><trkpt lat="39.78662" lon="-0.2803317"><ele>162.0</ele><time>2026-04-05T08:14:06.663Z</time></trkpt><trkpt lat="39.78665" lon="-0.28043"><ele>162.0</ele><time>2026-04-05T08:14:07.663Z</time></trkpt><trkpt lat="39.7866783" lon="-0.280525"><ele>162.0</ele><time>2026-04-05T08:14:08.663Z</time></trkpt><trkpt lat="39.78672" lon="-0.2806183"><ele>162.0</ele><time>2026-04-05T08:14:09.664Z</time></trkpt><trkpt lat="39.786765" lon="-0.280705"><ele>162.0</ele><time>2026-04-05T08:14:10.663Z</time></trkpt><trkpt lat="39.7868033" lon="-0.2807917"><ele>161.14285714285714</ele><time>2026-04-05T08:14:11.663Z</time></trkpt><trkpt lat="39.7868483" lon="-0.28088"><ele>160.28571428571428</ele><time>2026-04-05T08:14:12.664Z</time></trkpt><trkpt lat="39.7868917" lon="-0.2809717"><ele>159.42857142857144</ele><time>2026-04-05T08:14:13.663Z</time></trkpt><trkpt lat="39.786935" lon="-0.2810483"><ele>158.57142857142856</ele><time>2026-04-05T08:14:14.663Z</time></trkpt><trkpt lat="39.7869733" lon="-0.2811217"><ele>157.7142857142857</ele><time>2026-04-05T08:14:15.663Z</time></trkpt><trkpt lat="39.787005" lon="-0.2812017"><ele>156.85714285714286</ele><time>2026-04-05T08:14:16.664Z</time></trkpt><trkpt lat="39.7870383" lon="-0.2812767"><ele>156.0</ele><time>2026-04-05T08:14:17.663Z</time></trkpt><trkpt lat="39.7870683" lon="-0.2813517"><ele>156.0</ele><time>2026-04-05T08:14:18.663Z</time></trkpt><trkpt lat="39.7870933" lon="-0.2814317"><ele>156.0</ele><time>2026-04-05T08:14:19.664Z</time></trkpt><trkpt lat="39.7871167" lon="-0.28151"><ele>156.0</ele><time>2026-04-05T08:14:20.664Z</time></trkpt><trkpt lat="39.7871383" lon="-0.2815933"><ele>156.0</ele><time>2026-04-05T08:14:21.664Z</time></trkpt><trkpt lat="39.78716" lon="-0.281675"><ele>156.0</ele><time>2026-04-05T08:14:22.663Z</time></trkpt><trkpt lat="39.7872067" lon="-0.2818233"><ele>156.0</ele><time>2026-04-05T08:14:24.663Z</time></trkpt><trkpt lat="39.7872633" lon="-0.2819567"><ele>156.33333333333334</ele><time>2026-04-05T08:14:26.663Z</time></trkpt><trkpt lat="39.7873233" lon="-0.2820867"><ele>156.66666666666666</ele><time>2026-04-05T08:14:28.663Z</time></trkpt><trkpt lat="39.7873517" lon="-0.2821633"><ele>157.0</ele><time>2026-04-05T08:14:29.664Z</time></trkpt><trkpt lat="39.7873867" lon="-0.2823117"><ele>157.33333333333331</ele><time>2026-04-05T08:14:31.663Z</time></trkpt><trkpt lat="39.7873983" lon="-0.282395"><ele>157.66666666666666</ele><time>2026-04-05T08:14:32.663Z</time></trkpt><trkpt lat="39.7874117" lon="-0.2824867"><ele>158.0</ele><time>2026-04-05T08:14:33.663Z</time></trkpt><trkpt lat="39.7874267" lon="-0.2825833"><ele>158.0</ele><time>2026-04-05T08:14:34.663Z</time></trkpt><trkpt lat="39.7874517" lon="-0.2826783"><ele>158.0</ele><time>2026-04-05T08:14:35.664Z</time></trkpt><trkpt lat="39.7874833" lon="-0.2827617"><ele>158.0</ele><time>2026-04-05T08:14:36.663Z</time></trkpt><trkpt lat="39.787545" lon="-0.2828917"><ele>158.0</ele><time>2026-04-05T08:14:38.663Z</time></trkpt><trkpt lat="39.7876117" lon="-0.2829817"><ele>158.0</ele><time>2026-04-05T08:14:40.663Z</time></trkpt><trkpt lat="39.78767" lon="-0.283055"><ele>158.0</ele><time>2026-04-05T08:14:42.664Z</time></trkpt><trkpt lat="39.7877333" lon="-0.2831267"><ele>159.0</ele><time>2026-04-05T08:14:44.663Z</time></trkpt><trkpt lat="39.7877933" lon="-0.283185"><ele>160.0</ele><time>2026-04-05T08:14:46.663Z</time></trkpt><trkpt lat="39.78785" lon="-0.2832467"><ele>161.0</ele><time>2026-04-05T08:14:48.663Z</time></trkpt><trkpt lat="39.78789" lon="-0.2833133"><ele>162.0</ele><time>2026-04-05T08:14:50.663Z</time></trkpt><trkpt lat="39.7879633" lon="-0.28339"><ele>163.0</ele><time>2026-04-05T08:14:53.664Z</time></trkpt><trkpt lat="39.78799" lon="-0.2834733"><ele>164.0</ele><time>2026-04-05T08:14:56.664Z</time></trkpt><trkpt lat="39.7879767" lon="-0.2835717"><ele>164.0</ele><time>2026-04-05T08:14:59.663Z</time></trkpt><trkpt lat="39.787965" lon="-0.2836933"><ele>164.0</ele><time>2026-04-05T08:15:02.664Z</time></trkpt><trkpt lat="39.7879467" lon="-0.2837867"><ele>164.0</ele><time>2026-04-05T08:15:04.663Z</time></trkpt><trkpt lat="39.7879417" lon="-0.2838883"><ele>164.0</ele><time>2026-04-05T08:15:06.664Z</time></trkpt><trkpt lat="39.7879367" lon="-0.2839867"><ele>164.0</ele><time>2026-04-05T08:15:08.664Z</time></trkpt><trkpt lat="39.787935" lon="-0.2840933"><ele>164.0</ele><time>2026-04-05T08:15:10.663Z</time></trkpt><trkpt lat="39.7879333" lon="-0.2842"><ele>164.2</ele><time>2026-04-05T08:15:12.663Z</time></trkpt><trkpt lat="39.7879483" lon="-0.28433"><ele>164.39999999999998</ele><time>2026-04-05T08:15:14.663Z</time></trkpt><trkpt lat="39.7879667" lon="-0.2844767"><ele>164.6</ele><time>2026-04-05T08:15:16.663Z</time></trkpt><trkpt lat="39.787995" lon="-0.2846267"><ele>164.8</ele><time>2026-04-05T08:15:18.663Z</time></trkpt><trkpt lat="39.78802" lon="-0.2847733"><ele>165.0</ele><time>2026-04-05T08:15:20.663Z</time></trkpt><trkpt lat="39.7880417" lon="-0.2849183"><ele>165.0</ele><time>2026-04-05T08:15:22.663Z</time></trkpt><trkpt lat="39.78806" lon="-0.2850667"><ele>165.0</ele><time>2026-04-05T08:15:24.663Z</time></trkpt><trkpt lat="39.7880683" lon="-0.2852117"><ele>165.0</ele><time>2026-04-05T08:15:26.663Z</time></trkpt><trkpt lat="39.788065" lon="-0.2853483"><ele>165.0</ele><time>2026-04-05T08:15:28.663Z</time></trkpt><trkpt lat="39.78807" lon="-0.2854783"><ele>165.0</ele><time>2026-04-05T08:15:30.663Z</time></trkpt><trkpt lat="39.7880517" lon="-0.2856033"><ele>164.85714285714286</ele><time>2026-04-05T08:15:32.663Z</time></trkpt><trkpt lat="39.7880383" lon="-0.28571"><ele>164.71428571428572</ele><time>2026-04-05T08:15:34.663Z</time></trkpt><trkpt lat="39.7880217" lon="-0.2858167"><ele>164.57142857142856</ele><time>2026-04-05T08:15:36.663Z</time></trkpt><trkpt lat="39.788005" lon="-0.2859117"><ele>164.42857142857144</ele><time>2026-04-05T08:15:38.664Z</time></trkpt><trkpt lat="39.7879933" lon="-0.285995"><ele>164.28571428571428</ele><time>2026-04-05T08:15:40.663Z</time></trkpt><trkpt lat="39.78797" lon="-0.286075"><ele>164.14285714285714</ele><time>2026-04-05T08:15:42.663Z</time></trkpt><trkpt lat="39.787935" lon="-0.2861633"><ele>164.0</ele><time>2026-04-05T08:15:45.663Z</time></trkpt><trkpt lat="39.7879117" lon="-0.28626"><ele>164.0</ele><time>2026-04-05T08:15:48.663Z</time></trkpt><trkpt lat="39.7878883" lon="-0.2863617"><ele>164.0</ele><time>2026-04-05T08:15:51.664Z</time></trkpt><trkpt lat="39.7878567" lon="-0.28646"><ele>164.0</ele><time>2026-04-05T08:15:54.663Z</time></trkpt><trkpt lat="39.78784" lon="-0.2865667"><ele>164.0</ele><time>2026-04-05T08:15:57.663Z</time></trkpt><trkpt lat="39.7877967" lon="-0.2866833"><ele>164.0</ele><time>2026-04-05T08:16:00.664Z</time></trkpt><trkpt lat="39.7877533" lon="-0.28679"><ele>164.0</ele><time>2026-04-05T08:16:03.664Z</time></trkpt><trkpt lat="39.7877233" lon="-0.286865"><ele>164.0</ele><time>2026-04-05T08:16:05.664Z</time></trkpt><trkpt lat="39.7876933" lon="-0.2869483"><ele>164.0</ele><time>2026-04-05T08:16:07.663Z</time></trkpt><trkpt lat="39.7876517" lon="-0.287045"><ele>164.0</ele><time>2026-04-05T08:16:10.664Z</time></trkpt><trkpt lat="39.7876217" lon="-0.287125"><ele>164.0</ele><time>2026-04-05T08:16:12.663Z</time></trkpt><trkpt lat="39.7875967" lon="-0.2872167"><ele>164.0</ele><time>2026-04-05T08:16:14.663Z</time></trkpt><trkpt lat="39.7875683" lon="-0.2872983"><ele>164.0</ele><time>2026-04-05T08:16:16.663Z</time></trkpt><trkpt lat="39.7875533" lon="-0.287415"><ele>164.33333333333331</ele><time>2026-04-05T08:16:19.663Z</time></trkpt><trkpt lat="39.7875617" lon="-0.2875133"><ele>164.66666666666666</ele><time>2026-04-05T08:16:21.663Z</time></trkpt><trkpt lat="39.7875667" lon="-0.287625"><ele>165.0</ele><time>2026-04-05T08:16:23.664Z</time></trkpt><trkpt lat="39.7875667" lon="-0.2877267"><ele>165.33333333333334</ele><time>2026-04-05T08:16:25.663Z</time></trkpt><trkpt lat="39.7875767" lon="-0.287815"><ele>165.66666666666669</ele><time>2026-04-05T08:16:27.664Z</time></trkpt><trkpt lat="39.7875767" lon="-0.2878983"><ele>166.0</ele><time>2026-04-05T08:16:29.664Z</time></trkpt><trkpt lat="39.7875833" lon="-0.2880117"><ele>166.57142857142856</ele><time>2026-04-05T08:16:32.664Z</time></trkpt><trkpt lat="39.787575" lon="-0.288095"><ele>167.14285714285717</ele><time>2026-04-05T08:16:34.663Z</time></trkpt><trkpt lat="39.7875633" lon="-0.2881833"><ele>167.71428571428572</ele><time>2026-04-05T08:16:36.663Z</time></trkpt><trkpt lat="39.7875383" lon="-0.2882733"><ele>168.28571428571428</ele><time>2026-04-05T08:16:38.663Z</time></trkpt><trkpt lat="39.7875133" lon="-0.288365"><ele>168.85714285714283</ele><time>2026-04-05T08:16:40.663Z</time></trkpt><trkpt lat="39.7874933" lon="-0.2884433"><ele>169.42857142857144</ele><time>2026-04-05T08:16:42.663Z</time></trkpt><trkpt lat="39.787475" lon="-0.2885433"><ele>170.0</ele><time>2026-04-05T08:16:44.663Z</time></trkpt><trkpt lat="39.7874617" lon="-0.28866"><ele>170.0</ele><time>2026-04-05T08:16:46.664Z</time></trkpt><trkpt lat="39.7874667" lon="-0.288775"><ele>170.0</ele><time>2026-04-05T08:16:48.663Z</time></trkpt><trkpt lat="39.7874883" lon="-0.28889"><ele>170.0</ele><time>2026-04-05T08:16:50.663Z</time></trkpt><trkpt lat="39.7875217" lon="-0.2890083"><ele>170.0</ele><time>2026-04-05T08:16:52.663Z</time></trkpt><trkpt lat="39.787545" lon="-0.2891233"><ele>170.0</ele><time>2026-04-05T08:16:54.663Z</time></trkpt><trkpt lat="39.7875783" lon="-0.2892383"><ele>170.2</ele><time>2026-04-05T08:16:56.663Z</time></trkpt><trkpt lat="39.7876133" lon="-0.2893567"><ele>170.4</ele><time>2026-04-05T08:16:58.663Z</time></trkpt><trkpt lat="39.7876283" lon="-0.2894683"><ele>170.60000000000002</ele><time>2026-04-05T08:17:00.664Z</time></trkpt><trkpt lat="39.7876583" lon="-0.2895933"><ele>170.8</ele><time>2026-04-05T08:17:02.663Z</time></trkpt><trkpt lat="39.78768" lon="-0.289725"><ele>171.0</ele><time>2026-04-05T08:17:04.663Z</time></trkpt><trkpt lat="39.78769" lon="-0.2898667"><ele>171.4</ele><time>2026-04-05T08:17:06.663Z</time></trkpt><trkpt lat="39.7876933" lon="-0.289995"><ele>171.8</ele><time>2026-04-05T08:17:08.664Z</time></trkpt><trkpt lat="39.7876867" lon="-0.2901317"><ele>172.20000000000002</ele><time>2026-04-05T08:17:10.663Z</time></trkpt><trkpt lat="39.7876717" lon="-0.2902567"><ele>172.60000000000002</ele><time>2026-04-05T08:17:12.663Z</time></trkpt><trkpt lat="39.7876483" lon="-0.2903933"><ele>173.0</ele><time>2026-04-05T08:17:14.664Z</time></trkpt><trkpt lat="39.78765" lon="-0.2905317"><ele>173.4</ele><time>2026-04-05T08:17:16.663Z</time></trkpt><trkpt lat="39.787655" lon="-0.2906617"><ele>173.8</ele><time>2026-04-05T08:17:18.663Z</time></trkpt><trkpt lat="39.787645" lon="-0.2907867"><ele>174.2</ele><time>2026-04-05T08:17:20.663Z</time></trkpt><trkpt lat="39.7876217" lon="-0.2909117"><ele>174.6</ele><time>2026-04-05T08:17:22.663Z</time></trkpt><trkpt lat="39.7875983" lon="-0.2910317"><ele>175.0</ele><time>2026-04-05T08:17:24.663Z</time></trkpt><trkpt lat="39.78759" lon="-0.291155"><ele>175.0</ele><time>2026-04-05T08:17:26.663Z</time></trkpt><trkpt lat="39.7875933" lon="-0.291275"><ele>175.0</ele><time>2026-04-05T08:17:28.663Z</time></trkpt><trkpt lat="39.7876233" lon="-0.2914117"><ele>175.0</ele><time>2026-04-05T08:17:30.664Z</time></trkpt><trkpt lat="39.787655" lon="-0.2915517"><ele>175.0</ele><time>2026-04-05T08:17:32.664Z</time></trkpt><trkpt lat="39.7876867" lon="-0.2916817"><ele>175.0</ele><time>2026-04-05T08:17:34.663Z</time></trkpt><trkpt lat="39.7877317" lon="-0.291805"><ele>176.4</ele><time>2026-04-05T08:17:36.663Z</time></trkpt><trkpt lat="39.7877833" lon="-0.2919083"><ele>177.8</ele><time>2026-04-05T08:17:38.664Z</time></trkpt><trkpt lat="39.7878383" lon="-0.2920117"><ele>179.2</ele><time>2026-04-05T08:17:40.664Z</time></trkpt><trkpt lat="39.7878833" lon="-0.2921233"><ele>180.6</ele><time>2026-04-05T08:17:42.663Z</time></trkpt><trkpt lat="39.7879333" lon="-0.29223"><ele>182.0</ele><time>2026-04-05T08:17:44.663Z</time></trkpt><trkpt lat="39.78798" lon="-0.2923367"><ele>182.16666666666666</ele><time>2026-04-05T08:17:46.663Z</time></trkpt><trkpt lat="39.7880267" lon="-0.2924417"><ele>182.33333333333331</ele><time>2026-04-05T08:17:48.664Z</time></trkpt><trkpt lat="39.7880717" lon="-0.2925367"><ele>182.5</ele><time>2026-04-05T08:17:50.663Z</time></trkpt><trkpt lat="39.788125" lon="-0.2926283"><ele>182.66666666666666</ele><time>2026-04-05T08:17:52.663Z</time></trkpt><trkpt lat="39.788175" lon="-0.29272"><ele>182.83333333333334</ele><time>2026-04-05T08:17:54.663Z</time></trkpt><trkpt lat="39.7882183" lon="-0.2928183"><ele>183.0</ele><time>2026-04-05T08:17:56.663Z</time></trkpt><trkpt lat="39.7882567" lon="-0.2929117"><ele>183.0</ele><time>2026-04-05T08:17:58.663Z</time></trkpt><trkpt lat="39.7883017" lon="-0.293005"><ele>183.0</ele><time>2026-04-05T08:18:00.664Z</time></trkpt><trkpt lat="39.78835" lon="-0.2931083"><ele>183.0</ele><time>2026-04-05T08:18:02.663Z</time></trkpt><trkpt lat="39.7883967" lon="-0.293215"><ele>183.0</ele><time>2026-04-05T08:18:04.663Z</time></trkpt><trkpt lat="39.78844" lon="-0.2933117"><ele>183.0</ele><time>2026-04-05T08:18:06.663Z</time></trkpt><trkpt lat="39.7885067" lon="-0.293375"><ele>183.0</ele><time>2026-04-05T08:18:08.663Z</time></trkpt><trkpt lat="39.788585" lon="-0.2934067"><ele>184.33333333333334</ele><time>2026-04-05T08:18:10.663Z</time></trkpt><trkpt lat="39.788665" lon="-0.2934133"><ele>185.66666666666666</ele><time>2026-04-05T08:18:12.663Z</time></trkpt><trkpt lat="39.7887483" lon="-0.2933933"><ele>187.0</ele><time>2026-04-05T08:18:14.663Z</time></trkpt><trkpt lat="39.788825" lon="-0.2933983"><ele>188.33333333333331</ele><time>2026-04-05T08:18:16.663Z</time></trkpt><trkpt lat="39.78891" lon="-0.2934017"><ele>189.66666666666666</ele><time>2026-04-05T08:18:18.663Z</time></trkpt><trkpt lat="39.7889883" lon="-0.2934083"><ele>191.0</ele><time>2026-04-05T08:18:20.663Z</time></trkpt><trkpt lat="39.7890583" lon="-0.2934067"><ele>191.0</ele><time>2026-04-05T08:18:22.664Z</time></trkpt><trkpt lat="39.7891283" lon="-0.29339"><ele>191.0</ele><time>2026-04-05T08:18:24.664Z</time></trkpt><trkpt lat="39.7892017" lon="-0.2933783"><ele>191.0</ele><time>2026-04-05T08:18:26.663Z</time></trkpt><trkpt lat="39.7892683" lon="-0.2933917"><ele>191.0</ele><time>2026-04-05T08:18:28.663Z</time></trkpt><trkpt lat="39.789365" lon="-0.2933833"><ele>191.0</ele><time>2026-04-05T08:18:31.663Z</time></trkpt><trkpt lat="39.7894383" lon="-0.2933817"><ele>191.0</ele><time>2026-04-05T08:18:33.664Z</time></trkpt><trkpt lat="39.7895217" lon="-0.2933967"><ele>192.0</ele><time>2026-04-05T08:18:35.663Z</time></trkpt><trkpt lat="39.789605" lon="-0.2934"><ele>193.0</ele><time>2026-04-05T08:18:37.663Z</time></trkpt><trkpt lat="39.7896833" lon="-0.293395"><ele>194.0</ele><time>2026-04-05T08:18:39.663Z</time></trkpt><trkpt lat="39.7897617" lon="-0.293385"><ele>195.0</ele><time>2026-04-05T08:18:41.663Z</time></trkpt><trkpt lat="39.78984" lon="-0.2933783"><ele>196.00000000000003</ele><time>2026-04-05T08:18:43.663Z</time></trkpt><trkpt lat="39.7899233" lon="-0.2933817"><ele>197.0</ele><time>2026-04-05T08:18:45.664Z</time></trkpt><trkpt lat="39.7900033" lon="-0.2933817"><ele>197.00000000000003</ele><time>2026-04-05T08:18:47.663Z</time></trkpt><trkpt lat="39.7900883" lon="-0.2933783"><ele>197.0</ele><time>2026-04-05T08:18:49.663Z</time></trkpt><trkpt lat="39.7901767" lon="-0.29336"><ele>197.0</ele><time>2026-04-05T08:18:51.664Z</time></trkpt><trkpt lat="39.7902583" lon="-0.2933517"><ele>197.0</ele><time>2026-04-05T08:18:53.663Z</time></trkpt><trkpt lat="39.790345" lon="-0.2933367"><ele>197.00000000000003</ele><time>2026-04-05T08:18:55.663Z</time></trkpt><trkpt lat="39.79043" lon="-0.2933317"><ele>197.0</ele><time>2026-04-05T08:18:57.663Z</time></trkpt><trkpt lat="39.7905133" lon="-0.29333"><ele>198.66666666666669</ele><time>2026-04-05T08:18:59.664Z</time></trkpt><trkpt lat="39.790585" lon="-0.2933283"><ele>200.33333333333334</ele><time>2026-04-05T08:19:01.664Z</time></trkpt><trkpt lat="39.790675" lon="-0.2933233"><ele>202.0</ele><time>2026-04-05T08:19:04.663Z</time></trkpt><trkpt lat="39.7907633" lon="-0.29332"><ele>203.66666666666669</ele><time>2026-04-05T08:19:07.664Z</time></trkpt><trkpt lat="39.7908433" lon="-0.2933283"><ele>205.33333333333334</ele><time>2026-04-05T08:19:10.664Z</time></trkpt><trkpt lat="39.7909283" lon="-0.29333"><ele>207.0</ele><time>2026-04-05T08:19:13.664Z</time></trkpt><trkpt lat="39.7910033" lon="-0.293345"><ele>208.00000000000003</ele><time>2026-04-05T08:19:16.663Z</time></trkpt><trkpt lat="39.7910933" lon="-0.2933417"><ele>209.0</ele><time>2026-04-05T08:19:19.664Z</time></trkpt><trkpt lat="39.7911617" lon="-0.2933283"><ele>210.0</ele><time>2026-04-05T08:19:21.663Z</time></trkpt><trkpt lat="39.7912267" lon="-0.29333"><ele>211.0</ele><time>2026-04-05T08:19:23.663Z</time></trkpt><trkpt lat="39.7912933" lon="-0.2933233"><ele>212.0</ele><time>2026-04-05T08:19:25.663Z</time></trkpt><trkpt lat="39.7913667" lon="-0.2933167"><ele>213.00000000000003</ele><time>2026-04-05T08:19:27.663Z</time></trkpt><trkpt lat="39.7914433" lon="-0.2933033"><ele>214.0</ele><time>2026-04-05T08:19:29.663Z</time></trkpt><trkpt lat="39.791515" lon="-0.293295"><ele>213.99999999999997</ele><time>2026-04-05T08:19:31.663Z</time></trkpt><trkpt lat="39.7915933" lon="-0.2932867"><ele>214.0</ele><time>2026-04-05T08:19:33.663Z</time></trkpt><trkpt lat="39.79167" lon="-0.2932733"><ele>214.0</ele><time>2026-04-05T08:19:35.663Z</time></trkpt><trkpt lat="39.7917483" lon="-0.2932483"><ele>214.0</ele><time>2026-04-05T08:19:37.663Z</time></trkpt><trkpt lat="39.7918267" lon="-0.2932217"><ele>213.99999999999997</ele><time>2026-04-05T08:19:39.663Z</time></trkpt><trkpt lat="39.7919033" lon="-0.293205"><ele>214.0</ele><time>2026-04-05T08:19:41.663Z</time></trkpt><trkpt lat="39.7919817" lon="-0.2931833"><ele>215.66666666666666</ele><time>2026-04-05T08:19:43.663Z</time></trkpt><trkpt lat="39.7920583" lon="-0.2931817"><ele>217.33333333333331</ele><time>2026-04-05T08:19:45.663Z</time></trkpt><trkpt lat="39.7921367" lon="-0.29316"><ele>219.0</ele><time>2026-04-05T08:19:47.663Z</time></trkpt><trkpt lat="39.7922183" lon="-0.29314"><ele>220.66666666666669</ele><time>2026-04-05T08:19:49.663Z</time></trkpt><trkpt lat="39.7923" lon="-0.29312"><ele>222.33333333333334</ele><time>2026-04-05T08:19:51.663Z</time></trkpt><trkpt lat="39.7923817" lon="-0.293105"><ele>224.0</ele><time>2026-04-05T08:19:53.664Z</time></trkpt><trkpt lat="39.79246" lon="-0.29311"><ele>224.0</ele><time>2026-04-05T08:19:55.663Z</time></trkpt><trkpt lat="39.79253" lon="-0.2931133"><ele>224.0</ele><time>2026-04-05T08:19:57.663Z</time></trkpt><trkpt lat="39.7925983" lon="-0.2931367"><ele>224.0</ele><time>2026-04-05T08:19:59.663Z</time></trkpt><trkpt lat="39.7926717" lon="-0.2931517"><ele>224.0</ele><time>2026-04-05T08:20:01.663Z</time></trkpt><trkpt lat="39.7927517" lon="-0.2931717"><ele>224.0</ele><time>2026-04-05T08:20:03.663Z</time></trkpt><trkpt lat="39.792825" lon="-0.2931833"><ele>224.0</ele><time>2026-04-05T08:20:05.664Z</time></trkpt><trkpt lat="39.7929017" lon="-0.293195"><ele>224.0</ele><time>2026-04-05T08:20:07.664Z</time></trkpt><trkpt lat="39.7929733" lon="-0.29324"><ele>225.50000000000003</ele><time>2026-04-05T08:20:09.663Z</time></trkpt><trkpt lat="39.793045" lon="-0.2932717"><ele>227.0</ele><time>2026-04-05T08:20:11.663Z</time></trkpt><trkpt lat="39.7931167" lon="-0.2933017"><ele>228.5</ele><time>2026-04-05T08:20:13.663Z</time></trkpt><trkpt lat="39.793185" lon="-0.2933383"><ele>230.0</ele><time>2026-04-05T08:20:15.663Z</time></trkpt><trkpt lat="39.7932467" lon="-0.29338"><ele>231.50000000000003</ele><time>2026-04-05T08:20:17.663Z</time></trkpt><trkpt lat="39.7933233" lon="-0.2934183"><ele>233.0</ele><time>2026-04-05T08:20:19.663Z</time></trkpt><trkpt lat="39.7933933" lon="-0.293455"><ele>233.0</ele><time>2026-04-05T08:20:21.663Z</time></trkpt><trkpt lat="39.7934517" lon="-0.2934983"><ele>233.0</ele><time>2026-04-05T08:20:23.663Z</time></trkpt><trkpt lat="39.7935067" lon="-0.293545"><ele>233.0</ele><time>2026-04-05T08:20:25.663Z</time></trkpt><trkpt lat="39.79357" lon="-0.29358"><ele>233.0</ele><time>2026-04-05T08:20:27.663Z</time></trkpt><trkpt lat="39.7936583" lon="-0.2936117"><ele>233.0</ele><time>2026-04-05T08:20:30.663Z</time></trkpt><trkpt lat="39.793725" lon="-0.2936467"><ele>233.0</ele><time>2026-04-05T08:20:32.663Z</time></trkpt><trkpt lat="39.793795" lon="-0.2936733"><ele>233.0</ele><time>2026-04-05T08:20:34.664Z</time></trkpt><trkpt lat="39.7938517" lon="-0.2937167"><ele>234.0</ele><time>2026-04-05T08:20:36.663Z</time></trkpt><trkpt lat="39.7939133" lon="-0.293755"><ele>235.0</ele><time>2026-04-05T08:20:38.663Z</time></trkpt><trkpt lat="39.79398" lon="-0.2938133"><ele>236.0</ele><time>2026-04-05T08:20:40.663Z</time></trkpt><trkpt lat="39.7940417" lon="-0.293875"><ele>237.0</ele><time>2026-04-05T08:20:42.663Z</time></trkpt><trkpt lat="39.79409" lon="-0.2939467"><ele>238.0</ele><time>2026-04-05T08:20:44.663Z</time></trkpt><trkpt lat="39.7941367" lon="-0.2940283"><ele>239.0</ele><time>2026-04-05T08:20:46.663Z</time></trkpt><trkpt lat="39.794185" lon="-0.2940967"><ele>240.0</ele><time>2026-04-05T08:20:48.663Z</time></trkpt><trkpt lat="39.7942233" lon="-0.2941683"><ele>240.8</ele><time>2026-04-05T08:20:50.663Z</time></trkpt><trkpt lat="39.79429" lon="-0.2942533"><ele>241.6</ele><time>2026-04-05T08:20:53.663Z</time></trkpt><trkpt lat="39.7943517" lon="-0.294345"><ele>242.39999999999998</ele><time>2026-04-05T08:20:56.663Z</time></trkpt><trkpt lat="39.7943867" lon="-0.2944167"><ele>243.2</ele><time>2026-04-05T08:20:58.663Z</time></trkpt><trkpt lat="39.79443" lon="-0.2944833"><ele>244.0</ele><time>2026-04-05T08:21:00.663Z</time></trkpt><trkpt lat="39.7946883" lon="-0.2946083"><ele>245.6</ele><time>2026-04-05T08:21:03.102Z</time></trkpt><trkpt lat="39.7945433" lon="-0.29466"><ele>247.2</ele><time>2026-04-05T08:21:05.165Z</time></trkpt><trkpt lat="39.7945967" lon="-0.294725"><ele>248.79999999999998</ele><time>2026-04-05T08:21:07.664Z</time></trkpt><trkpt lat="39.7946583" lon="-0.29481"><ele>250.39999999999998</ele><time>2026-04-05T08:21:10.664Z</time></trkpt><trkpt lat="39.7947083" lon="-0.2949067"><ele>252.0</ele><time>2026-04-05T08:21:13.664Z</time></trkpt><trkpt lat="39.7947417" lon="-0.2949783"><ele>252.42857142857144</ele><time>2026-04-05T08:21:15.664Z</time></trkpt><trkpt lat="39.7947917" lon="-0.295075"><ele>252.85714285714286</ele><time>2026-04-05T08:21:18.664Z</time></trkpt><trkpt lat="39.79483" lon="-0.2951433"><ele>253.28571428571428</ele><time>2026-04-05T08:21:20.665Z</time></trkpt><trkpt lat="39.79487" lon="-0.29521"><ele>253.71428571428572</ele><time>2026-04-05T08:21:22.664Z</time></trkpt><trkpt lat="39.79491" lon="-0.29528"><ele>254.14285714285717</ele><time>2026-04-05T08:21:24.665Z</time></trkpt><trkpt lat="39.7949417" lon="-0.2953533"><ele>254.57142857142858</ele><time>2026-04-05T08:21:26.665Z</time></trkpt><trkpt lat="39.7949733" lon="-0.2954267"><ele>255.0</ele><time>2026-04-05T08:21:28.664Z</time></trkpt><trkpt lat="39.7950233" lon="-0.29552"><ele>256.3333333333333</ele><time>2026-04-05T08:21:31.664Z</time></trkpt><trkpt lat="39.7950783" lon="-0.2956083"><ele>257.6666666666667</ele><time>2026-04-05T08:21:34.664Z</time></trkpt><trkpt lat="39.7951233" lon="-0.295705"><ele>259.0</ele><time>2026-04-05T08:21:37.664Z</time></trkpt><trkpt lat="39.795175" lon="-0.2957867"><ele>260.33333333333337</ele><time>2026-04-05T08:21:40.665Z</time></trkpt><trkpt lat="39.7952267" lon="-0.29586"><ele>261.6666666666667</ele><time>2026-04-05T08:21:43.664Z</time></trkpt><trkpt lat="39.7952867" lon="-0.2959167"><ele>263.0</ele><time>2026-04-05T08:21:46.664Z</time></trkpt><trkpt lat="39.795345" lon="-0.2959933"><ele>263.33333333333337</ele><time>2026-04-05T08:21:49.664Z</time></trkpt><trkpt lat="39.7954133" lon="-0.29605"><ele>263.6666666666667</ele><time>2026-04-05T08:21:52.664Z</time></trkpt><trkpt lat="39.7954817" lon="-0.2961083"><ele>264.0</ele><time>2026-04-05T08:21:55.664Z</time></trkpt><trkpt lat="39.7955583" lon="-0.29616"><ele>264.3333333333333</ele><time>2026-04-05T08:21:58.665Z</time></trkpt><trkpt lat="39.7956183" lon="-0.2962283"><ele>264.66666666666663</ele><time>2026-04-05T08:22:01.665Z</time></trkpt><trkpt lat="39.79559" lon="-0.2963017"><ele>265.0</ele><time>2026-04-05T08:22:04.664Z</time></trkpt><trkpt lat="39.7956067" lon="-0.296205"><ele>264.99999999999994</ele><time>2026-04-05T08:22:10.664Z</time></trkpt><trkpt lat="39.7956783" lon="-0.2962033"><ele>265.0</ele><time>2026-04-05T08:22:13.664Z</time></trkpt><trkpt lat="39.7957633" lon="-0.2962233"><ele>265.0</ele><time>2026-04-05T08:22:16.664Z</time></trkpt><trkpt lat="39.7958117" lon="-0.2962767"><ele>265.0</ele><time>2026-04-05T08:22:18.664Z</time></trkpt><trkpt lat="39.7958567" lon="-0.2963567"><ele>265.0</ele><time>2026-04-05T08:22:22.664Z</time></trkpt><trkpt lat="39.7958767" lon="-0.2964567"><ele>264.99999999999994</ele><time>2026-04-05T08:22:26.664Z</time></trkpt><trkpt lat="39.7958933" lon="-0.2965417"><ele>265.0</ele><time>2026-04-05T08:22:29.665Z</time></trkpt><trkpt lat="39.7959067" lon="-0.2966317"><ele>266.5</ele><time>2026-04-05T08:22:32.664Z</time></trkpt><trkpt lat="39.795885" lon="-0.2967333"><ele>268.0</ele><time>2026-04-05T08:22:36.664Z</time></trkpt><trkpt lat="39.7958433" lon="-0.296795"><ele>269.5</ele><time>2026-04-05T08:22:39.664Z</time></trkpt><trkpt lat="39.7958183" lon="-0.2969033"><ele>271.0</ele><time>2026-04-05T08:22:43.665Z</time></trkpt><trkpt lat="39.7958633" lon="-0.296845"><ele>272.5</ele><time>2026-04-05T08:22:57.664Z</time></trkpt><trkpt lat="39.7958999" lon="-0.2967188"><ele>274.0</ele><time>2026-04-05T08:23:18.743Z</time></trkpt><trkpt lat="39.7959183" lon="-0.2966233"><ele>274.0</ele><time>2026-04-05T08:23:20.664Z</time></trkpt><trkpt lat="39.795905" lon="-0.2965267"><ele>274.0</ele><time>2026-04-05T08:23:23.664Z</time></trkpt><trkpt lat="39.7958967" lon="-0.2964383"><ele>274.0</ele><time>2026-04-05T08:23:26.664Z</time></trkpt><trkpt lat="39.795875" lon="-0.2963533"><ele>274.0</ele><time>2026-04-05T08:23:29.664Z</time></trkpt><trkpt lat="39.795835" lon="-0.2962717"><ele>274.0</ele><time>2026-04-05T08:23:32.664Z</time></trkpt><trkpt lat="39.795765" lon="-0.2962233"><ele>274.0</ele><time>2026-04-05T08:23:35.664Z</time></trkpt><trkpt lat="39.7956833" lon="-0.2961767"><ele>272.5</ele><time>2026-04-05T08:23:38.664Z</time></trkpt><trkpt lat="39.795615" lon="-0.2961167"><ele>271.0</ele><time>2026-04-05T08:23:41.664Z</time></trkpt><trkpt lat="39.7955417" lon="-0.2960867"><ele>269.5</ele><time>2026-04-05T08:23:45.664Z</time></trkpt><trkpt lat="39.7954733" lon="-0.2960467"><ele>268.0</ele><time>2026-04-05T08:23:48.664Z</time></trkpt><trkpt lat="39.7953967" lon="-0.2959933"><ele>266.5</ele><time>2026-04-05T08:23:51.664Z</time></trkpt><trkpt lat="39.7953267" lon="-0.2959333"><ele>265.0</ele><time>2026-04-05T08:23:54.664Z</time></trkpt><trkpt lat="39.7952633" lon="-0.29589"><ele>265.0</ele><time>2026-04-05T08:23:56.664Z</time></trkpt><trkpt lat="39.7952" lon="-0.2958017"><ele>265.0</ele><time>2026-04-05T08:23:58.664Z</time></trkpt><trkpt lat="39.7951283" lon="-0.29568"><ele>265.0</ele><time>2026-04-05T08:24:00.664Z</time></trkpt><trkpt lat="39.7950583" lon="-0.2955483"><ele>265.0</ele><time>2026-04-05T08:24:02.665Z</time></trkpt><trkpt lat="39.7950233" lon="-0.2954733"><ele>265.0</ele><time>2026-04-05T08:24:03.664Z</time></trkpt><trkpt lat="39.7949817" lon="-0.2954"><ele>263.3333333333333</ele><time>2026-04-05T08:24:04.664Z</time></trkpt><trkpt lat="39.7949367" lon="-0.295325"><ele>261.66666666666663</ele><time>2026-04-05T08:24:05.664Z</time></trkpt><trkpt lat="39.7949" lon="-0.2952483"><ele>260.0</ele><time>2026-04-05T08:24:06.664Z</time></trkpt><trkpt lat="39.79484" lon="-0.29515"><ele>258.3333333333333</ele><time>2026-04-05T08:24:08.664Z</time></trkpt><trkpt lat="39.7947967" lon="-0.2950583"><ele>256.6666666666667</ele><time>2026-04-05T08:24:10.664Z</time></trkpt><trkpt lat="39.7947617" lon="-0.29498"><ele>255.0</ele><time>2026-04-05T08:24:12.664Z</time></trkpt><trkpt lat="39.79471" lon="-0.2948817"><ele>255.0</ele><time>2026-04-05T08:24:15.664Z</time></trkpt><trkpt lat="39.7946467" lon="-0.29476"><ele>255.0</ele><time>2026-04-05T08:24:17.664Z</time></trkpt><trkpt lat="39.7945783" lon="-0.2946283"><ele>255.0</ele><time>2026-04-05T08:24:19.665Z</time></trkpt><trkpt lat="39.7945183" lon="-0.29456"><ele>255.0</ele><time>2026-04-05T08:24:20.664Z</time></trkpt><trkpt lat="39.7944517" lon="-0.2944883"><ele>255.0</ele><time>2026-04-05T08:24:21.664Z</time></trkpt><trkpt lat="39.7943883" lon="-0.2944133"><ele>252.8</ele><time>2026-04-05T08:24:22.664Z</time></trkpt><trkpt lat="39.79432" lon="-0.2943333"><ele>250.6</ele><time>2026-04-05T08:24:23.664Z</time></trkpt><trkpt lat="39.794255" lon="-0.294245"><ele>248.39999999999998</ele><time>2026-04-05T08:24:24.664Z</time></trkpt><trkpt lat="39.7941967" lon="-0.29415"><ele>246.2</ele><time>2026-04-05T08:24:25.664Z</time></trkpt><trkpt lat="39.7941417" lon="-0.2940567"><ele>244.0</ele><time>2026-04-05T08:24:26.664Z</time></trkpt><trkpt lat="39.7940783" lon="-0.2939633"><ele>243.33333333333331</ele><time>2026-04-05T08:24:27.664Z</time></trkpt><trkpt lat="39.7940167" lon="-0.2938833"><ele>242.66666666666666</ele><time>2026-04-05T08:24:28.664Z</time></trkpt><trkpt lat="39.7939517" lon="-0.2938133"><ele>242.0</ele><time>2026-04-05T08:24:29.665Z</time></trkpt><trkpt lat="39.7938767" lon="-0.293765"><ele>241.33333333333331</ele><time>2026-04-05T08:24:30.664Z</time></trkpt><trkpt lat="39.793815" lon="-0.2937267"><ele>240.66666666666666</ele><time>2026-04-05T08:24:31.665Z</time></trkpt><trkpt lat="39.793705" lon="-0.293675"><ele>240.0</ele><time>2026-04-05T08:24:33.665Z</time></trkpt><trkpt lat="39.79361" lon="-0.2936167"><ele>240.0</ele><time>2026-04-05T08:24:35.664Z</time></trkpt><trkpt lat="39.7935083" lon="-0.29355"><ele>240.0</ele><time>2026-04-05T08:24:37.664Z</time></trkpt><trkpt lat="39.7934517" lon="-0.2935067"><ele>240.0</ele><time>2026-04-05T08:24:38.664Z</time></trkpt><trkpt lat="39.793385" lon="-0.2934633"><ele>240.0</ele><time>2026-04-05T08:24:39.664Z</time></trkpt><trkpt lat="39.7933117" lon="-0.2934183"><ele>240.0</ele><time>2026-04-05T08:24:40.665Z</time></trkpt><trkpt lat="39.7932317" lon="-0.2933733"><ele>240.0</ele><time>2026-04-05T08:24:41.664Z</time></trkpt><trkpt lat="39.793145" lon="-0.2933233"><ele>238.6</ele><time>2026-04-05T08:24:42.664Z</time></trkpt><trkpt lat="39.79306" lon="-0.293275"><ele>237.2</ele><time>2026-04-05T08:24:43.664Z</time></trkpt><trkpt lat="39.7929667" lon="-0.2932367"><ele>235.8</ele><time>2026-04-05T08:24:44.664Z</time></trkpt><trkpt lat="39.79287" lon="-0.293215"><ele>234.4</ele><time>2026-04-05T08:24:45.665Z</time></trkpt><trkpt lat="39.792765" lon="-0.2931933"><ele>233.0</ele><time>2026-04-05T08:24:46.665Z</time></trkpt><trkpt lat="39.7926617" lon="-0.2931817"><ele>231.2</ele><time>2026-04-05T08:24:47.664Z</time></trkpt><trkpt lat="39.7925517" lon="-0.2931717"><ele>229.4</ele><time>2026-04-05T08:24:48.664Z</time></trkpt><trkpt lat="39.79244" lon="-0.2931633"><ele>227.59999999999997</ele><time>2026-04-05T08:24:49.664Z</time></trkpt><trkpt lat="39.7923283" lon="-0.2931683"><ele>225.79999999999998</ele><time>2026-04-05T08:24:50.664Z</time></trkpt><trkpt lat="39.7922133" lon="-0.2931767"><ele>224.0</ele><time>2026-04-05T08:24:51.664Z</time></trkpt><trkpt lat="39.7921017" lon="-0.2931983"><ele>224.0</ele><time>2026-04-05T08:24:52.664Z</time></trkpt><trkpt lat="39.79198" lon="-0.2932217"><ele>224.0</ele><time>2026-04-05T08:24:53.665Z</time></trkpt><trkpt lat="39.7918617" lon="-0.293245"><ele>224.0</ele><time>2026-04-05T08:24:54.665Z</time></trkpt><trkpt lat="39.7917417" lon="-0.29327"><ele>224.0</ele><time>2026-04-05T08:24:55.664Z</time></trkpt><trkpt lat="39.7916233" lon="-0.2933017"><ele>221.5</ele><time>2026-04-05T08:24:56.665Z</time></trkpt><trkpt lat="39.791505" lon="-0.2933267"><ele>219.0</ele><time>2026-04-05T08:24:57.664Z</time></trkpt><trkpt lat="39.791375" lon="-0.29333"><ele>216.5</ele><time>2026-04-05T08:24:58.664Z</time></trkpt><trkpt lat="39.7912517" lon="-0.29334"><ele>214.0</ele><time>2026-04-05T08:24:59.664Z</time></trkpt><trkpt lat="39.7911233" lon="-0.2933383"><ele>212.25</ele><time>2026-04-05T08:25:00.664Z</time></trkpt><trkpt lat="39.7909983" lon="-0.29334"><ele>210.5</ele><time>2026-04-05T08:25:01.665Z</time></trkpt><trkpt lat="39.79087" lon="-0.2933383"><ele>208.75</ele><time>2026-04-05T08:25:02.665Z</time></trkpt><trkpt lat="39.7907367" lon="-0.2933433"><ele>207.0</ele><time>2026-04-05T08:25:03.664Z</time></trkpt><trkpt lat="39.7906033" lon="-0.2933467"><ele>207.0</ele><time>2026-04-05T08:25:04.664Z</time></trkpt><trkpt lat="39.79047" lon="-0.2933583"><ele>207.0</ele><time>2026-04-05T08:25:05.664Z</time></trkpt><trkpt lat="39.7903383" lon="-0.2933667"><ele>207.0</ele><time>2026-04-05T08:25:06.664Z</time></trkpt><trkpt lat="39.7902" lon="-0.2933633"><ele>207.0</ele><time>2026-04-05T08:25:07.665Z</time></trkpt><trkpt lat="39.7900683" lon="-0.2933717"><ele>204.5</ele><time>2026-04-05T08:25:08.664Z</time></trkpt><trkpt lat="39.7899333" lon="-0.29338"><ele>202.0</ele><time>2026-04-05T08:25:09.665Z</time></trkpt><trkpt lat="39.7898" lon="-0.2933783"><ele>199.5</ele><time>2026-04-05T08:25:10.665Z</time></trkpt><trkpt lat="39.78966" lon="-0.2933817"><ele>197.0</ele><time>2026-04-05T08:25:11.664Z</time></trkpt><trkpt lat="39.7895267" lon="-0.293385"><ele>197.0</ele><time>2026-04-05T08:25:12.664Z</time></trkpt><trkpt lat="39.7893983" lon="-0.2933883"><ele>197.0</ele><time>2026-04-05T08:25:13.664Z</time></trkpt><trkpt lat="39.7892733" lon="-0.2933967"><ele>197.0</ele><time>2026-04-05T08:25:14.664Z</time></trkpt><trkpt lat="39.789145" lon="-0.2934067"><ele>197.0</ele><time>2026-04-05T08:25:15.664Z</time></trkpt><trkpt lat="39.7890217" lon="-0.2934067"><ele>195.8</ele><time>2026-04-05T08:25:16.664Z</time></trkpt><trkpt lat="39.788905" lon="-0.293415"><ele>194.6</ele><time>2026-04-05T08:25:17.664Z</time></trkpt><trkpt lat="39.7888017" lon="-0.2934233"><ele>193.4</ele><time>2026-04-05T08:25:18.664Z</time></trkpt><trkpt lat="39.788705" lon="-0.2934267"><ele>192.20000000000002</ele><time>2026-04-05T08:25:19.664Z</time></trkpt><trkpt lat="39.7886217" lon="-0.2934167"><ele>191.0</ele><time>2026-04-05T08:25:20.664Z</time></trkpt><trkpt lat="39.788555" lon="-0.293405"><ele>189.8</ele><time>2026-04-05T08:25:21.665Z</time></trkpt><trkpt lat="39.7884417" lon="-0.2933483"><ele>188.60000000000002</ele><time>2026-04-05T08:25:23.664Z</time></trkpt><trkpt lat="39.7883617" lon="-0.2932417"><ele>187.4</ele><time>2026-04-05T08:25:25.664Z</time></trkpt><trkpt lat="39.7883017" lon="-0.2930917"><ele>186.2</ele><time>2026-04-05T08:25:27.664Z</time></trkpt><trkpt lat="39.78827" lon="-0.2930117"><ele>185.0</ele><time>2026-04-05T08:25:28.665Z</time></trkpt><trkpt lat="39.7882367" lon="-0.2929333"><ele>184.66666666666666</ele><time>2026-04-05T08:25:29.664Z</time></trkpt><trkpt lat="39.7882017" lon="-0.29286"><ele>184.33333333333331</ele><time>2026-04-05T08:25:30.664Z</time></trkpt><trkpt lat="39.7881683" lon="-0.2927783"><ele>184.0</ele><time>2026-04-05T08:25:31.664Z</time></trkpt><trkpt lat="39.7881333" lon="-0.2926933"><ele>183.66666666666666</ele><time>2026-04-05T08:25:32.664Z</time></trkpt><trkpt lat="39.788095" lon="-0.292605"><ele>183.33333333333334</ele><time>2026-04-05T08:25:33.664Z</time></trkpt><trkpt lat="39.7880517" lon="-0.2925133"><ele>183.0</ele><time>2026-04-05T08:25:34.665Z</time></trkpt><trkpt lat="39.7880017" lon="-0.2924283"><ele>183.0</ele><time>2026-04-05T08:25:35.664Z</time></trkpt><trkpt lat="39.7879533" lon="-0.2923433"><ele>183.0</ele><time>2026-04-05T08:25:36.664Z</time></trkpt><trkpt lat="39.7879133" lon="-0.2922617"><ele>183.0</ele><time>2026-04-05T08:25:37.664Z</time></trkpt><trkpt lat="39.7878767" lon="-0.2921733"><ele>183.0</ele><time>2026-04-05T08:25:38.664Z</time></trkpt><trkpt lat="39.787835" lon="-0.2920867"><ele>183.0</ele><time>2026-04-05T08:25:39.664Z</time></trkpt><trkpt lat="39.787795" lon="-0.2919983"><ele>183.0</ele><time>2026-04-05T08:25:40.664Z</time></trkpt><trkpt lat="39.7877533" lon="-0.2919067"><ele>182.85714285714286</ele><time>2026-04-05T08:25:41.665Z</time></trkpt><trkpt lat="39.7877183" lon="-0.2918167"><ele>182.71428571428572</ele><time>2026-04-05T08:25:42.665Z</time></trkpt><trkpt lat="39.78768" lon="-0.29173"><ele>182.57142857142856</ele><time>2026-04-05T08:25:43.665Z</time></trkpt><trkpt lat="39.7876533" lon="-0.2916417"><ele>182.42857142857144</ele><time>2026-04-05T08:25:44.664Z</time></trkpt><trkpt lat="39.7876217" lon="-0.29155"><ele>182.28571428571428</ele><time>2026-04-05T08:25:45.665Z</time></trkpt><trkpt lat="39.7876" lon="-0.2914633"><ele>182.14285714285714</ele><time>2026-04-05T08:25:46.664Z</time></trkpt><trkpt lat="39.7875883" lon="-0.2913717"><ele>182.0</ele><time>2026-04-05T08:25:47.664Z</time></trkpt><trkpt lat="39.7875783" lon="-0.2912817"><ele>180.6</ele><time>2026-04-05T08:25:48.664Z</time></trkpt><trkpt lat="39.7875783" lon="-0.2911967"><ele>179.2</ele><time>2026-04-05T08:25:49.664Z</time></trkpt><trkpt lat="39.787585" lon="-0.29104"><ele>177.8</ele><time>2026-04-05T08:25:51.664Z</time></trkpt><trkpt lat="39.7876033" lon="-0.2908883"><ele>176.4</ele><time>2026-04-05T08:25:53.664Z</time></trkpt><trkpt lat="39.7876283" lon="-0.2907467"><ele>175.0</ele><time>2026-04-05T08:25:55.664Z</time></trkpt><trkpt lat="39.787635" lon="-0.2905933"><ele>174.6</ele><time>2026-04-05T08:25:57.664Z</time></trkpt><trkpt lat="39.78764" lon="-0.2904367"><ele>174.2</ele><time>2026-04-05T08:25:59.664Z</time></trkpt><trkpt lat="39.787635" lon="-0.2903533"><ele>173.8</ele><time>2026-04-05T08:26:00.664Z</time></trkpt><trkpt lat="39.7876383" lon="-0.2902"><ele>173.4</ele><time>2026-04-05T08:26:02.664Z</time></trkpt><trkpt lat="39.78765" lon="-0.2901167"><ele>173.0</ele><time>2026-04-05T08:26:03.665Z</time></trkpt><trkpt lat="39.787655" lon="-0.2899683"><ele>173.0</ele><time>2026-04-05T08:26:05.664Z</time></trkpt><trkpt lat="39.78766" lon="-0.2898317"><ele>173.0</ele><time>2026-04-05T08:26:07.664Z</time></trkpt><trkpt lat="39.787645" lon="-0.289695"><ele>173.0</ele><time>2026-04-05T08:26:09.664Z</time></trkpt><trkpt lat="39.7876367" lon="-0.2895633"><ele>173.0</ele><time>2026-04-05T08:26:11.664Z</time></trkpt><trkpt lat="39.7876233" lon="-0.289425"><ele>173.0</ele><time>2026-04-05T08:26:13.664Z</time></trkpt><trkpt lat="39.787595" lon="-0.2893017"><ele>172.60000000000002</ele><time>2026-04-05T08:26:15.664Z</time></trkpt><trkpt lat="39.7875483" lon="-0.28918"><ele>172.20000000000002</ele><time>2026-04-05T08:26:17.664Z</time></trkpt><trkpt lat="39.7875133" lon="-0.28905"><ele>171.8</ele><time>2026-04-05T08:26:19.664Z</time></trkpt><trkpt lat="39.7874867" lon="-0.2889183"><ele>171.4</ele><time>2026-04-05T08:26:21.665Z</time></trkpt><trkpt lat="39.787475" lon="-0.2887867"><ele>171.0</ele><time>2026-04-05T08:26:23.665Z</time></trkpt><trkpt lat="39.7874783" lon="-0.2886433"><ele>170.83333333333334</ele><time>2026-04-05T08:26:25.664Z</time></trkpt><trkpt lat="39.7874983" lon="-0.2885033"><ele>170.66666666666666</ele><time>2026-04-05T08:26:27.664Z</time></trkpt><trkpt lat="39.7875383" lon="-0.288375"><ele>170.5</ele><time>2026-04-05T08:26:29.664Z</time></trkpt><trkpt lat="39.7875583" lon="-0.2882967"><ele>170.33333333333331</ele><time>2026-04-05T08:26:30.664Z</time></trkpt><trkpt lat="39.7875783" lon="-0.2882183"><ele>170.16666666666666</ele><time>2026-04-05T08:26:31.664Z</time></trkpt><trkpt lat="39.7875917" lon="-0.288125"><ele>170.0</ele><time>2026-04-05T08:26:32.664Z</time></trkpt><trkpt lat="39.787595" lon="-0.288025"><ele>169.33333333333331</ele><time>2026-04-05T08:26:33.664Z</time></trkpt><trkpt lat="39.78759" lon="-0.2879267"><ele>168.66666666666666</ele><time>2026-04-05T08:26:34.664Z</time></trkpt><trkpt lat="39.7875867" lon="-0.287825"><ele>168.0</ele><time>2026-04-05T08:26:35.664Z</time></trkpt><trkpt lat="39.78758" lon="-0.2877183"><ele>167.33333333333334</ele><time>2026-04-05T08:26:36.664Z</time></trkpt><trkpt lat="39.7875717" lon="-0.2876083"><ele>166.66666666666669</ele><time>2026-04-05T08:26:37.664Z</time></trkpt><trkpt lat="39.7875683" lon="-0.2874983"><ele>166.0</ele><time>2026-04-05T08:26:38.664Z</time></trkpt><trkpt lat="39.787575" lon="-0.28739"><ele>166.0</ele><time>2026-04-05T08:26:39.665Z</time></trkpt><trkpt lat="39.78759" lon="-0.28729"><ele>166.0</ele><time>2026-04-05T08:26:40.664Z</time></trkpt><trkpt lat="39.7876183" lon="-0.2871983"><ele>166.0</ele><time>2026-04-05T08:26:41.664Z</time></trkpt><trkpt lat="39.7876517" lon="-0.2871117"><ele>166.0</ele><time>2026-04-05T08:26:42.664Z</time></trkpt><trkpt lat="39.7876817" lon="-0.2870283"><ele>166.0</ele><time>2026-04-05T08:26:43.664Z</time></trkpt><trkpt lat="39.78771" lon="-0.28695"><ele>166.0</ele><time>2026-04-05T08:26:44.665Z</time></trkpt><trkpt lat="39.78774" lon="-0.286875"><ele>166.0</ele><time>2026-04-05T08:26:45.664Z</time></trkpt><trkpt lat="39.7877883" lon="-0.2867267"><ele>166.5</ele><time>2026-04-05T08:26:47.664Z</time></trkpt><trkpt lat="39.7878333" lon="-0.28658"><ele>167.0</ele><time>2026-04-05T08:26:49.664Z</time></trkpt><trkpt lat="39.78787" lon="-0.2864383"><ele>167.5</ele><time>2026-04-05T08:26:51.665Z</time></trkpt><trkpt lat="39.78791" lon="-0.2862867"><ele>168.0</ele><time>2026-04-05T08:26:53.664Z</time></trkpt><trkpt lat="39.7879483" lon="-0.2861383"><ele>167.4</ele><time>2026-04-05T08:26:55.664Z</time></trkpt><trkpt lat="39.787985" lon="-0.2859817"><ele>166.8</ele><time>2026-04-05T08:26:57.664Z</time></trkpt><trkpt lat="39.7880133" lon="-0.285815"><ele>166.2</ele><time>2026-04-05T08:26:59.664Z</time></trkpt><trkpt lat="39.78802" lon="-0.2857233"><ele>165.6</ele><time>2026-04-05T08:27:00.665Z</time></trkpt><trkpt lat="39.7880267" lon="-0.2856367"><ele>165.0</ele><time>2026-04-05T08:27:01.665Z</time></trkpt><trkpt lat="39.7880317" lon="-0.2855517"><ele>165.0</ele><time>2026-04-05T08:27:02.664Z</time></trkpt><trkpt lat="39.788035" lon="-0.285465"><ele>165.0</ele><time>2026-04-05T08:27:03.664Z</time></trkpt><trkpt lat="39.7880367" lon="-0.2853783"><ele>165.0</ele><time>2026-04-05T08:27:04.664Z</time></trkpt><trkpt lat="39.78803" lon="-0.2852333"><ele>165.0</ele><time>2026-04-05T08:27:06.664Z</time></trkpt><trkpt lat="39.7880183" lon="-0.2851433"><ele>165.0</ele><time>2026-04-05T08:27:08.664Z</time></trkpt><trkpt lat="39.788015" lon="-0.2850533"><ele>165.0</ele><time>2026-04-05T08:27:10.664Z</time></trkpt><trkpt lat="39.788005" lon="-0.2849683"><ele>165.0</ele><time>2026-04-05T08:27:12.664Z</time></trkpt><trkpt lat="39.7879783" lon="-0.284855"><ele>165.0</ele><time>2026-04-05T08:27:15.664Z</time></trkpt><trkpt lat="39.7879517" lon="-0.28474"><ele>165.0</ele><time>2026-04-05T08:27:18.664Z</time></trkpt><trkpt lat="39.78794" lon="-0.2846583"><ele>165.0</ele><time>2026-04-05T08:27:20.664Z</time></trkpt><trkpt lat="39.7879333" lon="-0.28454"><ele>165.0</ele><time>2026-04-05T08:27:23.664Z</time></trkpt><trkpt lat="39.7879283" lon="-0.2844383"><ele>165.0</ele><time>2026-04-05T08:27:25.664Z</time></trkpt><trkpt lat="39.78792" lon="-0.2843333"><ele>165.16666666666666</ele><time>2026-04-05T08:27:27.664Z</time></trkpt><trkpt lat="39.7879167" lon="-0.2842367"><ele>165.33333333333334</ele><time>2026-04-05T08:27:29.665Z</time></trkpt><trkpt lat="39.7879183" lon="-0.2841383"><ele>165.5</ele><time>2026-04-05T08:27:31.664Z</time></trkpt><trkpt lat="39.7879167" lon="-0.2840383"><ele>165.66666666666669</ele><time>2026-04-05T08:27:33.664Z</time></trkpt><trkpt lat="39.7879233" lon="-0.2839383"><ele>165.83333333333334</ele><time>2026-04-05T08:27:35.664Z</time></trkpt><trkpt lat="39.7879367" lon="-0.2838317"><ele>166.0</ele><time>2026-04-05T08:27:37.664Z</time></trkpt><trkpt lat="39.7879583" lon="-0.2837233"><ele>165.66666666666669</ele><time>2026-04-05T08:27:39.665Z</time></trkpt><trkpt lat="39.7879833" lon="-0.2836133"><ele>165.33333333333334</ele><time>2026-04-05T08:27:41.664Z</time></trkpt><trkpt lat="39.7880083" lon="-0.2835167"><ele>165.0</ele><time>2026-04-05T08:27:43.664Z</time></trkpt><trkpt lat="39.7880667" lon="-0.2834533"><ele>164.66666666666666</ele><time>2026-04-05T08:27:45.664Z</time></trkpt><trkpt lat="39.7881333" lon="-0.2834083"><ele>164.33333333333331</ele><time>2026-04-05T08:27:47.664Z</time></trkpt><trkpt lat="39.7882083" lon="-0.2833533"><ele>164.0</ele><time>2026-04-05T08:27:49.665Z</time></trkpt><trkpt lat="39.7882717" lon="-0.28328"><ele>164.0</ele><time>2026-04-05T08:27:51.664Z</time></trkpt><trkpt lat="39.7883283" lon="-0.2832017"><ele>164.0</ele><time>2026-04-05T08:27:53.664Z</time></trkpt><trkpt lat="39.78838" lon="-0.2831083"><ele>164.0</ele><time>2026-04-05T08:27:55.664Z</time></trkpt><trkpt lat="39.7884367" lon="-0.2830117"><ele>164.0</ele><time>2026-04-05T08:27:57.664Z</time></trkpt><trkpt lat="39.7885" lon="-0.2829067"><ele>164.0</ele><time>2026-04-05T08:27:59.665Z</time></trkpt><trkpt lat="39.7885683" lon="-0.2828"><ele>164.0</ele><time>2026-04-05T08:28:01.664Z</time></trkpt><trkpt lat="39.788635" lon="-0.2827"><ele>164.0</ele><time>2026-04-05T08:28:03.665Z</time></trkpt><trkpt lat="39.7887167" lon="-0.28264"><ele>164.0</ele><time>2026-04-05T08:28:05.664Z</time></trkpt><trkpt lat="39.7887967" lon="-0.282625"><ele>164.0</ele><time>2026-04-05T08:28:07.664Z</time></trkpt><trkpt lat="39.7888733" lon="-0.2826717"><ele>164.0</ele><time>2026-04-05T08:28:09.664Z</time></trkpt><trkpt lat="39.7889483" lon="-0.2827267"><ele>164.0</ele><time>2026-04-05T08:28:11.664Z</time></trkpt><trkpt lat="39.7890233" lon="-0.2827533"><ele>164.0</ele><time>2026-04-05T08:28:13.664Z</time></trkpt><trkpt lat="39.7890917" lon="-0.2827467"><ele>164.0</ele><time>2026-04-05T08:28:15.665Z</time></trkpt><trkpt lat="39.7891483" lon="-0.2827"><ele>164.0</ele><time>2026-04-05T08:28:17.664Z</time></trkpt><trkpt lat="39.7892283" lon="-0.2826317"><ele>164.0</ele><time>2026-04-05T08:28:20.664Z</time></trkpt><trkpt lat="39.7893083" lon="-0.2825817"><ele>164.0</ele><time>2026-04-05T08:28:23.664Z</time></trkpt><trkpt lat="39.789375" lon="-0.2825633"><ele>164.0</ele><time>2026-04-05T08:28:25.664Z</time></trkpt><trkpt lat="39.789445" lon="-0.28256"><ele>164.5</ele><time>2026-04-05T08:28:27.664Z</time></trkpt><trkpt lat="39.7895267" lon="-0.2825533"><ele>165.0</ele><time>2026-04-05T08:28:29.665Z</time></trkpt><trkpt lat="39.7896017" lon="-0.282565"><ele>165.5</ele><time>2026-04-05T08:28:31.664Z</time></trkpt><trkpt lat="39.7896783" lon="-0.2825767"><ele>166.0</ele><time>2026-04-05T08:28:33.664Z</time></trkpt><trkpt lat="39.7897567" lon="-0.2825867"><ele>166.5</ele><time>2026-04-05T08:28:35.665Z</time></trkpt><trkpt lat="39.78983" lon="-0.2826"><ele>167.0</ele><time>2026-04-05T08:28:37.664Z</time></trkpt><trkpt lat="39.7899" lon="-0.2826117"><ele>167.0</ele><time>2026-04-05T08:28:39.664Z</time></trkpt><trkpt lat="39.78997" lon="-0.2826217"><ele>167.0</ele><time>2026-04-05T08:28:41.664Z</time></trkpt><trkpt lat="39.7900467" lon="-0.282635"><ele>167.0</ele><time>2026-04-05T08:28:44.664Z</time></trkpt><trkpt lat="39.7901183" lon="-0.2826683"><ele>167.0</ele><time>2026-04-05T08:28:48.664Z</time></trkpt><trkpt lat="39.7901917" lon="-0.2827283"><ele>167.0</ele><time>2026-04-05T08:28:52.665Z</time></trkpt><trkpt lat="39.7902633" lon="-0.2827817"><ele>167.0</ele><time>2026-04-05T08:28:55.664Z</time></trkpt><trkpt lat="39.790345" lon="-0.282845"><ele>166.83333333333331</ele><time>2026-04-05T08:28:58.665Z</time></trkpt><trkpt lat="39.79041" lon="-0.282915"><ele>166.66666666666666</ele><time>2026-04-05T08:29:01.664Z</time></trkpt><trkpt lat="39.7904783" lon="-0.282985"><ele>166.5</ele><time>2026-04-05T08:29:04.665Z</time></trkpt><trkpt lat="39.7905317" lon="-0.28303"><ele>166.33333333333334</ele><time>2026-04-05T08:29:06.664Z</time></trkpt><trkpt lat="39.7905983" lon="-0.28311"><ele>166.16666666666669</ele><time>2026-04-05T08:29:09.664Z</time></trkpt><trkpt lat="39.7906833" lon="-0.2831817"><ele>166.0</ele><time>2026-04-05T08:29:12.665Z</time></trkpt><trkpt lat="39.7907633" lon="-0.283225"><ele>166.60000000000002</ele><time>2026-04-05T08:29:14.664Z</time></trkpt><trkpt lat="39.7908483" lon="-0.28326"><ele>167.2</ele><time>2026-04-05T08:29:16.664Z</time></trkpt><trkpt lat="39.7909333" lon="-0.2832983"><ele>167.8</ele><time>2026-04-05T08:29:18.665Z</time></trkpt><trkpt lat="39.7910183" lon="-0.283325"><ele>168.39999999999998</ele><time>2026-04-05T08:29:20.664Z</time></trkpt><trkpt lat="39.7911083" lon="-0.2833317"><ele>169.0</ele><time>2026-04-05T08:29:22.664Z</time></trkpt><trkpt lat="39.7912017" lon="-0.2833433"><ele>169.2</ele><time>2026-04-05T08:29:24.664Z</time></trkpt><trkpt lat="39.791305" lon="-0.28334"><ele>169.39999999999998</ele><time>2026-04-05T08:29:26.664Z</time></trkpt><trkpt lat="39.7913983" lon="-0.2833267"><ele>169.6</ele><time>2026-04-05T08:29:28.664Z</time></trkpt><trkpt lat="39.79149" lon="-0.283325"><ele>169.8</ele><time>2026-04-05T08:29:30.664Z</time></trkpt><trkpt lat="39.7915783" lon="-0.2833433"><ele>170.0</ele><time>2026-04-05T08:29:32.664Z</time></trkpt><trkpt lat="39.7916617" lon="-0.28338"><ele>170.0</ele><time>2026-04-05T08:29:34.664Z</time></trkpt><trkpt lat="39.7917383" lon="-0.2834333"><ele>170.0</ele><time>2026-04-05T08:29:36.664Z</time></trkpt><trkpt lat="39.7917967" lon="-0.2835083"><ele>170.0</ele><time>2026-04-05T08:29:38.664Z</time></trkpt><trkpt lat="39.7918333" lon="-0.283595"><ele>170.0</ele><time>2026-04-05T08:29:40.664Z</time></trkpt><trkpt lat="39.7918683" lon="-0.28369"><ele>170.0</ele><time>2026-04-05T08:29:42.664Z</time></trkpt><trkpt lat="39.7919017" lon="-0.28379"><ele>170.0</ele><time>2026-04-05T08:29:44.665Z</time></trkpt><trkpt lat="39.7919367" lon="-0.2838667"><ele>170.5</ele><time>2026-04-05T08:29:46.664Z</time></trkpt><trkpt lat="39.792005" lon="-0.2839317"><ele>171.0</ele><time>2026-04-05T08:29:49.664Z</time></trkpt><trkpt lat="39.79208" lon="-0.2839167"><ele>171.5</ele><time>2026-04-05T08:29:51.664Z</time></trkpt><trkpt lat="39.79216" lon="-0.2839"><ele>172.0</ele><time>2026-04-05T08:29:53.664Z</time></trkpt><trkpt lat="39.7922233" lon="-0.2839383"><ele>172.5</ele><time>2026-04-05T08:29:55.665Z</time></trkpt><trkpt lat="39.7922733" lon="-0.2840117"><ele>173.0</ele><time>2026-04-05T08:29:57.664Z</time></trkpt><trkpt lat="39.7923117" lon="-0.28408"><ele>173.0</ele><time>2026-04-05T08:29:59.665Z</time></trkpt><trkpt lat="39.7923583" lon="-0.284175"><ele>173.0</ele><time>2026-04-05T08:30:02.664Z</time></trkpt><trkpt lat="39.7924067" lon="-0.2842583"><ele>173.0</ele><time>2026-04-05T08:30:05.664Z</time></trkpt><trkpt lat="39.7924617" lon="-0.28432"><ele>173.0</ele><time>2026-04-05T08:30:08.664Z</time></trkpt><trkpt lat="39.7925067" lon="-0.2843917"><ele>173.0</ele><time>2026-04-05T08:30:11.664Z</time></trkpt><trkpt lat="39.7925517" lon="-0.2844617"><ele>173.0</ele><time>2026-04-05T08:30:14.665Z</time></trkpt><trkpt lat="39.7925917" lon="-0.2845467"><ele>173.0</ele><time>2026-04-05T08:30:17.664Z</time></trkpt><trkpt lat="39.79265" lon="-0.2846217"><ele>173.0</ele><time>2026-04-05T08:30:20.664Z</time></trkpt><trkpt lat="39.792705" lon="-0.284705"><ele>173.0</ele><time>2026-04-05T08:30:23.664Z</time></trkpt><trkpt lat="39.7927467" lon="-0.2847867"><ele>173.0</ele><time>2026-04-05T08:30:26.664Z</time></trkpt><trkpt lat="39.7927867" lon="-0.28486"><ele>173.0</ele><time>2026-04-05T08:30:29.664Z</time></trkpt><trkpt lat="39.7928133" lon="-0.2849433"><ele>173.0</ele><time>2026-04-05T08:30:32.664Z</time></trkpt><trkpt lat="39.7928317" lon="-0.2850383"><ele>174.28571428571428</ele><time>2026-04-05T08:30:35.664Z</time></trkpt><trkpt lat="39.792855" lon="-0.2851333"><ele>175.57142857142858</ele><time>2026-04-05T08:30:38.664Z</time></trkpt><trkpt lat="39.7928733" lon="-0.285225"><ele>176.85714285714286</ele><time>2026-04-05T08:30:41.664Z</time></trkpt><trkpt lat="39.79289" lon="-0.2853167"><ele>178.14285714285714</ele><time>2026-04-05T08:30:44.664Z</time></trkpt><trkpt lat="39.7929033" lon="-0.2854133"><ele>179.42857142857144</ele><time>2026-04-05T08:30:47.664Z</time></trkpt><trkpt lat="39.7929217" lon="-0.285495"><ele>180.71428571428572</ele><time>2026-04-05T08:30:50.664Z</time></trkpt><trkpt lat="39.79295" lon="-0.2855767"><ele>182.0</ele><time>2026-04-05T08:30:53.665Z</time></trkpt><trkpt lat="39.7929833" lon="-0.285655"><ele>182.66666666666666</ele><time>2026-04-05T08:30:56.665Z</time></trkpt><trkpt lat="39.7930233" lon="-0.2857383"><ele>183.33333333333331</ele><time>2026-04-05T08:30:59.664Z</time></trkpt><trkpt lat="39.7930667" lon="-0.2858067"><ele>184.0</ele><time>2026-04-05T08:31:02.665Z</time></trkpt><trkpt lat="39.7931083" lon="-0.2858833"><ele>184.66666666666666</ele><time>2026-04-05T08:31:05.664Z</time></trkpt><trkpt lat="39.793145" lon="-0.2859833"><ele>185.33333333333334</ele><time>2026-04-05T08:31:08.664Z</time></trkpt><trkpt lat="39.79318" lon="-0.2860817"><ele>186.0</ele><time>2026-04-05T08:31:11.664Z</time></trkpt><trkpt lat="39.7932233" lon="-0.2861567"><ele>186.00000000000003</ele><time>2026-04-05T08:31:14.664Z</time></trkpt><trkpt lat="39.793255" lon="-0.2862283"><ele>186.0</ele><time>2026-04-05T08:31:17.664Z</time></trkpt><trkpt lat="39.7933017" lon="-0.2863083"><ele>186.0</ele><time>2026-04-05T08:31:21.665Z</time></trkpt><trkpt lat="39.79335" lon="-0.2863633"><ele>186.0</ele><time>2026-04-05T08:31:24.664Z</time></trkpt><trkpt lat="39.7934" lon="-0.2864233"><ele>186.0</ele><time>2026-04-05T08:31:27.664Z</time></trkpt><trkpt lat="39.7934467" lon="-0.28649"><ele>186.00000000000003</ele><time>2026-04-05T08:31:30.664Z</time></trkpt><trkpt lat="39.7934917" lon="-0.2865583"><ele>186.0</ele><time>2026-04-05T08:31:33.664Z</time></trkpt><trkpt lat="39.7935333" lon="-0.2866233"><ele>186.83333333333334</ele><time>2026-04-05T08:31:36.664Z</time></trkpt><trkpt lat="39.7935767" lon="-0.28671"><ele>187.66666666666666</ele><time>2026-04-05T08:31:39.664Z</time></trkpt><trkpt lat="39.7936133" lon="-0.2868117"><ele>188.5</ele><time>2026-04-05T08:31:42.664Z</time></trkpt><trkpt lat="39.7936467" lon="-0.28692"><ele>189.33333333333331</ele><time>2026-04-05T08:31:45.664Z</time></trkpt><trkpt lat="39.7937083" lon="-0.2870133"><ele>190.16666666666666</ele><time>2026-04-05T08:31:48.664Z</time></trkpt><trkpt lat="39.7937567" lon="-0.2870683"><ele>191.0</ele><time>2026-04-05T08:31:50.664Z</time></trkpt><trkpt lat="39.7938267" lon="-0.2871383"><ele>191.0</ele><time>2026-04-05T08:31:53.664Z</time></trkpt><trkpt lat="39.7939" lon="-0.2872067"><ele>191.0</ele><time>2026-04-05T08:31:56.664Z</time></trkpt><trkpt lat="39.7939583" lon="-0.287285"><ele>191.0</ele><time>2026-04-05T08:31:59.664Z</time></trkpt><trkpt lat="39.7940183" lon="-0.2873383"><ele>191.0</ele><time>2026-04-05T08:32:02.665Z</time></trkpt><trkpt lat="39.79409" lon="-0.2873783"><ele>191.0</ele><time>2026-04-05T08:32:05.664Z</time></trkpt><trkpt lat="39.7941633" lon="-0.28742"><ele>191.0</ele><time>2026-04-05T08:32:08.664Z</time></trkpt><trkpt lat="39.7942433" lon="-0.2874667"><ele>191.66666666666666</ele><time>2026-04-05T08:32:11.665Z</time></trkpt><trkpt lat="39.7943183" lon="-0.2875267"><ele>192.33333333333331</ele><time>2026-04-05T08:32:14.664Z</time></trkpt><trkpt lat="39.79438" lon="-0.2876133"><ele>193.0</ele><time>2026-04-05T08:32:17.664Z</time></trkpt><trkpt lat="39.7944283" lon="-0.2876833"><ele>193.66666666666666</ele><time>2026-04-05T08:32:19.665Z</time></trkpt><trkpt lat="39.794475" lon="-0.2877767"><ele>194.33333333333334</ele><time>2026-04-05T08:32:21.665Z</time></trkpt><trkpt lat="39.79451" lon="-0.2878933"><ele>195.0</ele><time>2026-04-05T08:32:23.665Z</time></trkpt><trkpt lat="39.7945367" lon="-0.2880083"><ele>196.66666666666666</ele><time>2026-04-05T08:32:25.665Z</time></trkpt><trkpt lat="39.7945717" lon="-0.2881217"><ele>198.33333333333331</ele><time>2026-04-05T08:32:27.664Z</time></trkpt><trkpt lat="39.7946033" lon="-0.2882333"><ele>200.0</ele><time>2026-04-05T08:32:29.664Z</time></trkpt><trkpt lat="39.7946317" lon="-0.2883467"><ele>201.66666666666666</ele><time>2026-04-05T08:32:31.664Z</time></trkpt><trkpt lat="39.794655" lon="-0.288445"><ele>203.33333333333331</ele><time>2026-04-05T08:32:33.664Z</time></trkpt><trkpt lat="39.79468" lon="-0.2885283"><ele>205.0</ele><time>2026-04-05T08:32:35.664Z</time></trkpt><trkpt lat="39.7946967" lon="-0.2886083"><ele>204.99999999999997</ele><time>2026-04-05T08:32:37.664Z</time></trkpt><trkpt lat="39.79472" lon="-0.2887117"><ele>205.0</ele><time>2026-04-05T08:32:40.665Z</time></trkpt><trkpt lat="39.7947383" lon="-0.2888317"><ele>205.0</ele><time>2026-04-05T08:32:43.664Z</time></trkpt><trkpt lat="39.79478" lon="-0.2889333"><ele>205.0</ele><time>2026-04-05T08:32:46.664Z</time></trkpt><trkpt lat="39.7948367" lon="-0.2889767"><ele>204.99999999999997</ele><time>2026-04-05T08:32:48.664Z</time></trkpt><trkpt lat="39.7949033" lon="-0.2889767"><ele>205.0</ele><time>2026-04-05T08:32:50.664Z</time></trkpt><trkpt lat="39.79497" lon="-0.28896"><ele>204.99999999999997</ele><time>2026-04-05T08:32:52.664Z</time></trkpt><trkpt lat="39.7950633" lon="-0.2889383"><ele>205.0</ele><time>2026-04-05T08:32:55.664Z</time></trkpt><trkpt lat="39.7951317" lon="-0.2889367"><ele>205.0</ele><time>2026-04-05T08:32:57.664Z</time></trkpt><trkpt lat="39.7951933" lon="-0.2889633"><ele>205.0</ele><time>2026-04-05T08:32:59.664Z</time></trkpt><trkpt lat="39.79525" lon="-0.289015"><ele>204.99999999999997</ele><time>2026-04-05T08:33:01.664Z</time></trkpt><trkpt lat="39.7953083" lon="-0.2891067"><ele>205.0</ele><time>2026-04-05T08:33:04.664Z</time></trkpt><trkpt lat="39.7953617" lon="-0.2891967"><ele>206.49999999999997</ele><time>2026-04-05T08:33:07.665Z</time></trkpt><trkpt lat="39.7953967" lon="-0.2892767"><ele>208.0</ele><time>2026-04-05T08:33:10.664Z</time></trkpt><trkpt lat="39.795435" lon="-0.2893583"><ele>209.5</ele><time>2026-04-05T08:33:13.664Z</time></trkpt><trkpt lat="39.7954967" lon="-0.2894267"><ele>211.0</ele><time>2026-04-05T08:33:16.664Z</time></trkpt><trkpt lat="39.79557" lon="-0.2894817"><ele>212.49999999999997</ele><time>2026-04-05T08:33:19.664Z</time></trkpt><trkpt lat="39.7956533" lon="-0.2895267"><ele>214.0</ele><time>2026-04-05T08:33:22.664Z</time></trkpt><trkpt lat="39.7957367" lon="-0.28955"><ele>214.00000000000003</ele><time>2026-04-05T08:33:25.664Z</time></trkpt><trkpt lat="39.7958133" lon="-0.289535"><ele>214.0</ele><time>2026-04-05T08:33:28.664Z</time></trkpt><trkpt lat="39.79588" lon="-0.289495"><ele>214.0</ele><time>2026-04-05T08:33:31.664Z</time></trkpt><trkpt lat="39.7959433" lon="-0.2894417"><ele>214.0</ele><time>2026-04-05T08:33:34.664Z</time></trkpt><trkpt lat="39.79602" lon="-0.2894217"><ele>214.0</ele><time>2026-04-05T08:33:37.664Z</time></trkpt><trkpt lat="39.7960867" lon="-0.289435"><ele>214.00000000000003</ele><time>2026-04-05T08:33:39.664Z</time></trkpt><trkpt lat="39.7961633" lon="-0.28945"><ele>214.0</ele><time>2026-04-05T08:33:41.664Z</time></trkpt><trkpt lat="39.7962417" lon="-0.2894417"><ele>214.66666666666666</ele><time>2026-04-05T08:33:44.664Z</time></trkpt><trkpt lat="39.7963067" lon="-0.2894117"><ele>215.33333333333331</ele><time>2026-04-05T08:33:46.664Z</time></trkpt><trkpt lat="39.79638" lon="-0.289375"><ele>216.0</ele><time>2026-04-05T08:33:49.665Z</time></trkpt><trkpt lat="39.796445" lon="-0.289355"><ele>216.66666666666669</ele><time>2026-04-05T08:33:51.665Z</time></trkpt><trkpt lat="39.796525" lon="-0.289375"><ele>217.33333333333334</ele><time>2026-04-05T08:33:54.664Z</time></trkpt><trkpt lat="39.7966017" lon="-0.2894"><ele>218.0</ele><time>2026-04-05T08:33:57.664Z</time></trkpt><trkpt lat="39.796675" lon="-0.2894333"><ele>218.0</ele><time>2026-04-05T08:34:00.664Z</time></trkpt><trkpt lat="39.7967517" lon="-0.2894683"><ele>218.0</ele><time>2026-04-05T08:34:03.664Z</time></trkpt><trkpt lat="39.7968167" lon="-0.2895"><ele>218.0</ele><time>2026-04-05T08:34:05.665Z</time></trkpt><trkpt lat="39.7968917" lon="-0.289535"><ele>218.0</ele><time>2026-04-05T08:34:08.664Z</time></trkpt><trkpt lat="39.7969533" lon="-0.2895667"><ele>218.0</ele><time>2026-04-05T08:34:10.664Z</time></trkpt><trkpt lat="39.7970233" lon="-0.2895967"><ele>218.0</ele><time>2026-04-05T08:34:13.664Z</time></trkpt><trkpt lat="39.79709" lon="-0.2896233"><ele>218.0</ele><time>2026-04-05T08:34:16.665Z</time></trkpt><trkpt lat="39.7971517" lon="-0.28964"><ele>218.28571428571428</ele><time>2026-04-05T08:34:19.664Z</time></trkpt><trkpt lat="39.79723" lon="-0.2896717"><ele>218.57142857142858</ele><time>2026-04-05T08:34:22.664Z</time></trkpt><trkpt lat="39.7972883" lon="-0.2897383"><ele>218.85714285714283</ele><time>2026-04-05T08:34:26.664Z</time></trkpt><trkpt lat="39.7973433" lon="-0.289795"><ele>219.14285714285714</ele><time>2026-04-05T08:34:30.664Z</time></trkpt><trkpt lat="39.7974067" lon="-0.2898283"><ele>219.42857142857142</ele><time>2026-04-05T08:34:33.664Z</time></trkpt><trkpt lat="39.797475" lon="-0.2898533"><ele>219.7142857142857</ele><time>2026-04-05T08:34:36.664Z</time></trkpt><trkpt lat="39.7975517" lon="-0.2898817"><ele>220.0</ele><time>2026-04-05T08:34:39.664Z</time></trkpt><trkpt lat="39.7976083" lon="-0.2899283"><ele>220.83333333333331</ele><time>2026-04-05T08:34:42.664Z</time></trkpt><trkpt lat="39.7976167" lon="-0.2900183"><ele>221.66666666666666</ele><time>2026-04-05T08:34:45.664Z</time></trkpt><trkpt lat="39.7975767" lon="-0.29012"><ele>222.5</ele><time>2026-04-05T08:34:48.665Z</time></trkpt><trkpt lat="39.7975483" lon="-0.2901983"><ele>223.33333333333331</ele><time>2026-04-05T08:34:50.664Z</time></trkpt><trkpt lat="39.7975117" lon="-0.2902767"><ele>224.16666666666666</ele><time>2026-04-05T08:34:52.665Z</time></trkpt><trkpt lat="39.7974767" lon="-0.2903617"><ele>225.0</ele><time>2026-04-05T08:34:54.664Z</time></trkpt><trkpt lat="39.797425" lon="-0.29045"><ele>225.0</ele><time>2026-04-05T08:34:56.664Z</time></trkpt><trkpt lat="39.79737" lon="-0.2905467"><ele>225.0</ele><time>2026-04-05T08:34:58.664Z</time></trkpt><trkpt lat="39.7973217" lon="-0.2906267"><ele>225.0</ele><time>2026-04-05T08:35:00.664Z</time></trkpt><trkpt lat="39.7972767" lon="-0.29071"><ele>225.0</ele><time>2026-04-05T08:35:03.664Z</time></trkpt><trkpt lat="39.797235" lon="-0.2907833"><ele>225.0</ele><time>2026-04-05T08:35:06.665Z</time></trkpt><trkpt lat="39.7972133" lon="-0.2908817"><ele>225.0</ele><time>2026-04-05T08:35:09.664Z</time></trkpt><trkpt lat="39.7972267" lon="-0.29098"><ele>226.33333333333334</ele><time>2026-04-05T08:35:12.664Z</time></trkpt><trkpt lat="39.7972933" lon="-0.2910433"><ele>227.66666666666669</ele><time>2026-04-05T08:35:15.664Z</time></trkpt><trkpt lat="39.797365" lon="-0.2910783"><ele>229.0</ele><time>2026-04-05T08:35:18.664Z</time></trkpt><trkpt lat="39.7974283" lon="-0.2911183"><ele>230.33333333333334</ele><time>2026-04-05T08:35:21.664Z</time></trkpt><trkpt lat="39.797495" lon="-0.2911717"><ele>231.66666666666669</ele><time>2026-04-05T08:35:24.664Z</time></trkpt><trkpt lat="39.7975583" lon="-0.2911967"><ele>233.0</ele><time>2026-04-05T08:35:27.664Z</time></trkpt><trkpt lat="39.7976383" lon="-0.291225"><ele>233.0</ele><time>2026-04-05T08:35:31.664Z</time></trkpt><trkpt lat="39.7977017" lon="-0.2912367"><ele>233.0</ele><time>2026-04-05T08:35:34.664Z</time></trkpt><trkpt lat="39.79777" lon="-0.2912617"><ele>233.0</ele><time>2026-04-05T08:35:38.664Z</time></trkpt><trkpt lat="39.797745" lon="-0.2912217"><ele>233.0</ele><time>2026-04-05T08:37:23.664Z</time></trkpt><trkpt lat="39.7976717" lon="-0.2912017"><ele>233.0</ele><time>2026-04-05T08:37:26.664Z</time></trkpt><trkpt lat="39.7975917" lon="-0.2911733"><ele>233.0</ele><time>2026-04-05T08:37:31.664Z</time></trkpt><trkpt lat="39.7975017" lon="-0.291135"><ele>233.0</ele><time>2026-04-05T08:37:34.665Z</time></trkpt><trkpt lat="39.7974183" lon="-0.2910633"><ele>233.00000000000003</ele><time>2026-04-05T08:37:37.664Z</time></trkpt><trkpt lat="39.79736" lon="-0.2910033"><ele>233.0</ele><time>2026-04-05T08:37:39.664Z</time></trkpt><trkpt lat="39.79732" lon="-0.2909017"><ele>233.0</ele><time>2026-04-05T08:37:42.664Z</time></trkpt><trkpt lat="39.7973183" lon="-0.2907867"><ele>233.0</ele><time>2026-04-05T08:37:45.664Z</time></trkpt><trkpt lat="39.7973567" lon="-0.2907"><ele>233.00000000000003</ele><time>2026-04-05T08:37:47.664Z</time></trkpt><trkpt lat="39.79742" lon="-0.290595"><ele>233.0</ele><time>2026-04-05T08:37:49.665Z</time></trkpt><trkpt lat="39.7974833" lon="-0.29047"><ele>231.66666666666669</ele><time>2026-04-05T08:37:51.664Z</time></trkpt><trkpt lat="39.7975483" lon="-0.2903333"><ele>230.33333333333334</ele><time>2026-04-05T08:37:53.664Z</time></trkpt><trkpt lat="39.7975783" lon="-0.2902517"><ele>229.0</ele><time>2026-04-05T08:37:54.664Z</time></trkpt><trkpt lat="39.7976017" lon="-0.290175"><ele>227.66666666666669</ele><time>2026-04-05T08:37:55.664Z</time></trkpt><trkpt lat="39.7976433" lon="-0.2900683"><ele>226.33333333333334</ele><time>2026-04-05T08:37:57.665Z</time></trkpt><trkpt lat="39.797645" lon="-0.2899767"><ele>225.0</ele><time>2026-04-05T08:37:59.664Z</time></trkpt><trkpt lat="39.7975733" lon="-0.2898783"><ele>225.0</ele><time>2026-04-05T08:38:01.665Z</time></trkpt><trkpt lat="39.7974583" lon="-0.2898283"><ele>225.0</ele><time>2026-04-05T08:38:03.664Z</time></trkpt><trkpt lat="39.7973383" lon="-0.2897517"><ele>225.0</ele><time>2026-04-05T08:38:05.665Z</time></trkpt><trkpt lat="39.7972783" lon="-0.2897033"><ele>225.0</ele><time>2026-04-05T08:38:06.665Z</time></trkpt><trkpt lat="39.79722" lon="-0.2896617"><ele>225.0</ele><time>2026-04-05T08:38:07.664Z</time></trkpt><trkpt lat="39.7971167" lon="-0.2896067"><ele>224.16666666666666</ele><time>2026-04-05T08:38:09.664Z</time></trkpt><trkpt lat="39.797" lon="-0.2895667"><ele>223.33333333333331</ele><time>2026-04-05T08:38:11.664Z</time></trkpt><trkpt lat="39.7969383" lon="-0.2895367"><ele>222.5</ele><time>2026-04-05T08:38:12.664Z</time></trkpt><trkpt lat="39.796875" lon="-0.2895067"><ele>221.66666666666666</ele><time>2026-04-05T08:38:13.664Z</time></trkpt><trkpt lat="39.796815" lon="-0.2894783"><ele>220.83333333333331</ele><time>2026-04-05T08:38:14.664Z</time></trkpt><trkpt lat="39.796755" lon="-0.2894517"><ele>220.0</ele><time>2026-04-05T08:38:15.664Z</time></trkpt><trkpt lat="39.79664" lon="-0.2894017"><ele>219.6</ele><time>2026-04-05T08:38:17.664Z</time></trkpt><trkpt lat="39.7965417" lon="-0.2893517"><ele>219.2</ele><time>2026-04-05T08:38:19.664Z</time></trkpt><trkpt lat="39.7964433" lon="-0.2893283"><ele>218.8</ele><time>2026-04-05T08:38:21.664Z</time></trkpt><trkpt lat="39.7963383" lon="-0.2893383"><ele>218.4</ele><time>2026-04-05T08:38:23.664Z</time></trkpt><trkpt lat="39.7962267" lon="-0.28937"><ele>218.0</ele><time>2026-04-05T08:38:25.665Z</time></trkpt><trkpt lat="39.7961017" lon="-0.2893667"><ele>218.00000000000003</ele><time>2026-04-05T08:38:27.664Z</time></trkpt><trkpt lat="39.7960383" lon="-0.2893683"><ele>218.0</ele><time>2026-04-05T08:38:28.664Z</time></trkpt><trkpt lat="39.7959217" lon="-0.2893917"><ele>218.0</ele><time>2026-04-05T08:38:30.664Z</time></trkpt><trkpt lat="39.79586" lon="-0.289425"><ele>218.0</ele><time>2026-04-05T08:38:31.665Z</time></trkpt><trkpt lat="39.7958" lon="-0.2894517"><ele>218.00000000000003</ele><time>2026-04-05T08:38:32.664Z</time></trkpt><trkpt lat="39.7956833" lon="-0.2894817"><ele>218.0</ele><time>2026-04-05T08:38:34.664Z</time></trkpt><trkpt lat="39.7955783" lon="-0.289445"><ele>217.33333333333334</ele><time>2026-04-05T08:38:36.664Z</time></trkpt><trkpt lat="39.795485" lon="-0.2893467"><ele>216.66666666666669</ele><time>2026-04-05T08:38:38.664Z</time></trkpt><trkpt lat="39.7954417" lon="-0.2892833"><ele>216.0</ele><time>2026-04-05T08:38:39.664Z</time></trkpt><trkpt lat="39.7953983" lon="-0.28922"><ele>215.33333333333331</ele><time>2026-04-05T08:38:40.664Z</time></trkpt><trkpt lat="39.7953517" lon="-0.2891483"><ele>214.66666666666666</ele><time>2026-04-05T08:38:41.664Z</time></trkpt><trkpt lat="39.7953067" lon="-0.289075"><ele>214.0</ele><time>2026-04-05T08:38:42.664Z</time></trkpt><trkpt lat="39.7952617" lon="-0.2890083"><ele>215.39999999999998</ele><time>2026-04-05T08:38:43.664Z</time></trkpt><trkpt lat="39.7951733" lon="-0.2889183"><ele>216.79999999999998</ele><time>2026-04-05T08:38:45.664Z</time></trkpt><trkpt lat="39.7950683" lon="-0.2889083"><ele>218.20000000000002</ele><time>2026-04-05T08:38:47.665Z</time></trkpt><trkpt lat="39.7949567" lon="-0.2889433"><ele>219.60000000000002</ele><time>2026-04-05T08:38:49.664Z</time></trkpt><trkpt lat="39.79485" lon="-0.288955"><ele>221.0</ele><time>2026-04-05T08:38:51.664Z</time></trkpt><trkpt lat="39.7947717" lon="-0.288935"><ele>217.8</ele><time>2026-04-05T08:38:53.664Z</time></trkpt><trkpt lat="39.79473" lon="-0.2888517"><ele>214.60000000000002</ele><time>2026-04-05T08:38:55.664Z</time></trkpt><trkpt lat="39.7947217" lon="-0.28872"><ele>211.4</ele><time>2026-04-05T08:38:57.664Z</time></trkpt><trkpt lat="39.7947033" lon="-0.288585"><ele>208.2</ele><time>2026-04-05T08:38:59.664Z</time></trkpt><trkpt lat="39.7946683" lon="-0.288445"><ele>205.0</ele><time>2026-04-05T08:39:01.664Z</time></trkpt><trkpt lat="39.79463" lon="-0.2882883"><ele>205.0</ele><time>2026-04-05T08:39:03.664Z</time></trkpt><trkpt lat="39.7946117" lon="-0.2882067"><ele>205.0</ele><time>2026-04-05T08:39:04.664Z</time></trkpt><trkpt lat="39.7945733" lon="-0.2880517"><ele>205.0</ele><time>2026-04-05T08:39:06.665Z</time></trkpt><trkpt lat="39.7945533" lon="-0.2879717"><ele>205.0</ele><time>2026-04-05T08:39:07.664Z</time></trkpt><trkpt lat="39.7945217" lon="-0.287825"><ele>205.0</ele><time>2026-04-05T08:39:09.664Z</time></trkpt><trkpt lat="39.7944683" lon="-0.2877"><ele>204.4</ele><time>2026-04-05T08:39:11.664Z</time></trkpt><trkpt lat="39.794395" lon="-0.2875933"><ele>203.8</ele><time>2026-04-05T08:39:13.664Z</time></trkpt><trkpt lat="39.7943167" lon="-0.287515"><ele>203.2</ele><time>2026-04-05T08:39:15.664Z</time></trkpt><trkpt lat="39.7942267" lon="-0.2874483"><ele>202.6</ele><time>2026-04-05T08:39:17.664Z</time></trkpt><trkpt lat="39.7941267" lon="-0.2873983"><ele>202.0</ele><time>2026-04-05T08:39:19.664Z</time></trkpt><trkpt lat="39.7940183" lon="-0.2873267"><ele>200.16666666666666</ele><time>2026-04-05T08:39:21.665Z</time></trkpt><trkpt lat="39.793915" lon="-0.28723"><ele>198.33333333333331</ele><time>2026-04-05T08:39:23.664Z</time></trkpt><trkpt lat="39.7938633" lon="-0.287175"><ele>196.5</ele><time>2026-04-05T08:39:24.664Z</time></trkpt><trkpt lat="39.7938117" lon="-0.2871183"><ele>194.66666666666666</ele><time>2026-04-05T08:39:25.664Z</time></trkpt><trkpt lat="39.79376" lon="-0.2870583"><ele>192.83333333333331</ele><time>2026-04-05T08:39:26.664Z</time></trkpt><trkpt lat="39.7937067" lon="-0.2869967"><ele>191.0</ele><time>2026-04-05T08:39:27.664Z</time></trkpt><trkpt lat="39.793665" lon="-0.2869317"><ele>191.0</ele><time>2026-04-05T08:39:28.664Z</time></trkpt><trkpt lat="39.7936267" lon="-0.2868583"><ele>191.0</ele><time>2026-04-05T08:39:29.665Z</time></trkpt><trkpt lat="39.7935917" lon="-0.2867883"><ele>191.0</ele><time>2026-04-05T08:39:30.665Z</time></trkpt><trkpt lat="39.79356" lon="-0.2867067"><ele>191.0</ele><time>2026-04-05T08:39:31.664Z</time></trkpt><trkpt lat="39.793525" lon="-0.2866317"><ele>191.0</ele><time>2026-04-05T08:39:32.664Z</time></trkpt><trkpt lat="39.7934817" lon="-0.2865583"><ele>191.0</ele><time>2026-04-05T08:39:33.664Z</time></trkpt><trkpt lat="39.7934367" lon="-0.2864867"><ele>191.0</ele><time>2026-04-05T08:39:34.664Z</time></trkpt><trkpt lat="39.7933933" lon="-0.2864233"><ele>190.16666666666666</ele><time>2026-04-05T08:39:35.664Z</time></trkpt><trkpt lat="39.793325" lon="-0.286295"><ele>189.33333333333331</ele><time>2026-04-05T08:39:37.665Z</time></trkpt><trkpt lat="39.7932867" lon="-0.2862283"><ele>188.5</ele><time>2026-04-05T08:39:38.665Z</time></trkpt><trkpt lat="39.7932467" lon="-0.2861583"><ele>187.66666666666666</ele><time>2026-04-05T08:39:39.664Z</time></trkpt><trkpt lat="39.7932067" lon="-0.28608"><ele>186.83333333333334</ele><time>2026-04-05T08:39:40.664Z</time></trkpt><trkpt lat="39.7931683" lon="-0.286005"><ele>186.0</ele><time>2026-04-05T08:39:41.664Z</time></trkpt><trkpt lat="39.7931367" lon="-0.28593"><ele>186.0</ele><time>2026-04-05T08:39:42.665Z</time></trkpt><trkpt lat="39.793065" lon="-0.2858"><ele>186.0</ele><time>2026-04-05T08:39:44.664Z</time></trkpt><trkpt lat="39.793005" lon="-0.2856633"><ele>186.0</ele><time>2026-04-05T08:39:46.664Z</time></trkpt><trkpt lat="39.7929617" lon="-0.285525"><ele>186.0</ele><time>2026-04-05T08:39:48.665Z</time></trkpt><trkpt lat="39.7929317" lon="-0.2853683"><ele>185.42857142857144</ele><time>2026-04-05T08:39:50.664Z</time></trkpt><trkpt lat="39.7929167" lon="-0.2852833"><ele>184.85714285714286</ele><time>2026-04-05T08:39:51.664Z</time></trkpt><trkpt lat="39.7928983" lon="-0.2851933"><ele>184.28571428571428</ele><time>2026-04-05T08:39:52.664Z</time></trkpt><trkpt lat="39.792875" lon="-0.2850983"><ele>183.71428571428572</ele><time>2026-04-05T08:39:53.664Z</time></trkpt><trkpt lat="39.7928533" lon="-0.285005"><ele>183.14285714285714</ele><time>2026-04-05T08:39:54.665Z</time></trkpt><trkpt lat="39.7928317" lon="-0.2849167"><ele>182.57142857142858</ele><time>2026-04-05T08:39:55.664Z</time></trkpt><trkpt lat="39.7928067" lon="-0.2848367"><ele>182.0</ele><time>2026-04-05T08:39:56.664Z</time></trkpt><trkpt lat="39.7927683" lon="-0.2847567"><ele>181.66666666666666</ele><time>2026-04-05T08:39:57.665Z</time></trkpt><trkpt lat="39.792725" lon="-0.2846767"><ele>181.33333333333331</ele><time>2026-04-05T08:39:58.664Z</time></trkpt><trkpt lat="39.7926783" lon="-0.2846067"><ele>181.0</ele><time>2026-04-05T08:39:59.664Z</time></trkpt><trkpt lat="39.7926217" lon="-0.2845317"><ele>180.66666666666666</ele><time>2026-04-05T08:40:00.664Z</time></trkpt><trkpt lat="39.7925683" lon="-0.2844667"><ele>180.33333333333334</ele><time>2026-04-05T08:40:01.664Z</time></trkpt><trkpt lat="39.7925167" lon="-0.2843967"><ele>180.0</ele><time>2026-04-05T08:40:02.664Z</time></trkpt><trkpt lat="39.7924667" lon="-0.2843217"><ele>179.5</ele><time>2026-04-05T08:40:03.664Z</time></trkpt><trkpt lat="39.792415" lon="-0.284245"><ele>179.0</ele><time>2026-04-05T08:40:04.664Z</time></trkpt><trkpt lat="39.79237" lon="-0.2841717"><ele>178.5</ele><time>2026-04-05T08:40:05.664Z</time></trkpt><trkpt lat="39.792325" lon="-0.2841017"><ele>178.0</ele><time>2026-04-05T08:40:06.664Z</time></trkpt><trkpt lat="39.7922467" lon="-0.2839833"><ele>177.5</ele><time>2026-04-05T08:40:08.664Z</time></trkpt><trkpt lat="39.7921683" lon="-0.2839083"><ele>177.0</ele><time>2026-04-05T08:40:10.664Z</time></trkpt><trkpt lat="39.792065" lon="-0.2838967"><ele>177.0</ele><time>2026-04-05T08:40:12.664Z</time></trkpt><trkpt lat="39.7919867" lon="-0.2839017"><ele>177.0</ele><time>2026-04-05T08:40:14.664Z</time></trkpt><trkpt lat="39.7919367" lon="-0.2838433"><ele>177.0</ele><time>2026-04-05T08:40:16.664Z</time></trkpt><trkpt lat="39.7919067" lon="-0.2837433"><ele>177.0</ele><time>2026-04-05T08:40:18.664Z</time></trkpt><trkpt lat="39.791895" lon="-0.28363"><ele>177.0</ele><time>2026-04-05T08:40:20.664Z</time></trkpt><trkpt lat="39.7918633" lon="-0.283505"><ele>177.0</ele><time>2026-04-05T08:40:22.664Z</time></trkpt><trkpt lat="39.7917967" lon="-0.2834067"><ele>175.6</ele><time>2026-04-05T08:40:24.664Z</time></trkpt><trkpt lat="39.791735" lon="-0.2833717"><ele>174.2</ele><time>2026-04-05T08:40:25.664Z</time></trkpt><trkpt lat="39.79164" lon="-0.283325"><ele>172.8</ele><time>2026-04-05T08:40:27.665Z</time></trkpt><trkpt lat="39.7915367" lon="-0.2832967"><ele>171.4</ele><time>2026-04-05T08:40:29.665Z</time></trkpt><trkpt lat="39.7914333" lon="-0.2832867"><ele>170.0</ele><time>2026-04-05T08:40:31.664Z</time></trkpt><trkpt lat="39.7913317" lon="-0.2832733"><ele>170.0</ele><time>2026-04-05T08:40:33.664Z</time></trkpt><trkpt lat="39.79123" lon="-0.2832867"><ele>170.0</ele><time>2026-04-05T08:40:35.665Z</time></trkpt><trkpt lat="39.7911317" lon="-0.2832833"><ele>170.0</ele><time>2026-04-05T08:40:37.664Z</time></trkpt><trkpt lat="39.7910317" lon="-0.2832667"><ele>170.0</ele><time>2026-04-05T08:40:39.664Z</time></trkpt><trkpt lat="39.7909367" lon="-0.2832633"><ele>170.0</ele><time>2026-04-05T08:40:41.664Z</time></trkpt><trkpt lat="39.79086" lon="-0.2832367"><ele>169.83333333333331</ele><time>2026-04-05T08:40:43.664Z</time></trkpt><trkpt lat="39.79078" lon="-0.28321"><ele>169.66666666666666</ele><time>2026-04-05T08:40:45.664Z</time></trkpt><trkpt lat="39.7907067" lon="-0.2831833"><ele>169.5</ele><time>2026-04-05T08:40:47.664Z</time></trkpt><trkpt lat="39.7906267" lon="-0.2831483"><ele>169.33333333333334</ele><time>2026-04-05T08:40:49.664Z</time></trkpt><trkpt lat="39.79055" lon="-0.2830767"><ele>169.16666666666669</ele><time>2026-04-05T08:40:51.665Z</time></trkpt><trkpt lat="39.7904733" lon="-0.283"><ele>169.0</ele><time>2026-04-05T08:40:53.664Z</time></trkpt><trkpt lat="39.7903933" lon="-0.2829233"><ele>168.6</ele><time>2026-04-05T08:40:55.664Z</time></trkpt><trkpt lat="39.790325" lon="-0.28285"><ele>168.2</ele><time>2026-04-05T08:40:57.664Z</time></trkpt><trkpt lat="39.7902517" lon="-0.282765"><ele>167.79999999999998</ele><time>2026-04-05T08:40:59.664Z</time></trkpt><trkpt lat="39.7901717" lon="-0.2826967"><ele>167.39999999999998</ele><time>2026-04-05T08:41:01.665Z</time></trkpt><trkpt lat="39.7900867" lon="-0.2826433"><ele>167.0</ele><time>2026-04-05T08:41:03.664Z</time></trkpt><trkpt lat="39.7899783" lon="-0.2826033"><ele>167.0</ele><time>2026-04-05T08:41:05.664Z</time></trkpt><trkpt lat="39.7898617" lon="-0.2825867"><ele>167.0</ele><time>2026-04-05T08:41:07.664Z</time></trkpt><trkpt lat="39.7897983" lon="-0.28257"><ele>167.0</ele><time>2026-04-05T08:41:08.664Z</time></trkpt><trkpt lat="39.7896783" lon="-0.282545"><ele>167.0</ele><time>2026-04-05T08:41:10.664Z</time></trkpt><trkpt lat="39.78956" lon="-0.2825267"><ele>167.0</ele><time>2026-04-05T08:41:12.665Z</time></trkpt><trkpt lat="39.7894483" lon="-0.2825267"><ele>166.39999999999998</ele><time>2026-04-05T08:41:14.664Z</time></trkpt><trkpt lat="39.78933" lon="-0.28255"><ele>165.79999999999998</ele><time>2026-04-05T08:41:16.664Z</time></trkpt><trkpt lat="39.7892317" lon="-0.2825867"><ele>165.2</ele><time>2026-04-05T08:41:18.664Z</time></trkpt><trkpt lat="39.7891567" lon="-0.28263"><ele>164.6</ele><time>2026-04-05T08:41:21.664Z</time></trkpt><trkpt lat="39.7890817" lon="-0.282675"><ele>164.0</ele><time>2026-04-05T08:41:24.664Z</time></trkpt><trkpt lat="39.7890083" lon="-0.2827083"><ele>164.0</ele><time>2026-04-05T08:41:26.664Z</time></trkpt><trkpt lat="39.7889367" lon="-0.2826967"><ele>164.0</ele><time>2026-04-05T08:41:28.664Z</time></trkpt><trkpt lat="39.7888683" lon="-0.2826733"><ele>164.0</ele><time>2026-04-05T08:41:30.664Z</time></trkpt><trkpt lat="39.7887783" lon="-0.2826283"><ele>164.0</ele><time>2026-04-05T08:41:32.665Z</time></trkpt><trkpt lat="39.7886783" lon="-0.2826183"><ele>164.0</ele><time>2026-04-05T08:41:34.665Z</time></trkpt><trkpt lat="39.7886033" lon="-0.2826783"><ele>164.0</ele><time>2026-04-05T08:41:36.664Z</time></trkpt><trkpt lat="39.7885467" lon="-0.2827767"><ele>164.0</ele><time>2026-04-05T08:41:38.665Z</time></trkpt><trkpt lat="39.7884967" lon="-0.2828767"><ele>164.0</ele><time>2026-04-05T08:41:40.664Z</time></trkpt><trkpt lat="39.7884433" lon="-0.28295"><ele>164.0</ele><time>2026-04-05T08:41:42.664Z</time></trkpt><trkpt lat="39.788395" lon="-0.283005"><ele>164.0</ele><time>2026-04-05T08:41:44.664Z</time></trkpt><trkpt lat="39.7883433" lon="-0.283075"><ele>164.0</ele><time>2026-04-05T08:41:47.665Z</time></trkpt><trkpt lat="39.7882967" lon="-0.283145"><ele>164.0</ele><time>2026-04-05T08:41:50.665Z</time></trkpt><trkpt lat="39.7882467" lon="-0.283215"><ele>164.0</ele><time>2026-04-05T08:41:53.664Z</time></trkpt><trkpt lat="39.7881917" lon="-0.283305"><ele>164.0</ele><time>2026-04-05T08:41:56.664Z</time></trkpt><trkpt lat="39.7881117" lon="-0.2833667"><ele>164.0</ele><time>2026-04-05T08:41:59.665Z</time></trkpt><trkpt lat="39.7880467" lon="-0.2833867"><ele>164.0</ele><time>2026-04-05T08:42:01.664Z</time></trkpt><trkpt lat="39.7879783" lon="-0.2833883"><ele>164.0</ele><time>2026-04-05T08:42:03.665Z</time></trkpt><trkpt lat="39.7879217" lon="-0.2833483"><ele>164.0</ele><time>2026-04-05T08:42:05.664Z</time></trkpt><trkpt lat="39.787855" lon="-0.2832867"><ele>164.0</ele><time>2026-04-05T08:42:07.664Z</time></trkpt><trkpt lat="39.7877767" lon="-0.283215"><ele>164.0</ele><time>2026-04-05T08:42:09.664Z</time></trkpt><trkpt lat="39.78769" lon="-0.2831183"><ele>164.0</ele><time>2026-04-05T08:42:11.664Z</time></trkpt><trkpt lat="39.7876433" lon="-0.28306"><ele>164.0</ele><time>2026-04-05T08:42:12.664Z</time></trkpt><trkpt lat="39.7875983" lon="-0.2829867"><ele>164.0</ele><time>2026-04-05T08:42:13.665Z</time></trkpt><trkpt lat="39.7875583" lon="-0.2829067"><ele>164.0</ele><time>2026-04-05T08:42:14.664Z</time></trkpt><trkpt lat="39.7875217" lon="-0.2828217"><ele>163.16666666666666</ele><time>2026-04-05T08:42:15.664Z</time></trkpt><trkpt lat="39.787485" lon="-0.2827317"><ele>162.33333333333331</ele><time>2026-04-05T08:42:16.665Z</time></trkpt><trkpt lat="39.7874517" lon="-0.28264"><ele>161.5</ele><time>2026-04-05T08:42:17.665Z</time></trkpt><trkpt lat="39.78743" lon="-0.2825483"><ele>160.66666666666666</ele><time>2026-04-05T08:42:18.664Z</time></trkpt><trkpt lat="39.7874167" lon="-0.282415"><ele>159.83333333333334</ele><time>2026-04-05T08:42:20.664Z</time></trkpt><trkpt lat="39.7873967" lon="-0.28231"><ele>159.0</ele><time>2026-04-05T08:42:22.664Z</time></trkpt><trkpt lat="39.78735" lon="-0.28221"><ele>159.0</ele><time>2026-04-05T08:42:24.664Z</time></trkpt><trkpt lat="39.7873167" lon="-0.282135"><ele>159.0</ele><time>2026-04-05T08:42:26.665Z</time></trkpt><trkpt lat="39.7872717" lon="-0.2820283"><ele>159.0</ele><time>2026-04-05T08:42:29.664Z</time></trkpt><trkpt lat="39.787235" lon="-0.28194"><ele>159.0</ele><time>2026-04-05T08:42:31.664Z</time></trkpt><trkpt lat="39.7871967" lon="-0.28184"><ele>159.0</ele><time>2026-04-05T08:42:33.664Z</time></trkpt><trkpt lat="39.7871633" lon="-0.2817283"><ele>159.0</ele><time>2026-04-05T08:42:35.664Z</time></trkpt><trkpt lat="39.78713" lon="-0.2816117"><ele>159.0</ele><time>2026-04-05T08:42:37.664Z</time></trkpt><trkpt lat="39.7871" lon="-0.2814983"><ele>159.0</ele><time>2026-04-05T08:42:39.665Z</time></trkpt><trkpt lat="39.78706" lon="-0.2813733"><ele>159.0</ele><time>2026-04-05T08:42:41.664Z</time></trkpt><trkpt lat="39.7870033" lon="-0.2812567"><ele>159.0</ele><time>2026-04-05T08:42:43.664Z</time></trkpt><trkpt lat="39.7869433" lon="-0.28114"><ele>159.0</ele><time>2026-04-05T08:42:45.664Z</time></trkpt><trkpt lat="39.78689" lon="-0.2810283"><ele>159.5</ele><time>2026-04-05T08:42:47.664Z</time></trkpt><trkpt lat="39.78684" lon="-0.2809233"><ele>160.0</ele><time>2026-04-05T08:42:49.664Z</time></trkpt><trkpt lat="39.7867983" lon="-0.2808133"><ele>160.5</ele><time>2026-04-05T08:42:51.664Z</time></trkpt><trkpt lat="39.7867617" lon="-0.28071"><ele>161.0</ele><time>2026-04-05T08:42:53.664Z</time></trkpt><trkpt lat="39.7867217" lon="-0.2806083"><ele>161.5</ele><time>2026-04-05T08:42:55.665Z</time></trkpt><trkpt lat="39.78669" lon="-0.2805067"><ele>162.0</ele><time>2026-04-05T08:42:57.664Z</time></trkpt><trkpt lat="39.7866583" lon="-0.2804033"><ele>162.0</ele><time>2026-04-05T08:42:59.664Z</time></trkpt><trkpt lat="39.7866267" lon="-0.2803017"><ele>162.0</ele><time>2026-04-05T08:43:01.664Z</time></trkpt><trkpt lat="39.7865933" lon="-0.2802067"><ele>162.0</ele><time>2026-04-05T08:43:03.665Z</time></trkpt><trkpt lat="39.7865583" lon="-0.28011"><ele>162.0</ele><time>2026-04-05T08:43:05.664Z</time></trkpt><trkpt lat="39.78652" lon="-0.280025"><ele>162.0</ele><time>2026-04-05T08:43:07.664Z</time></trkpt><trkpt lat="39.78648" lon="-0.27994"><ele>162.0</ele><time>2026-04-05T08:43:09.664Z</time></trkpt><trkpt lat="39.7864317" lon="-0.2798533"><ele>162.0</ele><time>2026-04-05T08:43:11.664Z</time></trkpt><trkpt lat="39.78638" lon="-0.2797767"><ele>162.0</ele><time>2026-04-05T08:43:13.664Z</time></trkpt><trkpt lat="39.786345" lon="-0.2796983"><ele>162.0</ele><time>2026-04-05T08:43:15.664Z</time></trkpt><trkpt lat="39.78632" lon="-0.27961"><ele>162.0</ele><time>2026-04-05T08:43:17.664Z</time></trkpt><trkpt lat="39.7863033" lon="-0.2795267"><ele>162.0</ele><time>2026-04-05T08:43:19.664Z</time></trkpt><trkpt lat="39.7862767" lon="-0.2794117"><ele>162.0</ele><time>2026-04-05T08:43:22.665Z</time></trkpt><trkpt lat="39.7862567" lon="-0.2793017"><ele>161.66666666666666</ele><time>2026-04-05T08:43:25.665Z</time></trkpt><trkpt lat="39.7862283" lon="-0.2791983"><ele>161.33333333333334</ele><time>2026-04-05T08:43:28.665Z</time></trkpt><trkpt lat="39.7862083" lon="-0.2791083"><ele>161.0</ele><time>2026-04-05T08:43:31.664Z</time></trkpt><trkpt lat="39.7861833" lon="-0.2790217"><ele>160.66666666666669</ele><time>2026-04-05T08:43:34.664Z</time></trkpt><trkpt lat="39.7861517" lon="-0.2789317"><ele>160.33333333333334</ele><time>2026-04-05T08:43:37.664Z</time></trkpt><trkpt lat="39.7860883" lon="-0.2788483"><ele>160.0</ele><time>2026-04-05T08:43:40.664Z</time></trkpt><trkpt lat="39.78603" lon="-0.2787833"><ele>162.0</ele><time>2026-04-05T08:43:43.665Z</time></trkpt><trkpt lat="39.785975" lon="-0.2787183"><ele>164.0</ele><time>2026-04-05T08:43:46.665Z</time></trkpt><trkpt lat="39.78592" lon="-0.2786533"><ele>166.0</ele><time>2026-04-05T08:43:49.665Z</time></trkpt><trkpt lat="39.78587" lon="-0.2785983"><ele>168.0</ele><time>2026-04-05T08:43:52.664Z</time></trkpt><trkpt lat="39.78581" lon="-0.2785217"><ele>170.0</ele><time>2026-04-05T08:43:56.664Z</time></trkpt><trkpt lat="39.7857633" lon="-0.2784583"><ele>172.0</ele><time>2026-04-05T08:43:59.664Z</time></trkpt><trkpt lat="39.7857117" lon="-0.2783817"><ele>174.0</ele><time>2026-04-05T08:44:02.665Z</time></trkpt><trkpt lat="39.785665" lon="-0.2783217"><ele>174.0</ele><time>2026-04-05T08:44:05.664Z</time></trkpt><trkpt lat="39.78563" lon="-0.2782467"><ele>174.0</ele><time>2026-04-05T08:44:08.664Z</time></trkpt><trkpt lat="39.7855967" lon="-0.2781633"><ele>174.0</ele><time>2026-04-05T08:44:11.664Z</time></trkpt><trkpt lat="39.7855617" lon="-0.2780667"><ele>174.0</ele><time>2026-04-05T08:44:14.664Z</time></trkpt><trkpt lat="39.7855133" lon="-0.2779733"><ele>174.0</ele><time>2026-04-05T08:44:17.664Z</time></trkpt><trkpt lat="39.7854767" lon="-0.2779"><ele>174.0</ele><time>2026-04-05T08:44:19.665Z</time></trkpt><trkpt lat="39.78543" lon="-0.2778133"><ele>174.39999999999998</ele><time>2026-04-05T08:44:21.664Z</time></trkpt><trkpt lat="39.7853867" lon="-0.2777117"><ele>174.8</ele><time>2026-04-05T08:44:23.664Z</time></trkpt><trkpt lat="39.7853267" lon="-0.2776017"><ele>175.2</ele><time>2026-04-05T08:44:25.664Z</time></trkpt><trkpt lat="39.785265" lon="-0.2774767"><ele>175.60000000000002</ele><time>2026-04-05T08:44:27.664Z</time></trkpt><trkpt lat="39.7851983" lon="-0.2773533"><ele>176.0</ele><time>2026-04-05T08:44:29.664Z</time></trkpt><trkpt lat="39.785115" lon="-0.27726"><ele>174.33333333333331</ele><time>2026-04-05T08:44:31.664Z</time></trkpt><trkpt lat="39.7850567" lon="-0.2772167"><ele>172.66666666666666</ele><time>2026-04-05T08:44:32.664Z</time></trkpt><trkpt lat="39.784975" lon="-0.277175"><ele>171.0</ele><time>2026-04-05T08:44:33.664Z</time></trkpt><trkpt lat="39.7848867" lon="-0.27714"><ele>169.33333333333334</ele><time>2026-04-05T08:44:34.665Z</time></trkpt><trkpt lat="39.784795" lon="-0.2771183"><ele>167.66666666666669</ele><time>2026-04-05T08:44:35.664Z</time></trkpt><trkpt lat="39.784705" lon="-0.2770967"><ele>166.0</ele><time>2026-04-05T08:44:36.664Z</time></trkpt><trkpt lat="39.7846217" lon="-0.27707"><ele>166.0</ele><time>2026-04-05T08:44:37.665Z</time></trkpt><trkpt lat="39.7845483" lon="-0.2770433"><ele>166.0</ele><time>2026-04-05T08:44:38.664Z</time></trkpt><trkpt lat="39.7844817" lon="-0.277005"><ele>166.0</ele><time>2026-04-05T08:44:39.664Z</time></trkpt><trkpt lat="39.7844133" lon="-0.2769533"><ele>166.0</ele><time>2026-04-05T08:44:40.664Z</time></trkpt><trkpt lat="39.7843433" lon="-0.2768933"><ele>166.0</ele><time>2026-04-05T08:44:41.664Z</time></trkpt><trkpt lat="39.78427" lon="-0.2768333"><ele>166.0</ele><time>2026-04-05T08:44:42.664Z</time></trkpt><trkpt lat="39.7841967" lon="-0.2767717"><ele>165.0</ele><time>2026-04-05T08:44:43.664Z</time></trkpt><trkpt lat="39.784125" lon="-0.2767183"><ele>164.0</ele><time>2026-04-05T08:44:44.664Z</time></trkpt><trkpt lat="39.7840533" lon="-0.2766717"><ele>163.0</ele><time>2026-04-05T08:44:45.664Z</time></trkpt><trkpt lat="39.7839817" lon="-0.276625"><ele>162.0</ele><time>2026-04-05T08:44:46.664Z</time></trkpt><trkpt lat="39.7839117" lon="-0.2765833"><ele>161.0</ele><time>2026-04-05T08:44:47.665Z</time></trkpt><trkpt lat="39.7838433" lon="-0.2765483"><ele>160.0</ele><time>2026-04-05T08:44:48.664Z</time></trkpt><trkpt lat="39.7837783" lon="-0.2765133"><ele>159.83333333333334</ele><time>2026-04-05T08:44:49.664Z</time></trkpt><trkpt lat="39.78368" lon="-0.2764283"><ele>159.66666666666669</ele><time>2026-04-05T08:44:51.664Z</time></trkpt><trkpt lat="39.7836083" lon="-0.2763633"><ele>159.5</ele><time>2026-04-05T08:44:53.664Z</time></trkpt><trkpt lat="39.7835633" lon="-0.2762883"><ele>159.33333333333334</ele><time>2026-04-05T08:44:55.664Z</time></trkpt><trkpt lat="39.7835367" lon="-0.27621"><ele>159.16666666666666</ele><time>2026-04-05T08:44:57.664Z</time></trkpt><trkpt lat="39.783505" lon="-0.276105"><ele>159.0</ele><time>2026-04-05T08:45:00.664Z</time></trkpt><trkpt lat="39.78347" lon="-0.2760233"><ele>159.5</ele><time>2026-04-05T08:45:03.665Z</time></trkpt><trkpt lat="39.78342" lon="-0.2759633"><ele>160.0</ele><time>2026-04-05T08:45:06.664Z</time></trkpt><trkpt lat="39.7834067" lon="-0.2758617"><ele>160.5</ele><time>2026-04-05T08:45:10.665Z</time></trkpt><trkpt lat="39.78343" lon="-0.275775"><ele>161.0</ele><time>2026-04-05T08:45:12.665Z</time></trkpt><trkpt lat="39.78346" lon="-0.2756617"><ele>161.5</ele><time>2026-04-05T08:45:14.665Z</time></trkpt><trkpt lat="39.78348" lon="-0.2755433"><ele>162.0</ele><time>2026-04-05T08:45:16.664Z</time></trkpt><trkpt lat="39.7835117" lon="-0.27543"><ele>161.0</ele><time>2026-04-05T08:45:18.664Z</time></trkpt><trkpt lat="39.7835417" lon="-0.2753083"><ele>160.0</ele><time>2026-04-05T08:45:20.665Z</time></trkpt><trkpt lat="39.78357" lon="-0.2751867"><ele>159.0</ele><time>2026-04-05T08:45:22.664Z</time></trkpt><trkpt lat="39.7835967" lon="-0.2750683"><ele>158.0</ele><time>2026-04-05T08:45:24.664Z</time></trkpt><trkpt lat="39.7836317" lon="-0.2749433"><ele>157.0</ele><time>2026-04-05T08:45:26.665Z</time></trkpt><trkpt lat="39.783655" lon="-0.2748117"><ele>157.0</ele><time>2026-04-05T08:45:28.664Z</time></trkpt><trkpt lat="39.78368" lon="-0.2746833"><ele>157.0</ele><time>2026-04-05T08:45:30.664Z</time></trkpt><trkpt lat="39.7837033" lon="-0.2745583"><ele>157.0</ele><time>2026-04-05T08:45:32.664Z</time></trkpt><trkpt lat="39.7837367" lon="-0.27444"><ele>157.0</ele><time>2026-04-05T08:45:34.664Z</time></trkpt><trkpt lat="39.783775" lon="-0.2743267"><ele>157.0</ele><time>2026-04-05T08:45:36.664Z</time></trkpt><trkpt lat="39.783805" lon="-0.2742067"><ele>157.0</ele><time>2026-04-05T08:45:38.664Z</time></trkpt><trkpt lat="39.78383" lon="-0.2740967"><ele>157.0</ele><time>2026-04-05T08:45:40.664Z</time></trkpt><trkpt lat="39.7838567" lon="-0.27398"><ele>157.0</ele><time>2026-04-05T08:45:42.664Z</time></trkpt><trkpt lat="39.7838883" lon="-0.273865"><ele>157.0</ele><time>2026-04-05T08:45:44.664Z</time></trkpt><trkpt lat="39.7839167" lon="-0.2737433"><ele>157.0</ele><time>2026-04-05T08:45:46.664Z</time></trkpt><trkpt lat="39.7839467" lon="-0.2736117"><ele>156.75</ele><time>2026-04-05T08:45:48.664Z</time></trkpt><trkpt lat="39.7839767" lon="-0.2734767"><ele>156.5</ele><time>2026-04-05T08:45:50.664Z</time></trkpt><trkpt lat="39.7840133" lon="-0.2733333"><ele>156.25</ele><time>2026-04-05T08:45:52.664Z</time></trkpt><trkpt lat="39.7840567" lon="-0.2731933"><ele>156.0</ele><time>2026-04-05T08:45:54.664Z</time></trkpt><trkpt lat="39.784105" lon="-0.273055"><ele>155.57142857142858</ele><time>2026-04-05T08:45:56.665Z</time></trkpt><trkpt lat="39.784125" lon="-0.2729767"><ele>155.14285714285714</ele><time>2026-04-05T08:45:57.665Z</time></trkpt><trkpt lat="39.784145" lon="-0.2728883"><ele>154.71428571428572</ele><time>2026-04-05T08:45:58.664Z</time></trkpt><trkpt lat="39.7841633" lon="-0.2728033"><ele>154.28571428571428</ele><time>2026-04-05T08:45:59.664Z</time></trkpt><trkpt lat="39.7841917" lon="-0.272715"><ele>153.85714285714286</ele><time>2026-04-05T08:46:00.664Z</time></trkpt><trkpt lat="39.7842167" lon="-0.2726267"><ele>153.42857142857142</ele><time>2026-04-05T08:46:01.664Z</time></trkpt><trkpt lat="39.7842433" lon="-0.2725367"><ele>153.0</ele><time>2026-04-05T08:46:02.664Z</time></trkpt><trkpt lat="39.784265" lon="-0.27244"><ele>153.0</ele><time>2026-04-05T08:46:03.664Z</time></trkpt><trkpt lat="39.7842767" lon="-0.2723383"><ele>153.0</ele><time>2026-04-05T08:46:04.664Z</time></trkpt><trkpt lat="39.7843067" lon="-0.2722333"><ele>153.0</ele><time>2026-04-05T08:46:05.664Z</time></trkpt><trkpt lat="39.784335" lon="-0.2721283"><ele>153.0</ele><time>2026-04-05T08:46:06.664Z</time></trkpt><trkpt lat="39.784365" lon="-0.272025"><ele>153.0</ele><time>2026-04-05T08:46:07.664Z</time></trkpt><trkpt lat="39.7843883" lon="-0.271915"><ele>153.0</ele><time>2026-04-05T08:46:08.664Z</time></trkpt><trkpt lat="39.7844133" lon="-0.2718133"><ele>152.66666666666666</ele><time>2026-04-05T08:46:09.665Z</time></trkpt><trkpt lat="39.7844367" lon="-0.27171"><ele>152.33333333333334</ele><time>2026-04-05T08:46:10.664Z</time></trkpt><trkpt lat="39.78446" lon="-0.2716033"><ele>152.0</ele><time>2026-04-05T08:46:11.664Z</time></trkpt><trkpt lat="39.7844867" lon="-0.271505"><ele>151.66666666666669</ele><time>2026-04-05T08:46:12.664Z</time></trkpt><trkpt lat="39.7845183" lon="-0.2714133"><ele>151.33333333333334</ele><time>2026-04-05T08:46:13.665Z</time></trkpt><trkpt lat="39.7845483" lon="-0.271315"><ele>151.0</ele><time>2026-04-05T08:46:14.664Z</time></trkpt><trkpt lat="39.7845767" lon="-0.2712217"><ele>150.83333333333334</ele><time>2026-04-05T08:46:15.665Z</time></trkpt><trkpt lat="39.7846017" lon="-0.271125"><ele>150.66666666666669</ele><time>2026-04-05T08:46:16.665Z</time></trkpt><trkpt lat="39.7846283" lon="-0.2710283"><ele>150.5</ele><time>2026-04-05T08:46:17.664Z</time></trkpt><trkpt lat="39.7846517" lon="-0.2709333"><ele>150.33333333333334</ele><time>2026-04-05T08:46:18.664Z</time></trkpt><trkpt lat="39.7846683" lon="-0.270835"><ele>150.16666666666666</ele><time>2026-04-05T08:46:19.664Z</time></trkpt><trkpt lat="39.7846883" lon="-0.270745"><ele>150.0</ele><time>2026-04-05T08:46:20.664Z</time></trkpt><trkpt lat="39.7847067" lon="-0.2706533"><ele>149.99999999999997</ele><time>2026-04-05T08:46:21.665Z</time></trkpt><trkpt lat="39.78473" lon="-0.2705633"><ele>150.0</ele><time>2026-04-05T08:46:22.664Z</time></trkpt><trkpt lat="39.7847517" lon="-0.2704717"><ele>150.0</ele><time>2026-04-05T08:46:23.665Z</time></trkpt><trkpt lat="39.784775" lon="-0.2703833"><ele>150.0</ele><time>2026-04-05T08:46:24.664Z</time></trkpt><trkpt lat="39.784795" lon="-0.2702983"><ele>150.0</ele><time>2026-04-05T08:46:25.664Z</time></trkpt><trkpt lat="39.78482" lon="-0.2702133"><ele>149.99999999999997</ele><time>2026-04-05T08:46:26.664Z</time></trkpt><trkpt lat="39.7848483" lon="-0.27013"><ele>150.0</ele><time>2026-04-05T08:46:27.664Z</time></trkpt><trkpt lat="39.7848733" lon="-0.2700483"><ele>150.0</ele><time>2026-04-05T08:46:28.664Z</time></trkpt><trkpt lat="39.784895" lon="-0.26996"><ele>150.0</ele><time>2026-04-05T08:46:29.664Z</time></trkpt><trkpt lat="39.7849117" lon="-0.2698767"><ele>150.0</ele><time>2026-04-05T08:46:30.664Z</time></trkpt><trkpt lat="39.7849217" lon="-0.2697933"><ele>150.0</ele><time>2026-04-05T08:46:31.664Z</time></trkpt><trkpt lat="39.784935" lon="-0.2697067"><ele>150.0</ele><time>2026-04-05T08:46:32.665Z</time></trkpt><trkpt lat="39.7849533" lon="-0.26962"><ele>150.0</ele><time>2026-04-05T08:46:33.664Z</time></trkpt><trkpt lat="39.7849933" lon="-0.2694667"><ele>149.4</ele><time>2026-04-05T08:46:35.664Z</time></trkpt><trkpt lat="39.7850083" lon="-0.269385"><ele>148.8</ele><time>2026-04-05T08:46:36.664Z</time></trkpt><trkpt lat="39.7850283" lon="-0.26923"><ele>148.2</ele><time>2026-04-05T08:46:38.665Z</time></trkpt><trkpt lat="39.785055" lon="-0.2690867"><ele>147.6</ele><time>2026-04-05T08:46:40.664Z</time></trkpt><trkpt lat="39.7850883" lon="-0.268955"><ele>147.0</ele><time>2026-04-05T08:46:42.664Z</time></trkpt><trkpt lat="39.7851067" lon="-0.2688233"><ele>147.0</ele><time>2026-04-05T08:46:44.664Z</time></trkpt><trkpt lat="39.7851233" lon="-0.2687"><ele>147.0</ele><time>2026-04-05T08:46:46.665Z</time></trkpt><trkpt lat="39.7851367" lon="-0.2685783"><ele>147.0</ele><time>2026-04-05T08:46:48.664Z</time></trkpt><trkpt lat="39.7851583" lon="-0.26846"><ele>147.0</ele><time>2026-04-05T08:46:50.664Z</time></trkpt><trkpt lat="39.7851833" lon="-0.2683433"><ele>147.0</ele><time>2026-04-05T08:46:52.664Z</time></trkpt><trkpt lat="39.7852117" lon="-0.2682267"><ele>147.79999999999998</ele><time>2026-04-05T08:46:54.664Z</time></trkpt><trkpt lat="39.7852417" lon="-0.26811"><ele>148.6</ele><time>2026-04-05T08:46:56.665Z</time></trkpt><trkpt lat="39.7852617" lon="-0.2679817"><ele>149.39999999999998</ele><time>2026-04-05T08:46:58.665Z</time></trkpt><trkpt lat="39.7852867" lon="-0.2678533"><ele>150.2</ele><time>2026-04-05T08:47:00.664Z</time></trkpt><trkpt lat="39.7853033" lon="-0.26771"><ele>151.0</ele><time>2026-04-05T08:47:02.664Z</time></trkpt><trkpt lat="39.7853317" lon="-0.26757"><ele>151.0</ele><time>2026-04-05T08:47:04.665Z</time></trkpt><trkpt lat="39.7853633" lon="-0.2674183"><ele>151.0</ele><time>2026-04-05T08:47:06.664Z</time></trkpt><trkpt lat="39.7853867" lon="-0.2672633"><ele>151.0</ele><time>2026-04-05T08:47:08.665Z</time></trkpt><trkpt lat="39.78542" lon="-0.2671117"><ele>151.0</ele><time>2026-04-05T08:47:10.664Z</time></trkpt><trkpt lat="39.7854617" lon="-0.26696"><ele>150.33333333333334</ele><time>2026-04-05T08:47:12.664Z</time></trkpt><trkpt lat="39.7854817" lon="-0.2668783"><ele>149.66666666666669</ele><time>2026-04-05T08:47:13.664Z</time></trkpt><trkpt lat="39.7855" lon="-0.2667983"><ele>149.0</ele><time>2026-04-05T08:47:14.664Z</time></trkpt><trkpt lat="39.7855183" lon="-0.2667167"><ele>148.33333333333334</ele><time>2026-04-05T08:47:15.664Z</time></trkpt><trkpt lat="39.7855317" lon="-0.2666333"><ele>147.66666666666666</ele><time>2026-04-05T08:47:16.664Z</time></trkpt><trkpt lat="39.7855667" lon="-0.2664767"><ele>147.0</ele><time>2026-04-05T08:47:18.664Z</time></trkpt><trkpt lat="39.7855833" lon="-0.2663933"><ele>146.42857142857142</ele><time>2026-04-05T08:47:19.665Z</time></trkpt><trkpt lat="39.785605" lon="-0.2663083"><ele>145.85714285714286</ele><time>2026-04-05T08:47:20.664Z</time></trkpt><trkpt lat="39.7856233" lon="-0.2662267"><ele>145.28571428571428</ele><time>2026-04-05T08:47:21.665Z</time></trkpt><trkpt lat="39.7856433" lon="-0.2661433"><ele>144.71428571428572</ele><time>2026-04-05T08:47:22.664Z</time></trkpt><trkpt lat="39.78566" lon="-0.266055"><ele>144.14285714285714</ele><time>2026-04-05T08:47:23.664Z</time></trkpt><trkpt lat="39.7856833" lon="-0.2659717"><ele>143.57142857142856</ele><time>2026-04-05T08:47:24.664Z</time></trkpt><trkpt lat="39.7857067" lon="-0.2658933"><ele>143.0</ele><time>2026-04-05T08:47:25.664Z</time></trkpt><trkpt lat="39.7857317" lon="-0.2658117"><ele>142.99999999999997</ele><time>2026-04-05T08:47:26.664Z</time></trkpt><trkpt lat="39.7857533" lon="-0.265725"><ele>143.0</ele><time>2026-04-05T08:47:27.665Z</time></trkpt><trkpt lat="39.78578" lon="-0.26564"><ele>143.0</ele><time>2026-04-05T08:47:28.664Z</time></trkpt><trkpt lat="39.7858083" lon="-0.26556"><ele>143.0</ele><time>2026-04-05T08:47:29.665Z</time></trkpt><trkpt lat="39.78584" lon="-0.2654817"><ele>143.0</ele><time>2026-04-05T08:47:30.664Z</time></trkpt><trkpt lat="39.7858683" lon="-0.2654033"><ele>142.99999999999997</ele><time>2026-04-05T08:47:31.665Z</time></trkpt><trkpt lat="39.7859017" lon="-0.265325"><ele>143.0</ele><time>2026-04-05T08:47:32.664Z</time></trkpt><trkpt lat="39.785935" lon="-0.2652433"><ele>142.99999999999997</ele><time>2026-04-05T08:47:33.664Z</time></trkpt><trkpt lat="39.7859733" lon="-0.2651617"><ele>143.0</ele><time>2026-04-05T08:47:34.664Z</time></trkpt><trkpt lat="39.7860083" lon="-0.2650833"><ele>143.0</ele><time>2026-04-05T08:47:35.664Z</time></trkpt><trkpt lat="39.7860433" lon="-0.265"><ele>143.0</ele><time>2026-04-05T08:47:36.664Z</time></trkpt><trkpt lat="39.7860783" lon="-0.264925"><ele>143.0</ele><time>2026-04-05T08:47:37.664Z</time></trkpt><trkpt lat="39.78611" lon="-0.2648467"><ele>142.99999999999997</ele><time>2026-04-05T08:47:38.665Z</time></trkpt><trkpt lat="39.7861417" lon="-0.264765"><ele>143.0</ele><time>2026-04-05T08:47:39.664Z</time></trkpt><trkpt lat="39.7861783" lon="-0.2646867"><ele>142.28571428571428</ele><time>2026-04-05T08:47:40.665Z</time></trkpt><trkpt lat="39.786215" lon="-0.2646083"><ele>141.57142857142856</ele><time>2026-04-05T08:47:41.664Z</time></trkpt><trkpt lat="39.7862517" lon="-0.2645317"><ele>140.85714285714286</ele><time>2026-04-05T08:47:42.664Z</time></trkpt><trkpt lat="39.7862933" lon="-0.2644567"><ele>140.14285714285714</ele><time>2026-04-05T08:47:43.664Z</time></trkpt><trkpt lat="39.7863367" lon="-0.2643767"><ele>139.42857142857144</ele><time>2026-04-05T08:47:44.664Z</time></trkpt><trkpt lat="39.7863817" lon="-0.264305"><ele>138.71428571428572</ele><time>2026-04-05T08:47:45.665Z</time></trkpt><trkpt lat="39.7864233" lon="-0.26423"><ele>138.0</ele><time>2026-04-05T08:47:46.664Z</time></trkpt><trkpt lat="39.7864683" lon="-0.26416"><ele>138.0</ele><time>2026-04-05T08:47:47.664Z</time></trkpt><trkpt lat="39.786515" lon="-0.2640933"><ele>138.0</ele><time>2026-04-05T08:47:48.664Z</time></trkpt><trkpt lat="39.7865683" lon="-0.2640283"><ele>138.0</ele><time>2026-04-05T08:47:49.664Z</time></trkpt><trkpt lat="39.7866167" lon="-0.2639667"><ele>138.0</ele><time>2026-04-05T08:47:50.664Z</time></trkpt><trkpt lat="39.786665" lon="-0.2639017"><ele>138.0</ele><time>2026-04-05T08:47:51.665Z</time></trkpt><trkpt lat="39.7867133" lon="-0.2638433"><ele>138.0</ele><time>2026-04-05T08:47:52.664Z</time></trkpt><trkpt lat="39.7867683" lon="-0.263785"><ele>138.0</ele><time>2026-04-05T08:47:53.664Z</time></trkpt><trkpt lat="39.7868167" lon="-0.2637283"><ele>137.57142857142858</ele><time>2026-04-05T08:47:54.665Z</time></trkpt><trkpt lat="39.78686" lon="-0.263665"><ele>137.14285714285717</ele><time>2026-04-05T08:47:55.664Z</time></trkpt><trkpt lat="39.786905" lon="-0.2635983"><ele>136.71428571428572</ele><time>2026-04-05T08:47:56.664Z</time></trkpt><trkpt lat="39.78695" lon="-0.263535"><ele>136.28571428571428</ele><time>2026-04-05T08:47:57.664Z</time></trkpt><trkpt lat="39.7869983" lon="-0.26347"><ele>135.85714285714283</ele><time>2026-04-05T08:47:58.664Z</time></trkpt><trkpt lat="39.787045" lon="-0.2634133"><ele>135.42857142857142</ele><time>2026-04-05T08:47:59.664Z</time></trkpt><trkpt lat="39.78709" lon="-0.2633467"><ele>135.0</ele><time>2026-04-05T08:48:00.664Z</time></trkpt><trkpt lat="39.787135" lon="-0.2632817"><ele>135.0</ele><time>2026-04-05T08:48:01.664Z</time></trkpt><trkpt lat="39.787175" lon="-0.26321"><ele>135.0</ele><time>2026-04-05T08:48:02.664Z</time></trkpt><trkpt lat="39.7872183" lon="-0.2631433"><ele>135.0</ele><time>2026-04-05T08:48:03.664Z</time></trkpt><trkpt lat="39.787255" lon="-0.2630717"><ele>135.0</ele><time>2026-04-05T08:48:04.664Z</time></trkpt><trkpt lat="39.7873167" lon="-0.2629317"><ele>135.0</ele><time>2026-04-05T08:48:06.664Z</time></trkpt><trkpt lat="39.7873783" lon="-0.2627917"><ele>135.0</ele><time>2026-04-05T08:48:08.664Z</time></trkpt><trkpt lat="39.7874517" lon="-0.2626617"><ele>134.83333333333334</ele><time>2026-04-05T08:48:10.664Z</time></trkpt><trkpt lat="39.7874967" lon="-0.262595"><ele>134.66666666666666</ele><time>2026-04-05T08:48:11.664Z</time></trkpt><trkpt lat="39.78754" lon="-0.26253"><ele>134.5</ele><time>2026-04-05T08:48:12.664Z</time></trkpt><trkpt lat="39.78758" lon="-0.262465"><ele>134.33333333333331</ele><time>2026-04-05T08:48:13.664Z</time></trkpt><trkpt lat="39.7876483" lon="-0.262345"><ele>134.16666666666666</ele><time>2026-04-05T08:48:15.664Z</time></trkpt><trkpt lat="39.7877017" lon="-0.2622117"><ele>134.0</ele><time>2026-04-05T08:48:17.664Z</time></trkpt><trkpt lat="39.7877283" lon="-0.2621367"><ele>133.5</ele><time>2026-04-05T08:48:18.665Z</time></trkpt><trkpt lat="39.7877917" lon="-0.2620017"><ele>133.0</ele><time>2026-04-05T08:48:20.664Z</time></trkpt><trkpt lat="39.787845" lon="-0.2618617"><ele>132.5</ele><time>2026-04-05T08:48:22.664Z</time></trkpt><trkpt lat="39.7878933" lon="-0.2617183"><ele>132.0</ele><time>2026-04-05T08:48:24.664Z</time></trkpt><trkpt lat="39.7879467" lon="-0.2615783"><ele>131.5</ele><time>2026-04-05T08:48:26.664Z</time></trkpt><trkpt lat="39.7880017" lon="-0.2614433"><ele>131.0</ele><time>2026-04-05T08:48:28.664Z</time></trkpt><trkpt lat="39.78805" lon="-0.2613067"><ele>130.5</ele><time>2026-04-05T08:48:30.665Z</time></trkpt><trkpt lat="39.7881067" lon="-0.2611767"><ele>130.0</ele><time>2026-04-05T08:48:32.664Z</time></trkpt><trkpt lat="39.7881533" lon="-0.2610467"><ele>130.0</ele><time>2026-04-05T08:48:34.664Z</time></trkpt><trkpt lat="39.7882033" lon="-0.2609167"><ele>130.0</ele><time>2026-04-05T08:48:36.664Z</time></trkpt><trkpt lat="39.788255" lon="-0.2607867"><ele>130.0</ele><time>2026-04-05T08:48:38.664Z</time></trkpt><trkpt lat="39.7883017" lon="-0.260655"><ele>130.0</ele><time>2026-04-05T08:48:40.664Z</time></trkpt><trkpt lat="39.78835" lon="-0.2605283"><ele>130.0</ele><time>2026-04-05T08:48:42.665Z</time></trkpt><trkpt lat="39.788405" lon="-0.2604067"><ele>129.4</ele><time>2026-04-05T08:48:44.664Z</time></trkpt><trkpt lat="39.788455" lon="-0.2602917"><ele>128.8</ele><time>2026-04-05T08:48:46.664Z</time></trkpt><trkpt lat="39.788505" lon="-0.2601733"><ele>128.2</ele><time>2026-04-05T08:48:48.664Z</time></trkpt><trkpt lat="39.7885533" lon="-0.2600533"><ele>127.6</ele><time>2026-04-05T08:48:50.664Z</time></trkpt><trkpt lat="39.7885983" lon="-0.2599467"><ele>127.0</ele><time>2026-04-05T08:48:52.664Z</time></trkpt><trkpt lat="39.7886483" lon="-0.259835"><ele>128.2</ele><time>2026-04-05T08:48:54.665Z</time></trkpt><trkpt lat="39.7886917" lon="-0.25973"><ele>129.39999999999998</ele><time>2026-04-05T08:48:56.664Z</time></trkpt><trkpt lat="39.7887367" lon="-0.2596217"><ele>130.60000000000002</ele><time>2026-04-05T08:48:58.664Z</time></trkpt><trkpt lat="39.7887783" lon="-0.2595167"><ele>131.8</ele><time>2026-04-05T08:49:00.664Z</time></trkpt><trkpt lat="39.788815" lon="-0.2593983"><ele>133.0</ele><time>2026-04-05T08:49:02.664Z</time></trkpt><trkpt lat="39.78885" lon="-0.2592867"><ele>133.0</ele><time>2026-04-05T08:49:04.664Z</time></trkpt><trkpt lat="39.7888883" lon="-0.2591817"><ele>133.0</ele><time>2026-04-05T08:49:06.665Z</time></trkpt><trkpt lat="39.78893" lon="-0.2590633"><ele>133.0</ele><time>2026-04-05T08:49:08.665Z</time></trkpt><trkpt lat="39.78898" lon="-0.2589233"><ele>133.0</ele><time>2026-04-05T08:49:10.664Z</time></trkpt><trkpt lat="39.7890283" lon="-0.2587833"><ele>133.0</ele><time>2026-04-05T08:49:12.665Z</time></trkpt><trkpt lat="39.7890783" lon="-0.258635"><ele>132.25</ele><time>2026-04-05T08:49:14.665Z</time></trkpt><trkpt lat="39.78913" lon="-0.25849"><ele>131.5</ele><time>2026-04-05T08:49:16.664Z</time></trkpt><trkpt lat="39.7891817" lon="-0.2583567"><ele>130.75</ele><time>2026-04-05T08:49:18.664Z</time></trkpt><trkpt lat="39.78923" lon="-0.2582167"><ele>130.0</ele><time>2026-04-05T08:49:20.665Z</time></trkpt><trkpt lat="39.7892817" lon="-0.25809"><ele>130.0</ele><time>2026-04-05T08:49:22.664Z</time></trkpt><trkpt lat="39.7893333" lon="-0.2579617"><ele>130.0</ele><time>2026-04-05T08:49:24.664Z</time></trkpt><trkpt lat="39.7893833" lon="-0.2578333"><ele>130.0</ele><time>2026-04-05T08:49:26.664Z</time></trkpt><trkpt lat="39.78944" lon="-0.2577117"><ele>130.0</ele><time>2026-04-05T08:49:28.664Z</time></trkpt><trkpt lat="39.7894917" lon="-0.2575817"><ele>130.0</ele><time>2026-04-05T08:49:30.664Z</time></trkpt><trkpt lat="39.7895417" lon="-0.2574533"><ele>130.0</ele><time>2026-04-05T08:49:32.664Z</time></trkpt><trkpt lat="39.7895933" lon="-0.25733"><ele>130.0</ele><time>2026-04-05T08:49:34.664Z</time></trkpt><trkpt lat="39.7896433" lon="-0.2572067"><ele>130.0</ele><time>2026-04-05T08:49:36.665Z</time></trkpt><trkpt lat="39.78969" lon="-0.25708"><ele>130.0</ele><time>2026-04-05T08:49:38.664Z</time></trkpt><trkpt lat="39.789745" lon="-0.2569433"><ele>130.0</ele><time>2026-04-05T08:49:40.664Z</time></trkpt><trkpt lat="39.7898" lon="-0.2568083"><ele>129.0</ele><time>2026-04-05T08:49:42.664Z</time></trkpt><trkpt lat="39.7898533" lon="-0.256665"><ele>128.0</ele><time>2026-04-05T08:49:44.664Z</time></trkpt><trkpt lat="39.7899083" lon="-0.256525"><ele>127.0</ele><time>2026-04-05T08:49:46.664Z</time></trkpt><trkpt lat="39.7899667" lon="-0.25639"><ele>126.0</ele><time>2026-04-05T08:49:48.664Z</time></trkpt><trkpt lat="39.7900267" lon="-0.2562583"><ele>125.75</ele><time>2026-04-05T08:49:50.664Z</time></trkpt><trkpt lat="39.7900817" lon="-0.25612"><ele>125.5</ele><time>2026-04-05T08:49:52.665Z</time></trkpt><trkpt lat="39.7901333" lon="-0.255985"><ele>125.25</ele><time>2026-04-05T08:49:54.665Z</time></trkpt><trkpt lat="39.79019" lon="-0.2558617"><ele>125.0</ele><time>2026-04-05T08:49:56.664Z</time></trkpt><trkpt lat="39.790245" lon="-0.2557433"><ele>125.0</ele><time>2026-04-05T08:49:58.664Z</time></trkpt><trkpt lat="39.79031" lon="-0.255635"><ele>125.0</ele><time>2026-04-05T08:50:00.664Z</time></trkpt><trkpt lat="39.7903767" lon="-0.2555117"><ele>125.0</ele><time>2026-04-05T08:50:02.664Z</time></trkpt><trkpt lat="39.79043" lon="-0.2553783"><ele>125.0</ele><time>2026-04-05T08:50:04.664Z</time></trkpt><trkpt lat="39.7904817" lon="-0.2552683"><ele>125.0</ele><time>2026-04-05T08:50:06.665Z</time></trkpt><trkpt lat="39.790545" lon="-0.2551483"><ele>124.8</ele><time>2026-04-05T08:50:08.664Z</time></trkpt><trkpt lat="39.7905967" lon="-0.25503"><ele>124.6</ele><time>2026-04-05T08:50:10.664Z</time></trkpt><trkpt lat="39.7906533" lon="-0.25493"><ele>124.4</ele><time>2026-04-05T08:50:12.664Z</time></trkpt><trkpt lat="39.7907183" lon="-0.254835"><ele>124.2</ele><time>2026-04-05T08:50:14.665Z</time></trkpt><trkpt lat="39.7907817" lon="-0.2547183"><ele>124.0</ele><time>2026-04-05T08:50:16.664Z</time></trkpt><trkpt lat="39.790845" lon="-0.254595"><ele>123.6</ele><time>2026-04-05T08:50:18.664Z</time></trkpt><trkpt lat="39.790905" lon="-0.2544733"><ele>123.2</ele><time>2026-04-05T08:50:20.664Z</time></trkpt><trkpt lat="39.790975" lon="-0.2543683"><ele>122.79999999999998</ele><time>2026-04-05T08:50:22.665Z</time></trkpt><trkpt lat="39.79103" lon="-0.2542567"><ele>122.39999999999999</ele><time>2026-04-05T08:50:24.664Z</time></trkpt><trkpt lat="39.7910783" lon="-0.2541333"><ele>122.0</ele><time>2026-04-05T08:50:26.664Z</time></trkpt><trkpt lat="39.79114" lon="-0.2540317"><ele>122.19999999999999</ele><time>2026-04-05T08:50:28.664Z</time></trkpt><trkpt lat="39.7912017" lon="-0.25393"><ele>122.39999999999999</ele><time>2026-04-05T08:50:30.664Z</time></trkpt><trkpt lat="39.7912583" lon="-0.2538133"><ele>122.60000000000001</ele><time>2026-04-05T08:50:32.664Z</time></trkpt><trkpt lat="39.79132" lon="-0.2537"><ele>122.80000000000001</ele><time>2026-04-05T08:50:34.665Z</time></trkpt><trkpt lat="39.7913933" lon="-0.2535933"><ele>123.0</ele><time>2026-04-05T08:50:36.665Z</time></trkpt><trkpt lat="39.791455" lon="-0.2534733"><ele>123.0</ele><time>2026-04-05T08:50:38.664Z</time></trkpt><trkpt lat="39.791525" lon="-0.2533667"><ele>123.00000000000001</ele><time>2026-04-05T08:50:40.664Z</time></trkpt><trkpt lat="39.7915883" lon="-0.2532583"><ele>123.00000000000001</ele><time>2026-04-05T08:50:42.664Z</time></trkpt><trkpt lat="39.79165" lon="-0.25315"><ele>123.0</ele><time>2026-04-05T08:50:44.664Z</time></trkpt><trkpt lat="39.7917317" lon="-0.25305"><ele>123.0</ele><time>2026-04-05T08:50:46.664Z</time></trkpt><trkpt lat="39.7918067" lon="-0.2529567"><ele>121.80000000000001</ele><time>2026-04-05T08:50:48.665Z</time></trkpt><trkpt lat="39.7918683" lon="-0.2528517"><ele>120.60000000000001</ele><time>2026-04-05T08:50:50.665Z</time></trkpt><trkpt lat="39.79194" lon="-0.25274"><ele>119.39999999999999</ele><time>2026-04-05T08:50:52.665Z</time></trkpt><trkpt lat="39.7920117" lon="-0.252625"><ele>118.19999999999999</ele><time>2026-04-05T08:50:54.664Z</time></trkpt><trkpt lat="39.7920867" lon="-0.2525117"><ele>117.0</ele><time>2026-04-05T08:50:56.664Z</time></trkpt><trkpt lat="39.79216" lon="-0.2523983"><ele>116.5</ele><time>2026-04-05T08:50:58.664Z</time></trkpt><trkpt lat="39.7922333" lon="-0.2522833"><ele>116.0</ele><time>2026-04-05T08:51:00.664Z</time></trkpt><trkpt lat="39.7923017" lon="-0.252155"><ele>115.5</ele><time>2026-04-05T08:51:02.665Z</time></trkpt><trkpt lat="39.7923733" lon="-0.2520283"><ele>115.0</ele><time>2026-04-05T08:51:04.664Z</time></trkpt><trkpt lat="39.7924433" lon="-0.2519"><ele>115.0</ele><time>2026-04-05T08:51:06.664Z</time></trkpt><trkpt lat="39.7925117" lon="-0.2517733"><ele>115.0</ele><time>2026-04-05T08:51:08.664Z</time></trkpt><trkpt lat="39.7925833" lon="-0.25165"><ele>115.0</ele><time>2026-04-05T08:51:10.665Z</time></trkpt><trkpt lat="39.7926617" lon="-0.2515417"><ele>115.0</ele><time>2026-04-05T08:51:12.664Z</time></trkpt><trkpt lat="39.792735" lon="-0.2514267"><ele>114.8</ele><time>2026-04-05T08:51:14.665Z</time></trkpt><trkpt lat="39.7928083" lon="-0.251295"><ele>114.6</ele><time>2026-04-05T08:51:16.664Z</time></trkpt><trkpt lat="39.792885" lon="-0.2511767"><ele>114.4</ele><time>2026-04-05T08:51:18.664Z</time></trkpt><trkpt lat="39.7929233" lon="-0.25111"><ele>114.2</ele><time>2026-04-05T08:51:19.664Z</time></trkpt><trkpt lat="39.7929933" lon="-0.2509767"><ele>114.0</ele><time>2026-04-05T08:51:21.665Z</time></trkpt><trkpt lat="39.7930583" lon="-0.2508467"><ele>114.0</ele><time>2026-04-05T08:51:23.664Z</time></trkpt><trkpt lat="39.793095" lon="-0.25078"><ele>114.0</ele><time>2026-04-05T08:51:24.664Z</time></trkpt><trkpt lat="39.7931567" lon="-0.2506483"><ele>114.0</ele><time>2026-04-05T08:51:26.665Z</time></trkpt><trkpt lat="39.7932167" lon="-0.2505133"><ele>114.0</ele><time>2026-04-05T08:51:28.665Z</time></trkpt><trkpt lat="39.7932717" lon="-0.250385"><ele>114.0</ele><time>2026-04-05T08:51:30.664Z</time></trkpt><trkpt lat="39.7933217" lon="-0.2502483"><ele>114.0</ele><time>2026-04-05T08:51:32.665Z</time></trkpt><trkpt lat="39.7933833" lon="-0.2501117"><ele>114.0</ele><time>2026-04-05T08:51:34.664Z</time></trkpt><trkpt lat="39.7934633" lon="-0.249985"><ele>114.0</ele><time>2026-04-05T08:51:36.664Z</time></trkpt><trkpt lat="39.7935367" lon="-0.2498717"><ele>114.0</ele><time>2026-04-05T08:51:38.664Z</time></trkpt><trkpt lat="39.7936117" lon="-0.2497483"><ele>113.25</ele><time>2026-04-05T08:51:40.664Z</time></trkpt><trkpt lat="39.7936967" lon="-0.2496317"><ele>112.5</ele><time>2026-04-05T08:51:42.664Z</time></trkpt><trkpt lat="39.7937817" lon="-0.2495267"><ele>111.75</ele><time>2026-04-05T08:51:44.665Z</time></trkpt><trkpt lat="39.793865" lon="-0.2494267"><ele>111.0</ele><time>2026-04-05T08:51:46.664Z</time></trkpt><trkpt lat="39.79395" lon="-0.2493367"><ele>111.0</ele><time>2026-04-05T08:51:48.664Z</time></trkpt><trkpt lat="39.79404" lon="-0.2492617"><ele>111.0</ele><time>2026-04-05T08:51:50.664Z</time></trkpt><trkpt lat="39.7941367" lon="-0.2492033"><ele>111.0</ele><time>2026-04-05T08:51:52.664Z</time></trkpt><trkpt lat="39.7942383" lon="-0.249155"><ele>111.0</ele><time>2026-04-05T08:51:54.664Z</time></trkpt><trkpt lat="39.7943383" lon="-0.24912"><ele>111.0</ele><time>2026-04-05T08:51:56.664Z</time></trkpt><trkpt lat="39.7944267" lon="-0.2490817"><ele>111.0</ele><time>2026-04-05T08:51:58.664Z</time></trkpt><trkpt lat="39.79451" lon="-0.2490683"><ele>111.0</ele><time>2026-04-05T08:52:00.664Z</time></trkpt><trkpt lat="39.7945933" lon="-0.249045"><ele>111.0</ele><time>2026-04-05T08:52:02.664Z</time></trkpt><trkpt lat="39.794675" lon="-0.2490117"><ele>111.0</ele><time>2026-04-05T08:52:04.665Z</time></trkpt><trkpt lat="39.7947483" lon="-0.2489567"><ele>111.0</ele><time>2026-04-05T08:52:06.664Z</time></trkpt><trkpt lat="39.794815" lon="-0.2488933"><ele>111.0</ele><time>2026-04-05T08:52:08.665Z</time></trkpt><trkpt lat="39.7948967" lon="-0.248845"><ele>110.8</ele><time>2026-04-05T08:52:10.665Z</time></trkpt><trkpt lat="39.7949883" lon="-0.24883"><ele>110.6</ele><time>2026-04-05T08:52:12.664Z</time></trkpt><trkpt lat="39.7950783" lon="-0.24881"><ele>110.4</ele><time>2026-04-05T08:52:14.664Z</time></trkpt><trkpt lat="39.7951717" lon="-0.248795"><ele>110.2</ele><time>2026-04-05T08:52:16.664Z</time></trkpt><trkpt lat="39.795265" lon="-0.2487817"><ele>110.0</ele><time>2026-04-05T08:52:18.664Z</time></trkpt><trkpt lat="39.7953567" lon="-0.2487683"><ele>110.0</ele><time>2026-04-05T08:52:20.664Z</time></trkpt><trkpt lat="39.79545" lon="-0.24874"><ele>110.0</ele><time>2026-04-05T08:52:22.665Z</time></trkpt><trkpt lat="39.7955417" lon="-0.2486967"><ele>110.0</ele><time>2026-04-05T08:52:24.664Z</time></trkpt><trkpt lat="39.7956333" lon="-0.2486533"><ele>110.0</ele><time>2026-04-05T08:52:26.665Z</time></trkpt><trkpt lat="39.7957233" lon="-0.2485867"><ele>110.0</ele><time>2026-04-05T08:52:28.664Z</time></trkpt><trkpt lat="39.7958133" lon="-0.248515"><ele>110.0</ele><time>2026-04-05T08:52:30.664Z</time></trkpt><trkpt lat="39.795895" lon="-0.2484233"><ele>110.0</ele><time>2026-04-05T08:52:32.664Z</time></trkpt><trkpt lat="39.7959683" lon="-0.248325"><ele>110.0</ele><time>2026-04-05T08:52:34.664Z</time></trkpt><trkpt lat="39.79604" lon="-0.2482217"><ele>110.0</ele><time>2026-04-05T08:52:36.664Z</time></trkpt><trkpt lat="39.7960983" lon="-0.24811"><ele>110.0</ele><time>2026-04-05T08:52:38.664Z</time></trkpt><trkpt lat="39.7961533" lon="-0.2479967"><ele>109.8</ele><time>2026-04-05T08:52:40.664Z</time></trkpt><trkpt lat="39.796215" lon="-0.2478867"><ele>109.6</ele><time>2026-04-05T08:52:42.665Z</time></trkpt><trkpt lat="39.7962733" lon="-0.247785"><ele>109.4</ele><time>2026-04-05T08:52:44.664Z</time></trkpt><trkpt lat="39.7963333" lon="-0.2476783"><ele>109.2</ele><time>2026-04-05T08:52:46.664Z</time></trkpt><trkpt lat="39.796395" lon="-0.247575"><ele>109.0</ele><time>2026-04-05T08:52:48.664Z</time></trkpt><trkpt lat="39.7964583" lon="-0.2474717"><ele>109.0</ele><time>2026-04-05T08:52:50.664Z</time></trkpt><trkpt lat="39.7965267" lon="-0.2473667"><ele>109.0</ele><time>2026-04-05T08:52:52.664Z</time></trkpt><trkpt lat="39.7965933" lon="-0.24726"><ele>109.0</ele><time>2026-04-05T08:52:54.665Z</time></trkpt><trkpt lat="39.7966667" lon="-0.2471667"><ele>109.0</ele><time>2026-04-05T08:52:56.664Z</time></trkpt><trkpt lat="39.796735" lon="-0.2470683"><ele>109.0</ele><time>2026-04-05T08:52:58.664Z</time></trkpt><trkpt lat="39.7968" lon="-0.2469667"><ele>109.2</ele><time>2026-04-05T08:53:00.664Z</time></trkpt><trkpt lat="39.79687" lon="-0.2468733"><ele>109.4</ele><time>2026-04-05T08:53:02.665Z</time></trkpt><trkpt lat="39.796945" lon="-0.2467817"><ele>109.6</ele><time>2026-04-05T08:53:04.664Z</time></trkpt><trkpt lat="39.7970217" lon="-0.246695"><ele>109.8</ele><time>2026-04-05T08:53:06.664Z</time></trkpt><trkpt lat="39.7970983" lon="-0.2466"><ele>110.0</ele><time>2026-04-05T08:53:08.664Z</time></trkpt><trkpt lat="39.7971717" lon="-0.2465033"><ele>110.0</ele><time>2026-04-05T08:53:10.664Z</time></trkpt><trkpt lat="39.79726" lon="-0.2464183"><ele>110.0</ele><time>2026-04-05T08:53:12.664Z</time></trkpt><trkpt lat="39.7973417" lon="-0.2463333"><ele>110.0</ele><time>2026-04-05T08:53:14.664Z</time></trkpt><trkpt lat="39.79742" lon="-0.24624"><ele>110.0</ele><time>2026-04-05T08:53:16.664Z</time></trkpt><trkpt lat="39.797505" lon="-0.246145"><ele>110.0</ele><time>2026-04-05T08:53:18.664Z</time></trkpt><trkpt lat="39.7975917" lon="-0.2460483"><ele>110.0</ele><time>2026-04-05T08:53:20.664Z</time></trkpt><trkpt lat="39.7976667" lon="-0.2459483"><ele>110.0</ele><time>2026-04-05T08:53:22.664Z</time></trkpt><trkpt lat="39.7977467" lon="-0.24585"><ele>110.0</ele><time>2026-04-05T08:53:24.664Z</time></trkpt><trkpt lat="39.7978283" lon="-0.24576"><ele>110.0</ele><time>2026-04-05T08:53:26.664Z</time></trkpt><trkpt lat="39.7979133" lon="-0.2456767"><ele>110.0</ele><time>2026-04-05T08:53:28.664Z</time></trkpt><trkpt lat="39.7979983" lon="-0.2455967"><ele>109.4</ele><time>2026-04-05T08:53:30.664Z</time></trkpt><trkpt lat="39.7980833" lon="-0.2455133"><ele>108.8</ele><time>2026-04-05T08:53:32.665Z</time></trkpt><trkpt lat="39.7981717" lon="-0.2454217"><ele>108.19999999999999</ele><time>2026-04-05T08:53:34.664Z</time></trkpt><trkpt lat="39.79825" lon="-0.24532"><ele>107.6</ele><time>2026-04-05T08:53:36.665Z</time></trkpt><trkpt lat="39.798325" lon="-0.24522"><ele>107.0</ele><time>2026-04-05T08:53:38.664Z</time></trkpt><trkpt lat="39.7984033" lon="-0.2451317"><ele>107.0</ele><time>2026-04-05T08:53:40.665Z</time></trkpt><trkpt lat="39.7984817" lon="-0.245045"><ele>106.99999999999999</ele><time>2026-04-05T08:53:42.664Z</time></trkpt><trkpt lat="39.7985633" lon="-0.24496"><ele>106.99999999999999</ele><time>2026-04-05T08:53:44.665Z</time></trkpt><trkpt lat="39.79865" lon="-0.2448667"><ele>107.0</ele><time>2026-04-05T08:53:46.664Z</time></trkpt><trkpt lat="39.7987417" lon="-0.244775"><ele>107.0</ele><time>2026-04-05T08:53:48.664Z</time></trkpt><trkpt lat="39.79883" lon="-0.2446717"><ele>106.8</ele><time>2026-04-05T08:53:50.664Z</time></trkpt><trkpt lat="39.7989167" lon="-0.24457"><ele>106.6</ele><time>2026-04-05T08:53:52.664Z</time></trkpt><trkpt lat="39.799" lon="-0.2444683"><ele>106.39999999999999</ele><time>2026-04-05T08:53:54.664Z</time></trkpt><trkpt lat="39.7990883" lon="-0.2443667"><ele>106.19999999999999</ele><time>2026-04-05T08:53:56.665Z</time></trkpt><trkpt lat="39.7991417" lon="-0.2443217"><ele>106.0</ele><time>2026-04-05T08:53:57.664Z</time></trkpt><trkpt lat="39.79923" lon="-0.244225"><ele>106.0</ele><time>2026-04-05T08:53:59.664Z</time></trkpt><trkpt lat="39.799315" lon="-0.244125"><ele>106.0</ele><time>2026-04-05T08:54:01.664Z</time></trkpt><trkpt lat="39.7993933" lon="-0.2440117"><ele>106.0</ele><time>2026-04-05T08:54:03.665Z</time></trkpt><trkpt lat="39.7994917" lon="-0.2439083"><ele>106.0</ele><time>2026-04-05T08:54:05.664Z</time></trkpt><trkpt lat="39.799585" lon="-0.243805"><ele>105.4</ele><time>2026-04-05T08:54:07.664Z</time></trkpt><trkpt lat="39.7996783" lon="-0.2437017"><ele>104.8</ele><time>2026-04-05T08:54:09.665Z</time></trkpt><trkpt lat="39.7997333" lon="-0.243655"><ele>104.2</ele><time>2026-04-05T08:54:10.664Z</time></trkpt><trkpt lat="39.7998167" lon="-0.24354"><ele>103.60000000000001</ele><time>2026-04-05T08:54:12.665Z</time></trkpt><trkpt lat="39.799865" lon="-0.2434867"><ele>103.0</ele><time>2026-04-05T08:54:13.664Z</time></trkpt><trkpt lat="39.7999583" lon="-0.24338"><ele>103.0</ele><time>2026-04-05T08:54:15.664Z</time></trkpt><trkpt lat="39.8000517" lon="-0.24328"><ele>103.0</ele><time>2026-04-05T08:54:17.664Z</time></trkpt><trkpt lat="39.800135" lon="-0.2431833"><ele>103.0</ele><time>2026-04-05T08:54:19.665Z</time></trkpt><trkpt lat="39.800225" lon="-0.2430783"><ele>103.0</ele><time>2026-04-05T08:54:21.664Z</time></trkpt><trkpt lat="39.8003117" lon="-0.24297"><ele>102.5</ele><time>2026-04-05T08:54:23.664Z</time></trkpt><trkpt lat="39.8003983" lon="-0.2428633"><ele>102.0</ele><time>2026-04-05T08:54:25.664Z</time></trkpt><trkpt lat="39.8004933" lon="-0.2427667"><ele>101.5</ele><time>2026-04-05T08:54:27.665Z</time></trkpt><trkpt lat="39.8005717" lon="-0.2426717"><ele>101.0</ele><time>2026-04-05T08:54:29.664Z</time></trkpt><trkpt lat="39.800655" lon="-0.2425667"><ele>101.0</ele><time>2026-04-05T08:54:31.664Z</time></trkpt><trkpt lat="39.80074" lon="-0.2424583"><ele>101.0</ele><time>2026-04-05T08:54:33.664Z</time></trkpt><trkpt lat="39.800825" lon="-0.2423617"><ele>101.0</ele><time>2026-04-05T08:54:35.665Z</time></trkpt><trkpt lat="39.800915" lon="-0.242255"><ele>101.0</ele><time>2026-04-05T08:54:37.664Z</time></trkpt><trkpt lat="39.8009983" lon="-0.2421483"><ele>100.4</ele><time>2026-04-05T08:54:39.664Z</time></trkpt><trkpt lat="39.8010433" lon="-0.24209"><ele>99.8</ele><time>2026-04-05T08:54:40.664Z</time></trkpt><trkpt lat="39.8011333" lon="-0.24198"><ele>99.2</ele><time>2026-04-05T08:54:42.665Z</time></trkpt><trkpt lat="39.801225" lon="-0.241875"><ele>98.60000000000001</ele><time>2026-04-05T08:54:44.664Z</time></trkpt><trkpt lat="39.8013167" lon="-0.2417583"><ele>98.0</ele><time>2026-04-05T08:54:46.664Z</time></trkpt><trkpt lat="39.8013667" lon="-0.241705"><ele>97.99999999999999</ele><time>2026-04-05T08:54:47.665Z</time></trkpt><trkpt lat="39.801415" lon="-0.2416517"><ele>98.0</ele><time>2026-04-05T08:54:48.665Z</time></trkpt><trkpt lat="39.801465" lon="-0.241595"><ele>98.0</ele><time>2026-04-05T08:54:49.664Z</time></trkpt><trkpt lat="39.8015517" lon="-0.2414783"><ele>98.0</ele><time>2026-04-05T08:54:51.664Z</time></trkpt><trkpt lat="39.8015983" lon="-0.241415"><ele>97.99999999999999</ele><time>2026-04-05T08:54:52.664Z</time></trkpt><trkpt lat="39.801645" lon="-0.241355"><ele>98.0</ele><time>2026-04-05T08:54:53.664Z</time></trkpt><trkpt lat="39.801695" lon="-0.2412967"><ele>97.85714285714286</ele><time>2026-04-05T08:54:54.664Z</time></trkpt><trkpt lat="39.8017467" lon="-0.2412417"><ele>97.71428571428572</ele><time>2026-04-05T08:54:55.664Z</time></trkpt><trkpt lat="39.8017933" lon="-0.2411833"><ele>97.57142857142857</ele><time>2026-04-05T08:54:56.664Z</time></trkpt><trkpt lat="39.8018417" lon="-0.2411267"><ele>97.42857142857143</ele><time>2026-04-05T08:54:57.664Z</time></trkpt><trkpt lat="39.8018883" lon="-0.24107"><ele>97.28571428571429</ele><time>2026-04-05T08:54:58.664Z</time></trkpt><trkpt lat="39.801935" lon="-0.2410133"><ele>97.14285714285714</ele><time>2026-04-05T08:54:59.664Z</time></trkpt><trkpt lat="39.80198" lon="-0.2409533"><ele>97.0</ele><time>2026-04-05T08:55:00.664Z</time></trkpt><trkpt lat="39.8020667" lon="-0.240835"><ele>96.75</ele><time>2026-04-05T08:55:02.665Z</time></trkpt><trkpt lat="39.802155" lon="-0.2407317"><ele>96.5</ele><time>2026-04-05T08:55:04.664Z</time></trkpt><trkpt lat="39.802235" lon="-0.2406233"><ele>96.25</ele><time>2026-04-05T08:55:06.665Z</time></trkpt><trkpt lat="39.8023167" lon="-0.2405233"><ele>96.0</ele><time>2026-04-05T08:55:08.664Z</time></trkpt><trkpt lat="39.802395" lon="-0.2404233"><ele>95.75</ele><time>2026-04-05T08:55:10.665Z</time></trkpt><trkpt lat="39.8024767" lon="-0.2403233"><ele>95.5</ele><time>2026-04-05T08:55:12.664Z</time></trkpt><trkpt lat="39.8025517" lon="-0.2402133"><ele>95.25</ele><time>2026-04-05T08:55:14.664Z</time></trkpt><trkpt lat="39.8026267" lon="-0.2401083"><ele>95.0</ele><time>2026-04-05T08:55:16.664Z</time></trkpt><trkpt lat="39.8027117" lon="-0.2400083"><ele>95.0</ele><time>2026-04-05T08:55:18.664Z</time></trkpt><trkpt lat="39.8027933" lon="-0.2398967"><ele>95.0</ele><time>2026-04-05T08:55:20.664Z</time></trkpt><trkpt lat="39.8028783" lon="-0.2397883"><ele>95.0</ele><time>2026-04-05T08:55:22.664Z</time></trkpt><trkpt lat="39.8029667" lon="-0.2396883"><ele>95.0</ele><time>2026-04-05T08:55:24.664Z</time></trkpt><trkpt lat="39.8030483" lon="-0.23959"><ele>94.8</ele><time>2026-04-05T08:55:26.664Z</time></trkpt><trkpt lat="39.8031267" lon="-0.239495"><ele>94.6</ele><time>2026-04-05T08:55:28.665Z</time></trkpt><trkpt lat="39.8031933" lon="-0.2394067"><ele>94.4</ele><time>2026-04-05T08:55:30.664Z</time></trkpt><trkpt lat="39.80327" lon="-0.2393217"><ele>94.2</ele><time>2026-04-05T08:55:32.664Z</time></trkpt><trkpt lat="39.8033483" lon="-0.239225"><ele>94.0</ele><time>2026-04-05T08:55:34.664Z</time></trkpt><trkpt lat="39.8034283" lon="-0.2391267"><ele>94.2</ele><time>2026-04-05T08:55:36.664Z</time></trkpt><trkpt lat="39.8035117" lon="-0.2390433"><ele>94.4</ele><time>2026-04-05T08:55:38.664Z</time></trkpt><trkpt lat="39.8035917" lon="-0.2389567"><ele>94.6</ele><time>2026-04-05T08:55:40.664Z</time></trkpt><trkpt lat="39.8036783" lon="-0.2388717"><ele>94.8</ele><time>2026-04-05T08:55:42.664Z</time></trkpt><trkpt lat="39.8037617" lon="-0.2387867"><ele>95.0</ele><time>2026-04-05T08:55:44.664Z</time></trkpt><trkpt lat="39.8038433" lon="-0.2387067"><ele>94.2</ele><time>2026-04-05T08:55:46.664Z</time></trkpt><trkpt lat="39.8039217" lon="-0.2386333"><ele>93.4</ele><time>2026-04-05T08:55:48.664Z</time></trkpt><trkpt lat="39.8039933" lon="-0.2385567"><ele>92.6</ele><time>2026-04-05T08:55:50.664Z</time></trkpt><trkpt lat="39.804075" lon="-0.2384817"><ele>91.8</ele><time>2026-04-05T08:55:52.664Z</time></trkpt><trkpt lat="39.8041567" lon="-0.2384083"><ele>91.0</ele><time>2026-04-05T08:55:54.664Z</time></trkpt><trkpt lat="39.8042267" lon="-0.238345"><ele>91.0</ele><time>2026-04-05T08:55:56.665Z</time></trkpt><trkpt lat="39.8043083" lon="-0.238265"><ele>91.0</ele><time>2026-04-05T08:55:58.664Z</time></trkpt><trkpt lat="39.8043833" lon="-0.2381917"><ele>91.0</ele><time>2026-04-05T08:56:00.664Z</time></trkpt><trkpt lat="39.8044533" lon="-0.2381283"><ele>91.0</ele><time>2026-04-05T08:56:02.664Z</time></trkpt><trkpt lat="39.8045267" lon="-0.2380617"><ele>91.0</ele><time>2026-04-05T08:56:04.665Z</time></trkpt><trkpt lat="39.8045983" lon="-0.237995"><ele>91.0</ele><time>2026-04-05T08:56:06.664Z</time></trkpt><trkpt lat="39.80467" lon="-0.2379317"><ele>91.0</ele><time>2026-04-05T08:56:08.664Z</time></trkpt><trkpt lat="39.8047417" lon="-0.2378667"><ele>91.0</ele><time>2026-04-05T08:56:10.664Z</time></trkpt><trkpt lat="39.804805" lon="-0.2377917"><ele>91.0</ele><time>2026-04-05T08:56:12.664Z</time></trkpt><trkpt lat="39.80488" lon="-0.23772"><ele>91.0</ele><time>2026-04-05T08:56:14.664Z</time></trkpt><trkpt lat="39.8049583" lon="-0.2376583"><ele>91.0</ele><time>2026-04-05T08:56:16.665Z</time></trkpt><trkpt lat="39.8050267" lon="-0.2375867"><ele>91.0</ele><time>2026-04-05T08:56:18.664Z</time></trkpt><trkpt lat="39.8050983" lon="-0.237525"><ele>91.0</ele><time>2026-04-05T08:56:20.664Z</time></trkpt><trkpt lat="39.8051683" lon="-0.2374583"><ele>91.0</ele><time>2026-04-05T08:56:22.664Z</time></trkpt><trkpt lat="39.8052467" lon="-0.2373933"><ele>91.0</ele><time>2026-04-05T08:56:24.664Z</time></trkpt><trkpt lat="39.8053217" lon="-0.2373217"><ele>91.0</ele><time>2026-04-05T08:56:26.664Z</time></trkpt><trkpt lat="39.8053917" lon="-0.23725"><ele>91.0</ele><time>2026-04-05T08:56:28.665Z</time></trkpt><trkpt lat="39.8054633" lon="-0.2371867"><ele>91.0</ele><time>2026-04-05T08:56:30.665Z</time></trkpt><trkpt lat="39.8055383" lon="-0.23712"><ele>91.0</ele><time>2026-04-05T08:56:32.664Z</time></trkpt><trkpt lat="39.805605" lon="-0.2370683"><ele>91.0</ele><time>2026-04-05T08:56:34.664Z</time></trkpt><trkpt lat="39.8056733" lon="-0.2370133"><ele>91.0</ele><time>2026-04-05T08:56:36.664Z</time></trkpt><trkpt lat="39.8057467" lon="-0.236965"><ele>91.0</ele><time>2026-04-05T08:56:38.665Z</time></trkpt><trkpt lat="39.80582" lon="-0.2369117"><ele>91.0</ele><time>2026-04-05T08:56:40.664Z</time></trkpt><trkpt lat="39.8058933" lon="-0.2368583"><ele>91.0</ele><time>2026-04-05T08:56:42.664Z</time></trkpt><trkpt lat="39.805965" lon="-0.2368017"><ele>91.0</ele><time>2026-04-05T08:56:44.664Z</time></trkpt><trkpt lat="39.8060433" lon="-0.23675"><ele>91.0</ele><time>2026-04-05T08:56:46.664Z</time></trkpt><trkpt lat="39.8061117" lon="-0.2366967"><ele>91.0</ele><time>2026-04-05T08:56:48.664Z</time></trkpt><trkpt lat="39.8061717" lon="-0.236645"><ele>91.0</ele><time>2026-04-05T08:56:50.664Z</time></trkpt><trkpt lat="39.806245" lon="-0.23659"><ele>91.0</ele><time>2026-04-05T08:56:52.664Z</time></trkpt><trkpt lat="39.80631" lon="-0.2365317"><ele>91.0</ele><time>2026-04-05T08:56:54.664Z</time></trkpt><trkpt lat="39.8063717" lon="-0.2364667"><ele>91.0</ele><time>2026-04-05T08:56:56.664Z</time></trkpt><trkpt lat="39.8064267" lon="-0.2364117"><ele>91.0</ele><time>2026-04-05T08:56:58.664Z</time></trkpt><trkpt lat="39.80649" lon="-0.23638"><ele>91.0</ele><time>2026-04-05T08:57:00.664Z</time></trkpt><trkpt lat="39.8065517" lon="-0.23642"><ele>91.0</ele><time>2026-04-05T08:57:02.664Z</time></trkpt><trkpt lat="39.8065983" lon="-0.2365117"><ele>91.0</ele><time>2026-04-05T08:57:05.664Z</time></trkpt><trkpt lat="39.8066517" lon="-0.23658"><ele>91.0</ele><time>2026-04-05T08:57:08.665Z</time></trkpt><trkpt lat="39.8067233" lon="-0.2366083"><ele>92.16666666666666</ele><time>2026-04-05T08:57:11.664Z</time></trkpt><trkpt lat="39.8067933" lon="-0.2366067"><ele>93.33333333333333</ele><time>2026-04-05T08:57:14.664Z</time></trkpt><trkpt lat="39.806865" lon="-0.2365983"><ele>94.5</ele><time>2026-04-05T08:57:17.664Z</time></trkpt><trkpt lat="39.8069467" lon="-0.2365933"><ele>95.66666666666666</ele><time>2026-04-05T08:57:20.664Z</time></trkpt><trkpt lat="39.8070267" lon="-0.23658"><ele>96.83333333333333</ele><time>2026-04-05T08:57:23.664Z</time></trkpt><trkpt lat="39.80711" lon="-0.236575"><ele>98.0</ele><time>2026-04-05T08:57:26.664Z</time></trkpt><trkpt lat="39.8071733" lon="-0.2365867"><ele>98.85714285714286</ele><time>2026-04-05T08:57:28.664Z</time></trkpt><trkpt lat="39.8072417" lon="-0.2365933"><ele>99.71428571428572</ele><time>2026-04-05T08:57:30.664Z</time></trkpt><trkpt lat="39.8073233" lon="-0.23659"><ele>100.57142857142857</ele><time>2026-04-05T08:57:32.665Z</time></trkpt><trkpt lat="39.8074067" lon="-0.2365867"><ele>101.42857142857143</ele><time>2026-04-05T08:57:34.664Z</time></trkpt><trkpt lat="39.8074767" lon="-0.2366083"><ele>102.28571428571429</ele><time>2026-04-05T08:57:36.665Z</time></trkpt><trkpt lat="39.8075383" lon="-0.23665"><ele>103.14285714285714</ele><time>2026-04-05T08:57:38.664Z</time></trkpt><trkpt lat="39.8075983" lon="-0.236695"><ele>104.0</ele><time>2026-04-05T08:57:40.665Z</time></trkpt><trkpt lat="39.8076567" lon="-0.2367667"><ele>103.66666666666666</ele><time>2026-04-05T08:57:42.664Z</time></trkpt><trkpt lat="39.8077183" lon="-0.2368533"><ele>103.33333333333333</ele><time>2026-04-05T08:57:44.664Z</time></trkpt><trkpt lat="39.80777" lon="-0.236935"><ele>103.0</ele><time>2026-04-05T08:57:46.664Z</time></trkpt><trkpt lat="39.8078117" lon="-0.23702"><ele>102.66666666666666</ele><time>2026-04-05T08:57:48.664Z</time></trkpt><trkpt lat="39.807855" lon="-0.237115"><ele>102.33333333333333</ele><time>2026-04-05T08:57:50.664Z</time></trkpt><trkpt lat="39.8078867" lon="-0.237215"><ele>102.0</ele><time>2026-04-05T08:57:52.664Z</time></trkpt><trkpt lat="39.8079217" lon="-0.2373217"><ele>102.8</ele><time>2026-04-05T08:57:54.664Z</time></trkpt><trkpt lat="39.8079667" lon="-0.2374117"><ele>103.6</ele><time>2026-04-05T08:57:56.664Z</time></trkpt><trkpt lat="39.8080033" lon="-0.2375183"><ele>104.39999999999999</ele><time>2026-04-05T08:57:58.665Z</time></trkpt><trkpt lat="39.8080417" lon="-0.2376317"><ele>105.19999999999999</ele><time>2026-04-05T08:58:00.665Z</time></trkpt><trkpt lat="39.8080733" lon="-0.23775"><ele>106.0</ele><time>2026-04-05T08:58:02.664Z</time></trkpt><trkpt lat="39.808085" lon="-0.237865"><ele>106.00000000000001</ele><time>2026-04-05T08:58:04.664Z</time></trkpt><trkpt lat="39.8080733" lon="-0.2379683"><ele>106.0</ele><time>2026-04-05T08:58:06.664Z</time></trkpt><trkpt lat="39.80805" lon="-0.238065"><ele>106.0</ele><time>2026-04-05T08:58:08.665Z</time></trkpt><trkpt lat="39.80803" lon="-0.2381783"><ele>106.0</ele><time>2026-04-05T08:58:10.665Z</time></trkpt><trkpt lat="39.8080117" lon="-0.23829"><ele>106.00000000000001</ele><time>2026-04-05T08:58:12.665Z</time></trkpt><trkpt lat="39.8079917" lon="-0.2383917"><ele>106.0</ele><time>2026-04-05T08:58:14.665Z</time></trkpt><trkpt lat="39.8079567" lon="-0.238475"><ele>106.16666666666667</ele><time>2026-04-05T08:58:16.664Z</time></trkpt><trkpt lat="39.80792" lon="-0.23856"><ele>106.33333333333334</ele><time>2026-04-05T08:58:18.665Z</time></trkpt><trkpt lat="39.80789" lon="-0.2386467"><ele>106.5</ele><time>2026-04-05T08:58:20.664Z</time></trkpt><trkpt lat="39.80791" lon="-0.2387533"><ele>106.66666666666666</ele><time>2026-04-05T08:58:22.664Z</time></trkpt><trkpt lat="39.8079717" lon="-0.2388367"><ele>106.83333333333333</ele><time>2026-04-05T08:58:24.664Z</time></trkpt><trkpt lat="39.8080567" lon="-0.2388983"><ele>107.0</ele><time>2026-04-05T08:58:26.664Z</time></trkpt><trkpt lat="39.80813" lon="-0.238955"><ele>107.19999999999999</ele><time>2026-04-05T08:58:28.664Z</time></trkpt><trkpt lat="39.8082033" lon="-0.2390167"><ele>107.39999999999999</ele><time>2026-04-05T08:58:30.664Z</time></trkpt><trkpt lat="39.8082817" lon="-0.239085"><ele>107.60000000000001</ele><time>2026-04-05T08:58:32.664Z</time></trkpt><trkpt lat="39.8083567" lon="-0.239155"><ele>107.80000000000001</ele><time>2026-04-05T08:58:34.665Z</time></trkpt><trkpt lat="39.8084317" lon="-0.2392133"><ele>108.0</ele><time>2026-04-05T08:58:36.664Z</time></trkpt><trkpt lat="39.8085133" lon="-0.2392817"><ele>108.16666666666667</ele><time>2026-04-05T08:58:38.664Z</time></trkpt><trkpt lat="39.808595" lon="-0.239345"><ele>108.33333333333334</ele><time>2026-04-05T08:58:40.664Z</time></trkpt><trkpt lat="39.80867" lon="-0.2394033"><ele>108.5</ele><time>2026-04-05T08:58:42.664Z</time></trkpt><trkpt lat="39.8087383" lon="-0.2394567"><ele>108.66666666666667</ele><time>2026-04-05T08:58:44.664Z</time></trkpt><trkpt lat="39.808805" lon="-0.239525"><ele>108.83333333333334</ele><time>2026-04-05T08:58:46.664Z</time></trkpt><trkpt lat="39.8088833" lon="-0.2395883"><ele>109.0</ele><time>2026-04-05T08:58:48.665Z</time></trkpt><trkpt lat="39.8089667" lon="-0.2396533"><ele>109.0</ele><time>2026-04-05T08:58:50.665Z</time></trkpt><trkpt lat="39.8090467" lon="-0.2397067"><ele>109.0</ele><time>2026-04-05T08:58:52.664Z</time></trkpt><trkpt lat="39.80913" lon="-0.2397583"><ele>109.0</ele><time>2026-04-05T08:58:54.664Z</time></trkpt><trkpt lat="39.8092117" lon="-0.2398283"><ele>109.0</ele><time>2026-04-05T08:58:56.664Z</time></trkpt><trkpt lat="39.80929" lon="-0.2399017"><ele>109.0</ele><time>2026-04-05T08:58:58.665Z</time></trkpt><trkpt lat="39.8093533" lon="-0.23997"><ele>110.00000000000001</ele><time>2026-04-05T08:59:00.664Z</time></trkpt><trkpt lat="39.8094217" lon="-0.2400317"><ele>111.0</ele><time>2026-04-05T08:59:02.664Z</time></trkpt><trkpt lat="39.8094933" lon="-0.240085"><ele>112.0</ele><time>2026-04-05T08:59:04.665Z</time></trkpt><trkpt lat="39.809565" lon="-0.2401233"><ele>113.0</ele><time>2026-04-05T08:59:06.664Z</time></trkpt><trkpt lat="39.8096383" lon="-0.24013"><ele>114.00000000000001</ele><time>2026-04-05T08:59:08.664Z</time></trkpt><trkpt lat="39.8096833" lon="-0.24007"><ele>115.0</ele><time>2026-04-05T08:59:10.664Z</time></trkpt><trkpt lat="39.809715" lon="-0.239965"><ele>115.00000000000001</ele><time>2026-04-05T08:59:12.664Z</time></trkpt><trkpt lat="39.80975" lon="-0.2398733"><ele>115.0</ele><time>2026-04-05T08:59:14.664Z</time></trkpt><trkpt lat="39.8098083" lon="-0.2398317"><ele>115.0</ele><time>2026-04-05T08:59:16.665Z</time></trkpt><trkpt lat="39.8099083" lon="-0.2398683"><ele>115.0</ele><time>2026-04-05T08:59:19.664Z</time></trkpt><trkpt lat="39.8099783" lon="-0.23991"><ele>115.00000000000001</ele><time>2026-04-05T08:59:21.664Z</time></trkpt><trkpt lat="39.8100417" lon="-0.2399517"><ele>115.0</ele><time>2026-04-05T08:59:23.664Z</time></trkpt><trkpt lat="39.810095" lon="-0.240005"><ele>114.99999999999999</ele><time>2026-04-05T08:59:25.664Z</time></trkpt><trkpt lat="39.8101517" lon="-0.240055"><ele>115.0</ele><time>2026-04-05T08:59:27.664Z</time></trkpt><trkpt lat="39.8102133" lon="-0.2401"><ele>114.99999999999999</ele><time>2026-04-05T08:59:29.664Z</time></trkpt><trkpt lat="39.8102717" lon="-0.240145"><ele>114.99999999999999</ele><time>2026-04-05T08:59:31.664Z</time></trkpt><trkpt lat="39.8103383" lon="-0.2401883"><ele>115.0</ele><time>2026-04-05T08:59:33.664Z</time></trkpt><trkpt lat="39.810395" lon="-0.2402533"><ele>114.99999999999999</ele><time>2026-04-05T08:59:35.664Z</time></trkpt><trkpt lat="39.8104617" lon="-0.2403033"><ele>114.99999999999999</ele><time>2026-04-05T08:59:37.664Z</time></trkpt><trkpt lat="39.8105317" lon="-0.2403117"><ele>116.00000000000001</ele><time>2026-04-05T08:59:39.665Z</time></trkpt><trkpt lat="39.8105967" lon="-0.2402833"><ele>117.0</ele><time>2026-04-05T08:59:41.665Z</time></trkpt><trkpt lat="39.810665" lon="-0.2402733"><ele>118.0</ele><time>2026-04-05T08:59:43.665Z</time></trkpt><trkpt lat="39.8107283" lon="-0.2403417"><ele>119.0</ele><time>2026-04-05T08:59:46.664Z</time></trkpt><trkpt lat="39.81074" lon="-0.2404367"><ele>120.00000000000001</ele><time>2026-04-05T08:59:48.664Z</time></trkpt><trkpt lat="39.8107667" lon="-0.24054"><ele>121.0</ele><time>2026-04-05T08:59:50.665Z</time></trkpt><trkpt lat="39.810805" lon="-0.24065"><ele>121.0</ele><time>2026-04-05T08:59:52.664Z</time></trkpt><trkpt lat="39.8108433" lon="-0.24076"><ele>121.0</ele><time>2026-04-05T08:59:54.664Z</time></trkpt><trkpt lat="39.8108867" lon="-0.240875"><ele>121.0</ele><time>2026-04-05T08:59:56.665Z</time></trkpt><trkpt lat="39.8109283" lon="-0.2409883"><ele>121.0</ele><time>2026-04-05T08:59:58.664Z</time></trkpt><trkpt lat="39.8109683" lon="-0.241105"><ele>121.0</ele><time>2026-04-05T09:00:00.664Z</time></trkpt><trkpt lat="39.811" lon="-0.241215"><ele>123.0</ele><time>2026-04-05T09:00:02.664Z</time></trkpt><trkpt lat="39.811025" lon="-0.2413433"><ele>125.0</ele><time>2026-04-05T09:00:04.664Z</time></trkpt><trkpt lat="39.81105" lon="-0.2414533"><ele>127.0</ele><time>2026-04-05T09:00:06.664Z</time></trkpt><trkpt lat="39.8110667" lon="-0.24158"><ele>129.0</ele><time>2026-04-05T09:00:08.664Z</time></trkpt><trkpt lat="39.8110833" lon="-0.2417033"><ele>131.0</ele><time>2026-04-05T09:00:10.664Z</time></trkpt><trkpt lat="39.8110967" lon="-0.2418283"><ele>131.4</ele><time>2026-04-05T09:00:12.665Z</time></trkpt><trkpt lat="39.8111083" lon="-0.2419683"><ele>131.8</ele><time>2026-04-05T09:00:14.664Z</time></trkpt><trkpt lat="39.8111217" lon="-0.2420933"><ele>132.20000000000002</ele><time>2026-04-05T09:00:16.664Z</time></trkpt><trkpt lat="39.8111283" lon="-0.2422133"><ele>132.6</ele><time>2026-04-05T09:00:18.664Z</time></trkpt><trkpt lat="39.81113" lon="-0.2423417"><ele>133.0</ele><time>2026-04-05T09:00:20.664Z</time></trkpt><trkpt lat="39.8111333" lon="-0.242465"><ele>133.0</ele><time>2026-04-05T09:00:22.664Z</time></trkpt><trkpt lat="39.8111433" lon="-0.2425933"><ele>133.0</ele><time>2026-04-05T09:00:24.664Z</time></trkpt><trkpt lat="39.8111533" lon="-0.2427083"><ele>133.0</ele><time>2026-04-05T09:00:26.664Z</time></trkpt><trkpt lat="39.81116" lon="-0.242825"><ele>133.0</ele><time>2026-04-05T09:00:28.665Z</time></trkpt><trkpt lat="39.8111617" lon="-0.24292"><ele>133.0</ele><time>2026-04-05T09:00:30.664Z</time></trkpt><trkpt lat="39.81117" lon="-0.243015"><ele>133.0</ele><time>2026-04-05T09:00:32.665Z</time></trkpt><trkpt lat="39.81118" lon="-0.2430983"><ele>133.33333333333334</ele><time>2026-04-05T09:00:34.664Z</time></trkpt><trkpt lat="39.8112067" lon="-0.2431767"><ele>133.66666666666669</ele><time>2026-04-05T09:00:36.665Z</time></trkpt><trkpt lat="39.8112217" lon="-0.2432667"><ele>134.0</ele><time>2026-04-05T09:00:38.664Z</time></trkpt><trkpt lat="39.8112383" lon="-0.24337"><ele>134.33333333333334</ele><time>2026-04-05T09:00:40.664Z</time></trkpt><trkpt lat="39.811255" lon="-0.2434683"><ele>134.66666666666666</ele><time>2026-04-05T09:00:42.664Z</time></trkpt><trkpt lat="39.8112767" lon="-0.24357"><ele>135.0</ele><time>2026-04-05T09:00:44.664Z</time></trkpt><trkpt lat="39.8113067" lon="-0.2436583"><ele>135.0</ele><time>2026-04-05T09:00:46.665Z</time></trkpt><trkpt lat="39.811325" lon="-0.2437583"><ele>135.0</ele><time>2026-04-05T09:00:48.664Z</time></trkpt><trkpt lat="39.8113433" lon="-0.2438583"><ele>135.0</ele><time>2026-04-05T09:00:50.664Z</time></trkpt><trkpt lat="39.8113667" lon="-0.2439567"><ele>135.0</ele><time>2026-04-05T09:00:52.664Z</time></trkpt><trkpt lat="39.8113967" lon="-0.2440517"><ele>135.0</ele><time>2026-04-05T09:00:54.664Z</time></trkpt><trkpt lat="39.8114183" lon="-0.2441433"><ele>135.0</ele><time>2026-04-05T09:00:56.664Z</time></trkpt><trkpt lat="39.8114417" lon="-0.2442367"><ele>134.6</ele><time>2026-04-05T09:00:58.665Z</time></trkpt><trkpt lat="39.8114933" lon="-0.2443333"><ele>134.2</ele><time>2026-04-05T09:01:00.665Z</time></trkpt><trkpt lat="39.81156" lon="-0.2444267"><ele>133.8</ele><time>2026-04-05T09:01:02.664Z</time></trkpt><trkpt lat="39.8116283" lon="-0.2445033"><ele>133.4</ele><time>2026-04-05T09:01:04.665Z</time></trkpt><trkpt lat="39.8117033" lon="-0.2445883"><ele>133.0</ele><time>2026-04-05T09:01:06.665Z</time></trkpt><trkpt lat="39.811785" lon="-0.2446683"><ele>134.16666666666669</ele><time>2026-04-05T09:01:08.664Z</time></trkpt><trkpt lat="39.8118617" lon="-0.24474"><ele>135.33333333333334</ele><time>2026-04-05T09:01:10.664Z</time></trkpt><trkpt lat="39.8119217" lon="-0.2448167"><ele>136.5</ele><time>2026-04-05T09:01:12.664Z</time></trkpt><trkpt lat="39.811965" lon="-0.244905"><ele>137.66666666666666</ele><time>2026-04-05T09:01:14.665Z</time></trkpt><trkpt lat="39.8119967" lon="-0.245005"><ele>138.83333333333331</ele><time>2026-04-05T09:01:16.664Z</time></trkpt><trkpt lat="39.8120133" lon="-0.2451167"><ele>140.0</ele><time>2026-04-05T09:01:18.664Z</time></trkpt><trkpt lat="39.8120467" lon="-0.2452083"><ele>140.0</ele><time>2026-04-05T09:01:20.664Z</time></trkpt><trkpt lat="39.812095" lon="-0.2453017"><ele>140.0</ele><time>2026-04-05T09:01:22.665Z</time></trkpt><trkpt lat="39.8121333" lon="-0.2453933"><ele>140.0</ele><time>2026-04-05T09:01:24.665Z</time></trkpt><trkpt lat="39.8122117" lon="-0.2454667"><ele>140.0</ele><time>2026-04-05T09:01:26.664Z</time></trkpt><trkpt lat="39.8122933" lon="-0.2454933"><ele>140.0</ele><time>2026-04-05T09:01:28.664Z</time></trkpt><trkpt lat="39.81237" lon="-0.2454717"><ele>140.0</ele><time>2026-04-05T09:01:30.664Z</time></trkpt><trkpt lat="39.8124417" lon="-0.2454383"><ele>140.0</ele><time>2026-04-05T09:01:32.664Z</time></trkpt><trkpt lat="39.8125183" lon="-0.2454133"><ele>140.0</ele><time>2026-04-05T09:01:34.664Z</time></trkpt><trkpt lat="39.8125983" lon="-0.2453833"><ele>140.0</ele><time>2026-04-05T09:01:36.664Z</time></trkpt><trkpt lat="39.8126683" lon="-0.245355"><ele>140.0</ele><time>2026-04-05T09:01:38.664Z</time></trkpt><trkpt lat="39.81274" lon="-0.2453167"><ele>140.0</ele><time>2026-04-05T09:01:40.664Z</time></trkpt><trkpt lat="39.8128217" lon="-0.2452883"><ele>140.0</ele><time>2026-04-05T09:01:42.664Z</time></trkpt><trkpt lat="39.8129033" lon="-0.245265"><ele>141.0</ele><time>2026-04-05T09:01:44.665Z</time></trkpt><trkpt lat="39.8129783" lon="-0.2452283"><ele>142.0</ele><time>2026-04-05T09:01:46.664Z</time></trkpt><trkpt lat="39.8130567" lon="-0.24519"><ele>143.0</ele><time>2026-04-05T09:01:48.664Z</time></trkpt><trkpt lat="39.8131367" lon="-0.2451533"><ele>144.0</ele><time>2026-04-05T09:01:50.665Z</time></trkpt><trkpt lat="39.8132117" lon="-0.2451333"><ele>145.0</ele><time>2026-04-05T09:01:52.665Z</time></trkpt><trkpt lat="39.8132817" lon="-0.2451417"><ele>146.0</ele><time>2026-04-05T09:01:54.664Z</time></trkpt><trkpt lat="39.8133383" lon="-0.2452117"><ele>146.0</ele><time>2026-04-05T09:01:57.664Z</time></trkpt><trkpt lat="39.8133667" lon="-0.2453017"><ele>146.0</ele><time>2026-04-05T09:01:59.664Z</time></trkpt><trkpt lat="39.81338" lon="-0.2454217"><ele>146.0</ele><time>2026-04-05T09:02:02.664Z</time></trkpt><trkpt lat="39.8134067" lon="-0.2454967"><ele>146.0</ele><time>2026-04-05T09:02:05.664Z</time></trkpt><trkpt lat="39.8134483" lon="-0.2455917"><ele>146.0</ele><time>2026-04-05T09:02:08.664Z</time></trkpt><trkpt lat="39.8134683" lon="-0.2456833"><ele>146.0</ele><time>2026-04-05T09:02:10.665Z</time></trkpt><trkpt lat="39.8135" lon="-0.2457683"><ele>147.57142857142856</ele><time>2026-04-05T09:02:12.664Z</time></trkpt><trkpt lat="39.8135217" lon="-0.24586"><ele>149.14285714285714</ele><time>2026-04-05T09:02:14.664Z</time></trkpt><trkpt lat="39.8135483" lon="-0.2459433"><ele>150.71428571428572</ele><time>2026-04-05T09:02:16.664Z</time></trkpt><trkpt lat="39.813565" lon="-0.2460233"><ele>152.28571428571428</ele><time>2026-04-05T09:02:18.664Z</time></trkpt><trkpt lat="39.8135817" lon="-0.2461183"><ele>153.85714285714286</ele><time>2026-04-05T09:02:20.664Z</time></trkpt><trkpt lat="39.8135867" lon="-0.2462183"><ele>155.42857142857142</ele><time>2026-04-05T09:02:22.664Z</time></trkpt><trkpt lat="39.8135883" lon="-0.2463283"><ele>157.0</ele><time>2026-04-05T09:02:24.664Z</time></trkpt><trkpt lat="39.813595" lon="-0.246455"><ele>157.0</ele><time>2026-04-05T09:02:26.664Z</time></trkpt><trkpt lat="39.813585" lon="-0.2465783"><ele>157.0</ele><time>2026-04-05T09:02:28.665Z</time></trkpt><trkpt lat="39.8135867" lon="-0.24669"><ele>157.0</ele><time>2026-04-05T09:02:30.664Z</time></trkpt><trkpt lat="39.8136133" lon="-0.2467867"><ele>157.0</ele><time>2026-04-05T09:02:32.664Z</time></trkpt><trkpt lat="39.8136533" lon="-0.2468617"><ele>157.0</ele><time>2026-04-05T09:02:34.664Z</time></trkpt><trkpt lat="39.8137067" lon="-0.2469183"><ele>157.0</ele><time>2026-04-05T09:02:36.664Z</time></trkpt><trkpt lat="39.8137833" lon="-0.2469633"><ele>156.99999999999997</ele><time>2026-04-05T09:02:39.664Z</time></trkpt><trkpt lat="39.8138467" lon="-0.2469917"><ele>157.0</ele><time>2026-04-05T09:02:42.664Z</time></trkpt><trkpt lat="39.8138983" lon="-0.2470467"><ele>157.0</ele><time>2026-04-05T09:02:45.664Z</time></trkpt><trkpt lat="39.8139517" lon="-0.2471"><ele>157.0</ele><time>2026-04-05T09:02:49.665Z</time></trkpt><trkpt lat="39.8139783" lon="-0.2471767"><ele>157.0</ele><time>2026-04-05T09:02:52.664Z</time></trkpt><trkpt lat="39.8140083" lon="-0.2472817"><ele>156.99999999999997</ele><time>2026-04-05T09:02:55.664Z</time></trkpt><trkpt lat="39.8140317" lon="-0.247395"><ele>157.0</ele><time>2026-04-05T09:02:58.664Z</time></trkpt><trkpt lat="39.814035" lon="-0.247495"><ele>156.0</ele><time>2026-04-05T09:03:00.665Z</time></trkpt><trkpt lat="39.8140467" lon="-0.2476167"><ele>155.0</ele><time>2026-04-05T09:03:02.664Z</time></trkpt><trkpt lat="39.8140733" lon="-0.247745"><ele>154.0</ele><time>2026-04-05T09:03:04.664Z</time></trkpt><trkpt lat="39.8140933" lon="-0.24789"><ele>153.0</ele><time>2026-04-05T09:03:06.664Z</time></trkpt><trkpt lat="39.8141233" lon="-0.248005"><ele>152.0</ele><time>2026-04-05T09:03:08.664Z</time></trkpt><trkpt lat="39.8141967" lon="-0.24808"><ele>152.0</ele><time>2026-04-05T09:03:10.664Z</time></trkpt><trkpt lat="39.8142933" lon="-0.248095"><ele>152.0</ele><time>2026-04-05T09:03:12.664Z</time></trkpt><trkpt lat="39.8143717" lon="-0.248115"><ele>152.0</ele><time>2026-04-05T09:03:14.665Z</time></trkpt><trkpt lat="39.8144383" lon="-0.24813"><ele>152.0</ele><time>2026-04-05T09:03:16.664Z</time></trkpt><trkpt lat="39.8145217" lon="-0.2481583"><ele>152.0</ele><time>2026-04-05T09:03:19.664Z</time></trkpt><trkpt lat="39.8146" lon="-0.2481917"><ele>152.0</ele><time>2026-04-05T09:03:22.664Z</time></trkpt><trkpt lat="39.814675" lon="-0.24824"><ele>153.28571428571428</ele><time>2026-04-05T09:03:25.664Z</time></trkpt><trkpt lat="39.81474" lon="-0.2482783"><ele>154.57142857142858</ele><time>2026-04-05T09:03:28.665Z</time></trkpt><trkpt lat="39.8148167" lon="-0.2483083"><ele>155.85714285714286</ele><time>2026-04-05T09:03:31.664Z</time></trkpt><trkpt lat="39.814885" lon="-0.2483367"><ele>157.14285714285714</ele><time>2026-04-05T09:03:34.664Z</time></trkpt><trkpt lat="39.814955" lon="-0.248355"><ele>158.42857142857144</ele><time>2026-04-05T09:03:37.664Z</time></trkpt><trkpt lat="39.8150217" lon="-0.2483817"><ele>159.71428571428572</ele><time>2026-04-05T09:03:40.664Z</time></trkpt><trkpt lat="39.8150867" lon="-0.248405"><ele>161.0</ele><time>2026-04-05T09:03:43.664Z</time></trkpt><trkpt lat="39.81515" lon="-0.248425"><ele>162.0</ele><time>2026-04-05T09:03:46.665Z</time></trkpt><trkpt lat="39.8152333" lon="-0.24841"><ele>163.0</ele><time>2026-04-05T09:03:50.665Z</time></trkpt><trkpt lat="39.8153117" lon="-0.2483667"><ele>164.0</ele><time>2026-04-05T09:03:53.664Z</time></trkpt><trkpt lat="39.8153633" lon="-0.248305"><ele>165.0</ele><time>2026-04-05T09:03:55.664Z</time></trkpt><trkpt lat="39.8154183" lon="-0.2482333"><ele>166.0</ele><time>2026-04-05T09:03:57.664Z</time></trkpt><trkpt lat="39.815475" lon="-0.248165"><ele>167.0</ele><time>2026-04-05T09:03:59.664Z</time></trkpt><trkpt lat="39.8155333" lon="-0.2480783"><ele>167.0</ele><time>2026-04-05T09:04:01.665Z</time></trkpt><trkpt lat="39.8155983" lon="-0.248"><ele>167.0</ele><time>2026-04-05T09:04:03.664Z</time></trkpt><trkpt lat="39.8156583" lon="-0.24791"><ele>167.0</ele><time>2026-04-05T09:04:05.664Z</time></trkpt><trkpt lat="39.81572" lon="-0.2478233"><ele>167.0</ele><time>2026-04-05T09:04:07.664Z</time></trkpt><trkpt lat="39.8157767" lon="-0.2477433"><ele>167.0</ele><time>2026-04-05T09:04:09.664Z</time></trkpt><trkpt lat="39.815835" lon="-0.24766"><ele>167.0</ele><time>2026-04-05T09:04:11.665Z</time></trkpt><trkpt lat="39.8158783" lon="-0.2475683"><ele>167.0</ele><time>2026-04-05T09:04:13.664Z</time></trkpt><trkpt lat="39.815915" lon="-0.2474867"><ele>167.0</ele><time>2026-04-05T09:04:15.664Z</time></trkpt><trkpt lat="39.8159483" lon="-0.2474083"><ele>167.0</ele><time>2026-04-05T09:04:17.664Z</time></trkpt><trkpt lat="39.8159717" lon="-0.2473167"><ele>167.0</ele><time>2026-04-05T09:04:19.664Z</time></trkpt><trkpt lat="39.8159983" lon="-0.24724"><ele>167.0</ele><time>2026-04-05T09:04:21.664Z</time></trkpt><trkpt lat="39.81602" lon="-0.247155"><ele>167.0</ele><time>2026-04-05T09:04:23.664Z</time></trkpt><trkpt lat="39.8160433" lon="-0.2470783"><ele>167.0</ele><time>2026-04-05T09:04:25.664Z</time></trkpt><trkpt lat="39.8160817" lon="-0.2469933"><ele>168.28571428571428</ele><time>2026-04-05T09:04:28.664Z</time></trkpt><trkpt lat="39.8161183" lon="-0.2469217"><ele>169.57142857142858</ele><time>2026-04-05T09:04:31.664Z</time></trkpt><trkpt lat="39.8161583" lon="-0.2468367"><ele>170.85714285714286</ele><time>2026-04-05T09:04:34.664Z</time></trkpt><trkpt lat="39.8162017" lon="-0.2467383"><ele>172.14285714285714</ele><time>2026-04-05T09:04:37.665Z</time></trkpt><trkpt lat="39.8162433" lon="-0.2466633"><ele>173.42857142857142</ele><time>2026-04-05T09:04:40.665Z</time></trkpt><trkpt lat="39.816275" lon="-0.246585"><ele>174.71428571428572</ele><time>2026-04-05T09:04:43.665Z</time></trkpt><trkpt lat="39.8163067" lon="-0.2465017"><ele>176.0</ele><time>2026-04-05T09:04:46.665Z</time></trkpt><trkpt lat="39.81635" lon="-0.2464117"><ele>176.0</ele><time>2026-04-05T09:04:49.664Z</time></trkpt><trkpt lat="39.8163817" lon="-0.2463183"><ele>176.0</ele><time>2026-04-05T09:04:52.665Z</time></trkpt><trkpt lat="39.8164167" lon="-0.2462433"><ele>176.0</ele><time>2026-04-05T09:04:55.664Z</time></trkpt><trkpt lat="39.8164517" lon="-0.246165"><ele>176.0</ele><time>2026-04-05T09:04:58.664Z</time></trkpt><trkpt lat="39.8164717" lon="-0.2460617"><ele>176.0</ele><time>2026-04-05T09:05:02.664Z</time></trkpt><trkpt lat="39.8165017" lon="-0.24598"><ele>176.0</ele><time>2026-04-05T09:05:05.664Z</time></trkpt><trkpt lat="39.8165917" lon="-0.2457033"><ele>176.0</ele><time>2026-04-05T09:05:08.299Z</time></trkpt><trkpt lat="39.8165917" lon="-0.2458867"><ele>176.0</ele><time>2026-04-05T09:05:09.666Z</time></trkpt><trkpt lat="39.8166667" lon="-0.245845"><ele>176.0</ele><time>2026-04-05T09:05:12.666Z</time></trkpt><trkpt lat="39.81675" lon="-0.2458717"><ele>176.0</ele><time>2026-04-05T09:05:15.666Z</time></trkpt><trkpt lat="39.8168" lon="-0.24594"><ele>176.0</ele><time>2026-04-05T09:05:18.666Z</time></trkpt></trkseg></trk></gpx>